﻿ProjectID	SampleID	SampleType	TaxonomyID	UniqCodeType	UniqCode	SampleName	ScientificName	CommonName	CollectionYear	CollectionMonth	CollectionDay	SamplingTimeStartEnd	SamplingTimeAMPM	SamplingDuration	WeatherStartEnd	CollectionRegion	CollectionCountry	CollectionArea	CollectionLatitudeFrom	CollectionLatitudeTo	CollectionLongitudeFrom	CollectionLongitudeTo	Sex	TissueOrgan	TissueLipid	TissueMoist	Weight	WeightUnit	Length	LengthUnit	LengthType	GrowthStage	Age	Disease	TemperatureStartEnd	WaterTemperatureStartEnd	pH	DO	EC	EC_temp	Salinity	SS	WaterDepthM	TransparencyM	WaterColor	SedimentTemperatureStartEnd	SedimentDepthM	SedimentAppearance	SedimentColor	SedimentSurfaceColor	SedimentOdor	SedimentImpurities	SedimentMoistureOnSiteAnalysis	IgnitionLossOnSiteAnalysis	SoilDepthM	FlowRate	MeanPM10	MeanTotalSuspendedParticles	HumidityStartEnd	WindDirectionStartEnd	WindSpeedMSStartEnd	AmountOfCollectedAirStartEnd	Remarks	RegisterDate	UpdateDate
PRA000008	SAA000324	ST003	34880	es-BANK	ET00656	E-2	"Nyctereutes procyonoides"	"Raccoon dog"	2000	12	26					Asia	Japan	Ehime	33.88141111	34.01356111	133.39135	133.6865194	Male	Liver	3.39																																							2016/10/5	2016/10/11
PRA000008	SAA000325	ST003	34880	es-BANK	"ET00659 "	E-5	"Nyctereutes procyonoides"	"Raccoon dog"	2001	2	21					Asia	Japan	Ehime	33.83600556	33.86477222	133.3492389	133.4008778	Male	Liver	3.45																																							2016/10/5	2016/10/11
PRA000008	SAA000326	ST003	34880	es-BANK	ET00661	E-7	"Nyctereutes procyonoides"	"Raccoon dog"	2001	3	10					Asia	Japan	Ehime	33.75333333	33.98555833	132.9744417	133.2908333	Female	Liver	4.26																																							2016/10/5	2016/10/11
PRA000008	SAA000327	ST003	34880	es-BANK	ET00666	E-12	"Nyctereutes procyonoides"	"Raccoon dog"	2001	3	16					Asia	Japan	Ehime	33.75333333	33.98555833	132.9744417	133.2908333	Male	Liver	4.98																																							2016/10/5	2016/10/11
PRA000008	SAA000328	ST003	34880	es-BANK	"ET00667 "	E-13	"Nyctereutes procyonoides"	"Raccoon dog"	2001	3	16					Asia	Japan	Ehime	33.75333333	33.98555833	132.9744417	133.2908333	Female	Liver	4.22																																							2016/10/5	2016/10/11
PRA000008	SAA000329	ST003	34880	es-BANK	"ET00668 "	E-14	"Nyctereutes procyonoides"	"Raccoon dog"	2001	3	16					Asia	Japan	Ehime	33.83600556	33.86477222	133.3492389	133.4008778	Female	Liver	3.64																																							2016/10/5	2016/10/11
PRA000008	SAA000330	ST003	34880	es-BANK	"ET00669 "	E-15	"Nyctereutes procyonoides"	"Raccoon dog"	2000	12	2					Asia	Japan	Ehime	33.82055556	33.85694444	132.8847222	132.9741667	Female	Liver	3.39		2.7	kg																																				2016/10/5	2016/10/11
PRA000008	SAA000331	ST003	34880	es-BANK	"ET00670 "	E-16	"Nyctereutes procyonoides"	"Raccoon dog"	2001	2	25					Asia	Japan	Ehime	33.68444167	33.75722222	132.9105556	133.2069444	Male	Liver	3.58		2.1	kg																																				2016/10/5	2016/10/11
PRA000008	SAA000332	ST003	34880	es-BANK	"ET00671 "	E-17	"Nyctereutes procyonoides"	"Raccoon dog"	2001	2	26					Asia	Japan	Ehime	33.83600556	33.86477222	133.3492389	133.4008778	Male	Liver	3.56																																							2016/10/5	2016/10/11
PRA000008	SAA000333	ST003	34880	es-BANK	ET00673	E-19	"Nyctereutes procyonoides"	"Raccoon dog"	2001	2	27					Asia	Japan	Ehime	33.75333333	33.98555833	132.9744417	133.2908333	Female	Liver	4.65																																							2016/10/5	2016/10/11
PRA000008	SAA000334	ST003	34880	es-BANK	"ET00674 "	E-20	"Nyctereutes procyonoides"	"Raccoon dog"	2001	3	17					Asia	Japan	Ehime	33.75333333	33.98555833	132.9744417	133.2908333	Male	Liver	2.56																																							2016/10/5	2016/10/11
PRA000008	SAA000335	ST003	34880	es-BANK	ET00675	E-21	"Nyctereutes procyonoides"	"Raccoon dog"	2001	3	18					Asia	Japan	Ehime	33.75333333	33.98555833	132.9744417	133.2908333	Male	Liver	3.65																																							2016/10/5	2016/10/11
PRA000008	SAA000336	ST003	34880	es-BANK	ET00678	E-24	"Nyctereutes procyonoides"	"Raccoon dog"	2001	1	18					Asia	Japan	Ehime	33.33055556	33.42916667	132.4830556	132.6438889	Female	Liver	4.08																																							2016/10/5	2016/10/11
PRA000008	SAA000337	ST003	34880	es-BANK	ET00679	E-25	"Nyctereutes procyonoides"	"Raccoon dog"	2002	2	7					Asia	Japan	Ehime	33.68444167	33.75722222	132.9105556	133.2069444	Female	Liver	3.66																																							2016/10/5	2016/10/11
PRA000008	SAA000338	ST003	34880	es-BANK	ET00680	E-26	"Nyctereutes procyonoides"	"Raccoon dog"	2002	2						Asia	Japan	Ehime	33.68444167	33.75722222	132.9105556	133.2069444	Male	Liver	5																																							2016/10/5	2016/10/11
PRA000008	SAA000339	ST003	34880	es-BANK	ET00681	E-27	"Nyctereutes procyonoides"	"Raccoon dog"	2002	3	12					Asia	Japan	Ehime	33.59805556	33.70472222	132.8675	133.0338889	Male	Liver	5.06																																							2016/10/5	2016/10/11
PRA000008	SAA000340	ST003	34880	es-BANK	ET00682	E-28	"Nyctereutes procyonoides"	"Raccoon dog"	2002	3	14					Asia	Japan	Ehime	33.83600556	33.86477222	133.3492389	133.4008778	Male	Liver	3.55																																							2016/10/5	2016/10/11
PRA000008	SAA000341	ST003	34880	es-BANK	ET00683	E-29	"Nyctereutes procyonoides"	"Raccoon dog"	2002	4	25					Asia	Japan	Ehime	33.84333333	33.94944444	133.2388889	133.3538889	Male	Liver	4.18																																							2016/10/5	2016/10/11
PRA000008	SAA000342	ST003	34880	es-BANK	ET00685	E-31	"Nyctereutes procyonoides"	"Raccoon dog"	2001	12	23					Asia	Japan	Ehime	33.05083333	33.33611111	132.2252778	132.6852778	Female	Liver	4.06		3.65	kg																																				2016/10/5	2016/10/11
PRA000008	SAA000343	ST003	34880	es-BANK	"ET00686 "	E-32	"Nyctereutes procyonoides"	"Raccoon dog"	2003	11	7					Asia	Japan	Ehime	33.75333333	33.98555833	132.9744417	133.2908333	Male	Liver	4.19																																							2016/10/5	2016/10/11
PRA000008	SAA000344	ST003	34880	es-BANK	"ET00687 "	E-33	"Nyctereutes procyonoides"	"Raccoon dog"	2003	11	7					Asia	Japan	Ehime	33.75333333	33.98555833	132.9744417	133.2908333	Female	Liver	4.02																																							2016/10/5	2016/10/11
PRA000008	SAA000345	ST003	34880	es-BANK	ET00489	O-1	"Nyctereutes procyonoides"	"Raccoon dog"	2004	10	8					Asia	Japan	Osaka	34.305	34.97166667	135.135	135.7883333	Male	Liver	5.75		3	kg																																				2016/10/5	2016/10/11
PRA000008	SAA000346	ST003	34880	es-BANK	"ET00501 "	O-2	"Nyctereutes procyonoides"	"Raccoon dog"	2004	10	13					Asia	Japan	Osaka	34.305	34.97166667	135.135	135.7883333	Male	Liver	3.11		3.5	kg																																				2016/10/5	2016/10/11
PRA000008	SAA000347	ST003	34880	es-BANK	"ET00502 "	O-3	"Nyctereutes procyonoides"	"Raccoon dog"	2004	10	13					Asia	Japan	Osaka	34.305	34.97166667	135.135	135.7883333	Female	Liver	2.8		2.8	kg																																				2016/10/5	2016/10/11
PRA000008	SAA000348	ST003	34880	es-BANK	ET00503	O-4	"Nyctereutes procyonoides"	"Raccoon dog"	2004							Asia	Japan	Osaka	34.305	34.97166667	135.135	135.7883333	Male	Liver	3.17		3.6	kg																																				2016/10/5	2016/10/11
PRA000008	SAA000349	ST003	34880	es-BANK	ET00504	O-5	"Nyctereutes procyonoides"	"Raccoon dog"	2004							Asia	Japan	Osaka	34.305	34.97166667	135.135	135.7883333	Male	Liver	3.93		4.5	kg				Matured																																2016/10/5	2016/10/11
PRA000008	SAA000350	ST003	34880	es-BANK	"ET00723 "	O-6	"Nyctereutes procyonoides"	"Raccoon dog"	2005							Asia	Japan	Osaka	34.305	34.97166667	135.135	135.7883333	Female	Liver	5.51		4.98	kg				Matured																																2016/10/5	2016/10/11
PRA000008	SAA000351	ST003	34880	es-BANK	ET00728	O-9	"Nyctereutes procyonoides"	"Raccoon dog"	2005							Asia	Japan	Osaka	34.305	34.97166667	135.135	135.7883333	Male	Liver	3.11		2.5	kg				Matured																																2016/10/5	2016/10/11
PRA000008	SAA000352	ST003	34880	es-BANK	ET00703	O-11	"Nyctereutes procyonoides"	"Raccoon dog"	2005							Asia	Japan	Osaka	34.305	34.97166667	135.135	135.7883333	Female	Liver	3.25		4.34	kg				Matured																																2016/10/5	2016/10/11
PRA000008	SAA000353	ST003	34880	es-BANK	ET00442		"Nyctereutes procyonoides"	"Raccoon dog"	2001	1	18					Asia	Japan	Kanagawa	35.31583333	35.53805833	139.1144417	139.6652778	Male	Liver	3.44																																							2016/10/5	2016/10/11
PRA000008	SAA000354	ST003	34880	es-BANK	ET00443		"Nyctereutes procyonoides"	"Raccoon dog"	2001	1	24					Asia	Japan	Kanagawa	35.31583333	35.53805833	139.1144417	139.6652778	Male	Liver	4.01																																							2016/10/5	2016/10/11
PRA000008	SAA000355	ST003	34880	es-BANK	ET00765		"Nyctereutes procyonoides"	"Raccoon dog"	2001	2	6					Asia	Japan	Kanagawa	35.31583333	35.53805833	139.1144417	139.6652778	Female	Liver	3.68																																							2016/10/5	2016/10/11
PRA000008	SAA000356	ST003	34880	es-BANK	ET00444		"Nyctereutes procyonoides"	"Raccoon dog"	2001	2	7					Asia	Japan	Kanagawa	35.31583333	35.53805833	139.1144417	139.6652778	Female	Liver	5.45																																							2016/10/5	2016/10/11
PRA000008	SAA000357	ST003	34880	es-BANK	ET00446		"Nyctereutes procyonoides"	"Raccoon dog"	2001	3	21					Asia	Japan	Kanagawa	35.31583333	35.53805833	139.1144417	139.6652778	Male	Liver	3.32																																							2016/10/5	2016/10/11
PRA000008	SAA000358	ST003	34880	es-BANK	ET00448		"Nyctereutes procyonoides"	"Raccoon dog"	2001	4	10					Asia	Japan	Kanagawa	35.31583333	35.53805833	139.1144417	139.6652778	Male	Liver	3.19																																							2016/10/5	2016/10/11
PRA000008	SAA000359	ST003	34880	es-BANK	ET00451		"Nyctereutes procyonoides"	"Raccoon dog"	2001	8	22					Asia	Japan	Kanagawa	35.31583333	35.53805833	139.1144417	139.6652778	Female	Liver	3.66																																							2016/10/5	2016/10/11
PRA000008	SAA000360	ST003	34880	es-BANK	ET00454		"Nyctereutes procyonoides"	"Raccoon dog"	2001	9	19					Asia	Japan	Kanagawa	35.31583333	35.53805833	139.1144417	139.6652778	Male	Liver	4.36																																							2016/10/5	2016/10/11
PRA000008	SAA000361	ST003	34880	es-BANK	ET00455		"Nyctereutes procyonoides"	"Raccoon dog"	2001	10	29					Asia	Japan	Kanagawa	35.31583333	35.53805833	139.1144417	139.6652778	Female	Liver	3.23																																							2016/10/5	2016/10/11
PRA000008	SAA000362	ST003	34880	es-BANK	ET00458		"Nyctereutes procyonoides"	"Raccoon dog"	2001	11	15					Asia	Japan	Kanagawa	35.31583333	35.53805833	139.1144417	139.6652778	Female	Liver	3.49																																							2016/10/5	2016/10/11
PRA000008	SAA000363	ST003	34880	es-BANK	ET00489	O-1	"Nyctereutes procyonoides"	"Raccoon dog"	2004	10	8					Asia	Japan	Osaka	34.305	34.97166667	135.135	135.7883333	Male	Adipose	57.68		3	kg																																				2016/10/5	2016/10/11
PRA000008	SAA000364	ST003	34880	es-BANK	"ET00501 "	O-2	"Nyctereutes procyonoides"	"Raccoon dog"	2004	10	13					Asia	Japan	Osaka	34.305	34.97166667	135.135	135.7883333	Male	Adipose	67.68		3.5	kg																																				2016/10/5	2016/10/11
PRA000008	SAA000365	ST003	34880	es-BANK	"ET00502 "	O-3	"Nyctereutes procyonoides"	"Raccoon dog"	2004	10	13					Asia	Japan	Osaka	34.305	34.97166667	135.135	135.7883333	Female	Adipose	75.87		2.8	kg																																				2016/10/5	2016/10/11
PRA000008	SAA000366	ST003	34880	es-BANK	ET00503	O-4	"Nyctereutes procyonoides"	"Raccoon dog"	2004							Asia	Japan	Osaka	34.305	34.97166667	135.135	135.7883333	Male	Adipose	75.1		3.6	kg																																				2016/10/5	2016/10/11
PRA000008	SAA000367	ST003	34880	es-BANK	ET00504	O-5	"Nyctereutes procyonoides"	"Raccoon dog"	2004							Asia	Japan	Osaka	34.305	34.97166667	135.135	135.7883333	Male	Adipose	79.41		4.5	kg				Matured																																2016/10/5	2016/10/11
PRA000008	SAA000368	ST003	34880	es-BANK	"ET00723 "	O-6	"Nyctereutes procyonoides"	"Raccoon dog"	2005							Asia	Japan	Osaka	34.305	34.97166667	135.135	135.7883333	Female	Adipose	88.03		4.98	kg				Matured																																2016/10/5	2016/10/11
PRA000008	SAA000369	ST003	34880	es-BANK	ET00728	O-9	"Nyctereutes procyonoides"	"Raccoon dog"	2005							Asia	Japan	Osaka	34.305	34.97166667	135.135	135.7883333	Male	Adipose	75.79		2.5	kg				Matured																																2016/10/5	2016/10/11
PRA000008	SAA000370	ST003	34880	es-BANK	ET00703	O-11	"Nyctereutes procyonoides"	"Raccoon dog"	2005							Asia	Japan	Osaka	34.305	34.97166667	135.135	135.7883333	Female	Adipose	82.14		4.34	kg				Matured																																2016/10/5	2016/10/11
PRA000016	SAA000533	ST026				Cam1	Soil		1999							Asia	Cambodia	"Phnom Penh"	11.43	11.72	104.8	104.9																																									"Reference site; Sample collected in 1999 or 2000"	2016/12/12	2016/12/12
PRA000016	SAA000534	ST026				RSS1	Soil		1999							Asia	Cambodia	"Phnom Penh"	11.43	11.72	104.8	104.9																																									"Reference site; Sample collected in 1999 or 2000"	2016/12/12	2016/12/12
PRA000016	SAA000535	ST026				RSS2	Soil		1999							Asia	Cambodia	"Phnom Penh"	11.43	11.72	104.8	104.9																																									"Reference site; Sample collected in 1999 or 2000"	2016/12/12	2016/12/12
PRA000016	SAA000536	ST026				RSS3	Soil		1999							Asia	Cambodia	"Phnom Penh"	11.43	11.72	104.8	104.9																																									"Reference site; Sample collected in 1999 or 2000"	2016/12/12	2016/12/12
PRA000016	SAA000537	ST026				RSS4	Soil		1999							Asia	Cambodia	"Phnom Penh"	11.43	11.72	104.8	104.9																																									"Reference site; Sample collected in 1999 or 2000"	2016/12/12	2016/12/12
PRA000016	SAA000538	ST026				St11	Soil		2004							Asia	India	Chennai	12.89	13.25	80.11	80.3																																									"Reference site"	2016/12/12	2016/12/12
PRA000016	SAA000539	ST026				St12	Soil		2004							Asia	India	Chennai	12.89	13.25	80.11	80.3																																									"Reference site"	2016/12/12	2016/12/12
PRA000016	SAA000540	ST026				St16	Soil		2004							Asia	India	Chennai	12.89	13.25	80.11	80.3																																									"Reference site"	2016/12/12	2016/12/12
PRA000016	SAA000541	ST026				St20	Soil		2004							Asia	India	Chennai	12.89	13.25	80.11	80.3																																									"Reference site"	2016/12/12	2016/12/12
PRA000016	SAA000542	ST026				CS5	Soil		2004							Asia	India	Chennai	12.89	13.25	80.11	80.3																																									"Reference site"	2016/12/12	2016/12/12
PRA000016	SAA000543	ST026				VT01	Soil		2004							Asia	Vietnam	"Can Tho"	10.02	10.07	105.72	105.77																																									"Reference site"	2016/12/12	2016/12/12
PRA000016	SAA000544	ST026				VT02	Soil		2004							Asia	Vietnam	"Can Tho"	10.02	10.07	105.72	105.77																																									"Reference site"	2016/12/12	2016/12/12
PRA000016	SAA000545	ST026				VT05	Soil		2004							Asia	Vietnam	"Can Tho"	10.02	10.07	105.72	105.77																																									"Reference site"	2016/12/12	2016/12/12
PRA000016	SAA000546	ST026				VT06	Soil		2004							Asia	Vietnam	"Can Tho"	10.02	10.07	105.72	105.77																																									"Reference site"	2016/12/12	2016/12/12
PRA000016	SAA000547	ST026				VT08	Soil		2004							Asia	Vietnam	"Can Tho"	10.02	10.07	105.72	105.77																																									"Reference site"	2016/12/12	2016/12/12
PRA000016	SAA000548	ST026				CSS-01	Soil		2004							Asia	Vietnam	"Can Tho"	10.02	10.07	105.72	105.77																																									"Reference site"	2016/12/12	2016/12/12
PRA000016	SAA000549	ST026				CSS-03	Soil		2004							Asia	Vietnam	"Can Tho"	10.02	10.07	105.72	105.77																																									"Reference site"	2016/12/12	2016/12/12
PRA000016	SAA000550	ST026				KHB-7	Soil		2003							Asia	Indonesia	Jakarta	-5.4	-5.833333333	106.1166667	107																																									"Reference site"	2016/12/12	2016/12/12
PRA000016	SAA000551	ST026				KHB-8	Soil		2003							Asia	Indonesia	Jakarta	-5.4	-5.833333333	106.1166667	107																																									"Reference site"	2016/12/12	2016/12/12
PRA000016	SAA000552	ST026				CBB5	Soil		2003							Asia	Indonesia	Jakarta	-5.4	-5.833333333	106.1166667	107																																									"Reference site"	2016/12/12	2016/12/12
PRA000016	SAA000553	ST026				CBB6	Soil		2003							Asia	Indonesia	Jakarta	-5.4	-5.833333333	106.1166667	107																																									"Reference site"	2016/12/12	2016/12/12
PRA000016	SAA000554	ST026				BSB9	Soil		2003							Asia	Indonesia	Jakarta	-5.4	-5.833333333	106.1166667	107																																									"Reference site"	2016/12/12	2016/12/12
PRA000016	SAA000555	ST026				TJB19	Soil		2003							Asia	Indonesia	Jakarta	-5.4	-5.833333333	106.1166667	107																																									"Reference site"	2016/12/12	2016/12/12
PRA000016	SAA000556	ST026				SDB21	Soil		2003							Asia	Indonesia	Jakarta	-5.4	-5.833333333	106.1166667	107																																									"Reference site"	2016/12/12	2016/12/12
PRA000016	SAA000557	ST026				BHL23	Soil		2003							Asia	Indonesia	Jakarta	-5.4	-5.833333333	106.1166667	107																																									"Reference site"	2016/12/12	2016/12/12
PRA000016	SAA000558	ST026				LG-8	Soil		2002							Asia	Malaysia	"Kuala Lumpur"	3.05	3.23	101.7	101.6																																									"Reference site"	2016/12/12	2016/12/12
PRA000016	SAA000559	ST026				LG-10	Soil		2002							Asia	Malaysia	"Kuala Lumpur"	3.05	3.23	101.7	101.6																																									"Reference site"	2016/12/12	2016/12/12
PRA000016	SAA000560	ST026				DRS-1	Soil		2000							Asia	Cambodia	"Phnom Penh"	11.43	11.72	104.8	104.9																																									"Dumping site"	2016/12/12	2016/12/12
PRA000016	SAA000561	ST026				DRS8	Soil		2000							Asia	Cambodia	"Phnom Penh"	11.43	11.72	104.8	104.9																																									"Dumping site"	2016/12/12	2016/12/12
PRA000016	SAA000562	ST026				DS1	Soil		1999							Asia	Cambodia	"Phnom Penh"	11.43	11.72	104.8	104.9																																									"Dumping site"	2016/12/12	2016/12/12
PRA000016	SAA000563	ST026				DS2	Soil		1999							Asia	Cambodia	"Phnom Penh"	11.43	11.72	104.8	104.9																																									"Dumping site"	2016/12/12	2016/12/12
PRA000016	SAA000564	ST026				DS3	Soil		1999							Asia	Cambodia	"Phnom Penh"	11.43	11.72	104.8	104.9																																									"Dumping site"	2016/12/12	2016/12/12
PRA000016	SAA000565	ST026				DSS2	Soil		1999							Asia	Cambodia	"Phnom Penh"	11.43	11.72	104.8	104.9																																									"Dumping site"	2016/12/12	2016/12/12
PRA000016	SAA000566	ST026				DS5	Soil		2004							Asia	India	Chennai	12.89	13.25	80.11	80.3																																									"Dumping site"	2016/12/12	2016/12/12
PRA000016	SAA000567	ST026				DS8	Soil		2004							Asia	India	Chennai	12.89	13.25	80.11	80.3																																									"Dumping site"	2016/12/12	2016/12/12
PRA000016	SAA000568	ST026				DS9	Soil		2004							Asia	India	Chennai	12.89	13.25	80.11	80.3																																									"Dumping site"	2016/12/12	2016/12/12
PRA000016	SAA000569	ST026				PDSI-1	Soil		2004							Asia	India	Chennai	12.89	13.25	80.11	80.3																																									"Dumping site"	2016/12/12	2016/12/12
PRA000016	SAA000570	ST026				PDSO-1	Soil		2004							Asia	India	Chennai	12.89	13.25	80.11	80.3																																									"Dumping site"	2016/12/12	2016/12/12
PRA000016	SAA000571	ST026				Moor-Rich2	Soil		2004							Asia	India	Chennai	12.89	13.25	80.11	80.3																																									"Dumping site"	2016/12/12	2016/12/12
PRA000016	SAA000572	ST026				"K-2 India"	Soil		2004							Asia	India	Chennai	12.89	13.25	80.11	80.3																																									"Dumping site"	2016/12/12	2016/12/12
PRA000016	SAA000573	ST026				PDS-2	Soil		2004							Asia	India	Chennai	12.89	13.25	80.11	80.3																																									"Dumping site"	2016/12/12	2016/12/12
PRA000016	SAA000574	ST026				PDS-6	Soil		2004							Asia	India	Chennai	12.89	13.25	80.11	80.3																																									"Dumping site"	2016/12/12	2016/12/12
PRA000016	SAA000575	ST026				PDS-8	Soil		2004							Asia	India	Chennai	12.89	13.25	80.11	80.3																																									"Dumping site"	2016/12/12	2016/12/12
PRA000016	SAA000576	ST026				DSS-02	Soil		2004							Asia	Vietnam	"Can Tho"	10.02	10.07	105.72	105.77																																									"Dumping site"	2016/12/12	2016/12/12
PRA000016	SAA000577	ST026				DSS-03	Soil		2004							Asia	Vietnam	"Can Tho"	10.02	10.07	105.72	105.77																																									"Dumping site"	2016/12/12	2016/12/12
PRA000016	SAA000578	ST026				DSS-04	Soil		2004							Asia	Vietnam	"Can Tho"	10.02	10.07	105.72	105.77																																									"Dumping site"	2016/12/12	2016/12/12
PRA000016	SAA000579	ST026				DSS-08	Soil		2004							Asia	Vietnam	"Can Tho"	10.02	10.07	105.72	105.77																																									"Dumping site"	2016/12/12	2016/12/12
PRA000016	SAA000580	ST026				DSS-09	Soil		2004							Asia	Vietnam	"Can Tho"	10.02	10.07	105.72	105.77																																									"Dumping site"	2016/12/12	2016/12/12
PRA000016	SAA000581	ST026				LDSS001	Soil		2003							Asia	Indonesia	Jakarta	-5.4	-5.833333333	106.1166667	107																																									"Dumping site; Sample collected in 2002 or 2003"	2016/12/12	2016/12/12
PRA000016	SAA000582	ST026				LDSS002	Soil		2003							Asia	Indonesia	Jakarta	-5.4	-5.833333333	106.1166667	107																																									"Dumping site; Sample collected in 2002 or 2003"	2016/12/12	2016/12/12
PRA000016	SAA000583	ST026				LDSS003	Soil		2003							Asia	Indonesia	Jakarta	-5.4	-5.833333333	106.1166667	107																																									"Dumping site; Sample collected in 2002 or 2003"	2016/12/12	2016/12/12
PRA000016	SAA000584	ST026				LDSS004	Soil		2003							Asia	Indonesia	Jakarta	-5.4	-5.833333333	106.1166667	107																																									"Dumping site; Sample collected in 2002 or 2003"	2016/12/12	2016/12/12
PRA000016	SAA000585	ST026				LDSS005	Soil		2003							Asia	Indonesia	Jakarta	-5.4	-5.833333333	106.1166667	107																																									"Dumping site; Sample collected in 2002 or 2003"	2016/12/12	2016/12/12
PRA000016	SAA000586	ST026				ISDS004	Soil		2003							Asia	Indonesia	Jakarta	-5.4	-5.833333333	106.1166667	107																																									"Dumping site; Sample collected in 2002 or 2003"	2016/12/12	2016/12/12
PRA000016	SAA000587	ST026				ISDS005	Soil		2003							Asia	Indonesia	Jakarta	-5.4	-5.833333333	106.1166667	107																																									"Dumping site; Sample collected in 2002 or 2003"	2016/12/12	2016/12/12
PRA000016	SAA000588	ST026				ISDS006	Soil		2003							Asia	Indonesia	Jakarta	-5.4	-5.833333333	106.1166667	107																																									"Dumping site; Sample collected in 2002 or 2003"	2016/12/12	2016/12/12
PRA000016	SAA000589	ST026				ISDS007	Soil		2003							Asia	Indonesia	Jakarta	-5.4	-5.833333333	106.1166667	107																																									"Dumping site; Sample collected in 2002 or 2003"	2016/12/12	2016/12/12
PRA000016	SAA000590	ST026				ISDS009	Soil		2003							Asia	Indonesia	Jakarta	-5.4	-5.833333333	106.1166667	107																																									"Dumping site; Sample collected in 2002 or 2003"	2016/12/12	2016/12/12
PRA000016	SAA000591	ST026				ISDS012	Soil		2003							Asia	Indonesia	Jakarta	-5.4	-5.833333333	106.1166667	107																																									"Dumping site; Sample collected in 2002 or 2003"	2016/12/12	2016/12/12
PRA000016	SAA000592	ST026				ISDS014	Soil		2003							Asia	Indonesia	Jakarta	-5.4	-5.833333333	106.1166667	107																																									"Dumping site; Sample collected in 2002 or 2003"	2016/12/12	2016/12/12
PRA000016	SAA000593	ST026				ISDS018	Soil		2003							Asia	Indonesia	Jakarta	-5.4	-5.833333333	106.1166667	107																																									"Dumping site; Sample collected in 2002 or 2003"	2016/12/12	2016/12/12
PRA000016	SAA000594	ST026				ISDS019	Soil		2003							Asia	Indonesia	Jakarta	-5.4	-5.833333333	106.1166667	107																																									"Dumping site; Sample collected in 2002 or 2003"	2016/12/12	2016/12/12
PRA000016	SAA000595	ST026				ISDS025	Soil		2003							Asia	Indonesia	Jakarta	-5.4	-5.833333333	106.1166667	107																																									"Dumping site; Sample collected in 2002 or 2003"	2016/12/12	2016/12/12
PRA000016	SAA000596	ST026				ISDS028	Soil		2003							Asia	Indonesia	Jakarta	-5.4	-5.833333333	106.1166667	107																																									"Dumping site; Sample collected in 2002 or 2003"	2016/12/12	2016/12/12
PRA000016	SAA000597	ST026				ISDS029	Soil		2003							Asia	Indonesia	Jakarta	-5.4	-5.833333333	106.1166667	107																																									"Dumping site; Sample collected in 2002 or 2003"	2016/12/12	2016/12/12
PRA000016	SAA000598	ST026				INDS1-1	Soil		2007							Asia	Indonesia	Jakarta	-5.4	-5.833333333	106.1166667	107																																									"Dumping site"	2016/12/12	2016/12/12
PRA000016	SAA000599	ST026				INDS1-2	Soil		2007							Asia	Indonesia	Jakarta	-5.4	-5.833333333	106.1166667	107																																									"Dumping site"	2016/12/12	2016/12/12
PRA000016	SAA000600	ST026				INDS1-3	Soil		2007							Asia	Indonesia	Jakarta	-5.4	-5.833333333	106.1166667	107																																									"Dumping site"	2016/12/12	2016/12/12
PRA000016	SAA000601	ST026				INDS2-1	Soil		2007							Asia	Indonesia	Jakarta	-5.4	-5.833333333	106.1166667	107																																									"Dumping site"	2016/12/12	2016/12/12
PRA000016	SAA000602	ST026				INDS2-2	Soil		2007							Asia	Indonesia	Jakarta	-5.4	-5.833333333	106.1166667	107																																									"Dumping site"	2016/12/12	2016/12/12
PRA000016	SAA000603	ST026				INDS2-3	Soil		2007							Asia	Indonesia	Jakarta	-5.4	-5.833333333	106.1166667	107																																									"Dumping site"	2016/12/12	2016/12/12
PRA000016	SAA000604	ST026				INDS2-4	Soil		2007							Asia	Indonesia	Jakarta	-5.4	-5.833333333	106.1166667	107																																									"Dumping site"	2016/12/12	2016/12/12
PRA000016	SAA000605	ST026				INDS2-5	Soil		2007							Asia	Indonesia	Jakarta	-5.4	-5.833333333	106.1166667	107																																									"Dumping site"	2016/12/12	2016/12/12
PRA000016	SAA000606	ST026				INDS3-1	Soil		2007							Asia	Indonesia	Jakarta	-5.4	-5.833333333	106.1166667	107																																									"Dumping site"	2016/12/12	2016/12/12
PRA000016	SAA000607	ST026				INDS3-2	Soil		2007							Asia	Indonesia	Jakarta	-5.4	-5.833333333	106.1166667	107																																									"Dumping site"	2016/12/12	2016/12/12
PRA000016	SAA000608	ST026				INDS3-3	Soil		2007							Asia	Indonesia	Jakarta	-5.4	-5.833333333	106.1166667	107																																									"Dumping site"	2016/12/12	2016/12/12
PRA000016	SAA000609	ST026				INDS4-1	Soil		2007							Asia	Indonesia	Jakarta	-5.4	-5.833333333	106.1166667	107																																									"Dumping site"	2016/12/12	2016/12/12
PRA000016	SAA000610	ST026				INDS4-2	Soil		2007							Asia	Indonesia	Jakarta	-5.4	-5.833333333	106.1166667	107																																									"Dumping site"	2016/12/12	2016/12/12
PRA000016	SAA000611	ST026				INDS4-3	Soil		2007							Asia	Indonesia	Jakarta	-5.4	-5.833333333	106.1166667	107																																									"Dumping site"	2016/12/12	2016/12/12
PRA000016	SAA000612	ST026				INDS5-1	Soil		2007							Asia	Indonesia	Jakarta	-5.4	-5.833333333	106.1166667	107																																									"Dumping site"	2016/12/12	2016/12/12
PRA000016	SAA000613	ST026				INDS5-2	Soil		2007							Asia	Indonesia	Jakarta	-5.4	-5.833333333	106.1166667	107																																									"Dumping site"	2016/12/12	2016/12/12
PRA000016	SAA000614	ST026				INDS5-3	Soil		2007							Asia	Indonesia	Jakarta	-5.4	-5.833333333	106.1166667	107																																									"Dumping site"	2016/12/12	2016/12/12
PRA000016	SAA000615	ST026				TPA2	Soil		2003							Asia	Indonesia	Jakarta	-5.4	-5.833333333	106.1166667	107																																									"Dumping site"	2016/12/12	2016/12/12
PRA000016	SAA000616	ST026				TPA3	Soil		2003							Asia	Indonesia	Jakarta	-5.4	-5.833333333	106.1166667	107																																									"Dumping site"	2016/12/12	2016/12/12
PRA000016	SAA000617	ST026				R-3	Soil		2002							Asia	Malaysia	"Kuala Lumpur"	3.05	3.23	101.6	101.7																																									"Dumping site"	2016/12/12	2016/12/12
PRA000016	SAA000618	ST026				P11	Soil		2002							Asia	Malaysia	"Kuala Lumpur"	3.05	3.23	101.6	101.7																																									"Dumping site"	2016/12/12	2016/12/12
PRA000018	SAA000647	ST003	9606			E-03	"Homo sapiens"	Human	2003							Asia	Japan	Ehime	32.88472222	34.30166667	132.0125	133.6930556	Female	Adipose	79.34								"59 y.o."	"Acute lymphocytic leukemia"																													"Measenteric fat; Same sample as SAA000637"	2016/12/12	2016/12/12
PRA000018	SAA000648	ST003	9606			E-04	"Homo sapiens"	Human	2004							Asia	Japan	Ehime	32.88472222	34.30166667	132.0125	133.6930556	Male	Adipose	64.88								"69 y.o."	"Cervical lymphnode metastatic cancer of unknown origin"																													"Measenteric fat; Same sample as SAA000628"	2016/12/12	2016/12/12
PRA000018	SAA000649	ST003	9606			E-05	"Homo sapiens"	Human	2004							Asia	Japan	Ehime	32.88472222	34.30166667	132.0125	133.6930556	Female	Adipose	75.07								"53 y.o."	"Acute myelocytic leukemia "																													"Measenteric fat; Same sample as SAA000638"	2016/12/12	2016/12/12
PRA000018	SAA000650	ST003	9606			E-06	"Homo sapiens"	Human	2004							Asia	Japan	Ehime	32.88472222	34.30166667	132.0125	133.6930556	Female	Adipose	61.24								"69 y.o."	"Carcinoma of the gallbladder "																													"Measenteric fat; Same sample as SAA000639"	2016/12/12	2016/12/12
PRA000018	SAA000651	ST003	9606			E-07	"Homo sapiens"	Human	2004							Asia	Japan	Ehime	32.88472222	34.30166667	132.0125	133.6930556	Female	Adipose	65.76								"72 y.o."	"Hepatic insufficiency, liver cirrhosis "																													"Measenteric fat; Same sample as SAA000640"	2016/12/12	2016/12/12
PRA000018	SAA000652	ST003	9606			E-08	"Homo sapiens"	Human	2004							Asia	Japan	Ehime	32.88472222	34.30166667	132.0125	133.6930556	Male	Adipose	74.09								"25 y.o."	Rhabdomyosarcoma																													"Measenteric fat; Same sample as SAA000619"	2016/12/12	2016/12/12
PRA000018	SAA000653	ST003	9606			E-09	"Homo sapiens"	Human	2004							Asia	Japan	Ehime	32.88472222	34.30166667	132.0125	133.6930556	Male	Adipose	65.94								"57 y.o."	Cholangiocarcinoma																													"Measenteric fat; Same sample as SAA000624"	2016/12/12	2016/12/12
PRA000018	SAA000654	ST003	9606			E-10	"Homo sapiens"	Human	2004							Asia	Japan	Ehime	32.88472222	34.30166667	132.0125	133.6930556	Male	Adipose	81.36								"76 y.o."	"Pneumonia, idiopathic interstitial pneumonia "																													"Measenteric fat; Same sample as SAA000631"	2016/12/12	2016/12/12
PRA000018	SAA000655	ST003	9606			E-11	"Homo sapiens"	Human	2004							Asia	Japan	Ehime	32.88472222	34.30166667	132.0125	133.6930556	Male	Adipose	50.21								"79 y.o."	"Lung cancer "																													"Measenteric fat; Same sample as SAA000632"	2016/12/12	2016/12/12
PRA000018	SAA000656	ST003	9606			E-12	"Homo sapiens"	Human	2004							Asia	Japan	Ehime	32.88472222	34.30166667	132.0125	133.6930556	Male	Adipose	81.58								"70 y.o."	"Perforation of gastro-intestinal tract, pneumocystis carini pneumonia "																													"Measenteric fat; Same sample as SAA000629"	2016/12/12	2016/12/12
PRA000018	SAA000657	ST003	9606			E-13	"Homo sapiens"	Human	2004							Asia	Japan	Ehime	32.88472222	34.30166667	132.0125	133.6930556	Male	Adipose	75.41								"73 y.o."	"Gastric cancer, malgnant lymphoma "																													"Measenteric fat; Same sample as SAA000630"	2016/12/12	2016/12/12
PRA000018	SAA000658	ST003	9606			E-15	"Homo sapiens"	Human	2004							Asia	Japan	Ehime	32.88472222	34.30166667	132.0125	133.6930556	Male	Adipose	73.54								"81 y.o."	"Metastatic liver cancer "																													"Measenteric fat; Same sample as SAA000635"	2016/12/12	2016/12/12
PRA000018	SAA000659	ST003	9606			E-16	"Homo sapiens"	Human	2004							Asia	Japan	Ehime	32.88472222	34.30166667	132.0125	133.6930556	Male	Adipose	53.52								"41 y.o."	"Liposarcoma, liver metastasis, lung metastasis "																													"Measenteric fat; Same sample as SAA000622"	2016/12/12	2016/12/12
PRA000018	SAA000660	ST003	9606			E-17	"Homo sapiens"	Human	2004							Asia	Japan	Ehime	32.88472222	34.30166667	132.0125	133.6930556	Female	Adipose	70.22								"62 y.o."	"Multiple systemic atrophy "																													"Measenteric fat; Same sample as SAA000641"	2016/12/12	2016/12/12
PRA000018	SAA000661	ST003	9606			E-18	"Homo sapiens"	Human	2004							Asia	Japan	Ehime	32.88472222	34.30166667	132.0125	133.6930556	Female	Adipose	71.5								"76 y.o."	"Gastric cancer, lung cancer "																													"Measenteric fat; Same sample as SAA000643"	2016/12/12	2016/12/12
PRA000018	SAA000662	ST003	9606			E-19	"Homo sapiens"	Human	2004							Asia	Japan	Ehime	32.88472222	34.30166667	132.0125	133.6930556	Female	Adipose	75.76								"71 y.o."	"Breast cancer, lymphoangitis carcinomatosa, idiopathic interstitial pneumonia "																													"Measenteric fat; Same sample as SAA000644"	2016/12/12	2016/12/12
PRA000018	SAA000663	ST003	9606			E-21	"Homo sapiens"	Human	2004							Asia	Japan	Ehime	32.88472222	34.30166667	132.0125	133.6930556	Male	Adipose	72.87								"62 y.o."	"Amyotrophic lateral sclerosis"																													"Measenteric fat"	2016/12/12	2016/12/12
PRA000018	SAA000664	ST003	9606			E-22	"Homo sapiens"	Human	2004							Asia	Japan	Ehime	32.88472222	34.30166667	132.0125	133.6930556	Male	Adipose	60.01								"81 y.o."	"Idiopathic pulmopnary fibrosis, Aspiration pneumonia"																													"Measenteric fat"	2016/12/12	2016/12/12
PRA000018	SAA000665	ST003	9606			E-23	"Homo sapiens"	Human	2004							Asia	Japan	Ehime	32.88472222	34.30166667	132.0125	133.6930556	Male	Adipose	52.34								"75 y.o."	"Hepatocellular carcinoma"																													"Measenteric fat"	2016/12/12	2016/12/12
PRA000018	SAA000666	ST003	9606			E-24	"Homo sapiens"	Human	2004							Asia	Japan	Ehime	32.88472222	34.30166667	132.0125	133.6930556	Male	Adipose	67.44								"75 y.o."	"Hepatocellular carcinoma"																													"Measenteric fat"	2016/12/12	2016/12/12
PRA000018	SAA000667	ST003	9606			E-25	"Homo sapiens"	Human	2004							Asia	Japan	Ehime	32.88472222	34.30166667	132.0125	133.6930556	Male	Adipose	45.88								"63 y.o."	"Lung cancer"																													"Measenteric fat"	2016/12/12	2016/12/12
PRA000018	SAA000668	ST003	9606			E-26	"Homo sapiens"	Human	2004							Asia	Japan	Ehime	32.88472222	34.30166667	132.0125	133.6930556	Female	Adipose	68.46								"70 y.o."	"Fulminant hepatitis"																													"Measenteric fat"	2016/12/12	2016/12/12
PRA000018	SAA000669	ST003	9606			E-27	"Homo sapiens"	Human	2004							Asia	Japan	Ehime	32.88472222	34.30166667	132.0125	133.6930556	Female	Adipose	69.25								"74 y.o."	"Fulminant hepatitis"																													"Measenteric fat"	2016/12/12	2016/12/12
PRA000018	SAA000670	ST003	9606			E-28	"Homo sapiens"	Human	2004							Asia	Japan	Ehime	32.88472222	34.30166667	132.0125	133.6930556	Male	Adipose	59.01								"55 y.o."	"Lung cancer"																													"Measenteric fat"	2016/12/12	2016/12/12
PRA000018	SAA000671	ST003	9606			E-29	"Homo sapiens"	Human	2004							Asia	Japan	Ehime	32.88472222	34.30166667	132.0125	133.6930556	Female	Adipose	81.96								"76 y.o."	"Multiple organ failure"																													"Measenteric fat"	2016/12/12	2016/12/12
PRA000018	SAA000672	ST003	9606			E-30	"Homo sapiens"	Human	2004							Asia	Japan	Ehime	32.88472222	34.30166667	132.0125	133.6930556	Female	Adipose	63.1								"72 y.o."	"Interstitial pneumonia"																													"Measenteric fat"	2016/12/12	2016/12/12
PRA000018	SAA000673	ST003	9606			211	"Homo sapiens"	Human	2003							Asia	Japan	Kanto	34.917714	36.28333333	138.7113889	140.857758	Male	Adipose	61.95								"81 y.o."	Hepatocarcinoma																													"Measenteric fat"	2016/12/12	2016/12/12
PRA000018	SAA000674	ST003	9606			212	"Homo sapiens"	Human	2003							Asia	Japan	Kanto	34.917714	36.28333333	138.7113889	140.857758	Female	Adipose	83.11								"62 y.o."	"Breast cancer"																													"Measenteric fat; Same sample as SAA000642"	2016/12/12	2016/12/12
PRA000018	SAA000675	ST003	9606			215	"Homo sapiens"	Human	2003							Asia	Japan	Kanto	34.917714	36.28333333	138.7113889	140.857758	Male	Adipose	46.62								"58 y.o."	"Acute myelocytic leukemia "																													"Measenteric fat; Same sample as SAA000625"	2016/12/12	2016/12/12
PRA000018	SAA000676	ST003	9606			216	"Homo sapiens"	Human	2003							Asia	Japan	Kanto	34.917714	36.28333333	138.7113889	140.857758	Male	Adipose	67.94								"84 y.o."	"Lung cancer"																													"Measenteric fat"	2016/12/12	2016/12/12
PRA000018	SAA000677	ST003	9606			217	"Homo sapiens"	Human	2003							Asia	Japan	Kanto	34.917714	36.28333333	138.7113889	140.857758	Male	Adipose	74.07								"81 y.o."	"Cardiac infarction "																													"Measenteric fat; Same sample as SAA000636"	2016/12/12	2016/12/12
PRA000018	SAA000678	ST003	9606			218	"Homo sapiens"	Human	2003							Asia	Japan	Kanto	34.917714	36.28333333	138.7113889	140.857758	Female	Adipose	63.06								"83 y.o."	"Lung cancer"																													"Measenteric fat; Same sample as SAA000645"	2016/12/12	2016/12/12
PRA000018	SAA000679	ST003	9606			219	"Homo sapiens"	Human	2003							Asia	Japan	Kanto	34.917714	36.28333333	138.7113889	140.857758	Male	Adipose	68.85								"79 y.o."	"Malignant lymphoma "																													"Measenteric fat; Same sample as SAA000633"	2016/12/12	2016/12/12
PRA000018	SAA000680	ST003	9606			220	"Homo sapiens"	Human	2003							Asia	Japan	Kanto	34.917714	36.28333333	138.7113889	140.857758	Female	Adipose	71.32								"109 y.o."	"Senile deterioration"																													"Measenteric fat; Same sample as SAA000646"	2016/12/12	2016/12/12
PRA000018	SAA000681	ST003	9606			221	"Homo sapiens"	Human	2003							Asia	Japan	Kanto	34.917714	36.28333333	138.7113889	140.857758	Male	Adipose	56.79								"60 y.o."	"Hepatocellular carcinoma "																													"Measenteric fat; Same sample as SAA000626"	2016/12/12	2016/12/12
PRA000030	SAA001903	ST004	34892	es-BANK	EW00736	9053	"Neophocaena phocaenoides"	"Finless Porpoise"	1990							Asia	China	Dongshan	23.65352778	23.71171389	117.2606639	117.2949778	Male	Blubber	87		27	kg	121	cm	"Body length"		"1 y.o."																															2017/5/31	2017/5/31
PRA000030	SAA001904	ST004	34892	es-BANK	EW00743	9063	"Neophocaena phocaenoides"	"Finless Porpoise"	1990							Asia	China	Dongshan	23.65352778	23.71171389	117.2606639	117.2949778	Male	Blubber	73		29	kg	126.2	cm	"Body length"		"1 y.o."																															2017/5/31	2017/5/31
PRA000030	SAA001905	ST004	34892	es-BANK	EW00747	9067	"Neophocaena phocaenoides"	"Finless Porpoise"	1990							Asia	China	Dongshan	23.65352778	23.71171389	117.2606639	117.2949778	Male	Blubber	92		52.5	kg	153.2	cm	"Body length"		"6 y.o."																															2017/5/31	2017/5/31
PRA000030	SAA001906	ST004	34892	es-BANK	EW00753	9074	"Neophocaena phocaenoides"	"Finless Porpoise"	1990							Asia	China	Dongshan	23.65352778	23.71171389	117.2606639	117.2949778	Male	Blubber	78		54	kg	158.5	cm	"Body length"		"6 y.o."																															2017/5/31	2017/5/31
PRA000030	SAA001907	ST004	34892	es-BANK	EW00755	9076	"Neophocaena phocaenoides"	"Finless Porpoise"	1990							Asia	China	Dongshan	23.65352778	23.71171389	117.2606639	117.2949778	Male	Blubber	83		57	kg	160.3	cm	"Body length"		"11 y.o."																															2017/5/31	2017/5/31
PRA000030	SAA001908	ST004	34892	es-BANK	EW00758	9079	"Neophocaena phocaenoides"	"Finless Porpoise"	1990							Asia	China	Dongshan	23.65352778	23.71171389	117.2606639	117.2949778	Male	Blubber	91		60	kg	161.7	cm	"Body length"		"5 y.o."																															2017/5/31	2017/5/31
PRA000030	SAA001909	ST004	34892	es-BANK	EW00741	9061	"Neophocaena phocaenoides"	"Finless Porpoise"	1990							Asia	China	Dongshan	23.65352778	23.71171389	117.2606639	117.2949778	Male	Blubber	71		63	kg	167.1	cm	"Body length"		"8 y.o."																															2017/5/31	2017/5/31
PRA000030	SAA001910	ST004	34892	es-BANK	EW00861	NP00-28/12	"Neophocaena phocaenoides"	"Finless Porpoise"	2000	12	28					Asia	China	"Hong Kong"	22.16097222	22.49902222	113.8576722	114.4423972	Male	Blubber	40																																						"Body length: >123 cm"	2017/5/31	2017/5/31
PRA000030	SAA001911	ST004	34892	es-BANK	EW00860	NP00-26/12	"Neophocaena phocaenoides"	"Finless Porpoise"	2000	12	26					Asia	China	"Hong Kong"	22.16097222	22.49902222	113.8576722	114.4423972	Male	Blubber	34				152	cm	"Body length"																																	2017/5/31	2017/5/31
PRA000030	SAA001912	ST004	34892	es-BANK	EW00862	NP01-20/03	"Neophocaena phocaenoides"	"Finless Porpoise"	2001	3	20					Asia	China	"Hong Kong"	22.16097222	22.49902222	113.8576722	114.4423972	Male	Blubber	63				121	cm	"Body length"																																	2017/5/31	2017/5/31
PRA000030	SAA001913	ST004	34892	es-BANK	EW00864	NP01-24/05	"Neophocaena phocaenoides"	"Finless Porpoise"	2001	5	24					Asia	China	"Hong Kong"	22.16097222	22.49902222	113.8576722	114.4423972	Male	Blubber	65				159	cm	"Body length"																																	2017/5/31	2017/5/31
PRA000030	SAA001914	ST004	34892	es-BANK	EW00863	NP01-12/04	"Neophocaena phocaenoides"	"Finless Porpoise"	2001	4	12					Asia	China	"Hong Kong"	22.16097222	22.49902222	113.8576722	114.4423972	Male	Blubber	32				163	cm	"Body length"																																	2017/5/31	2017/5/31
PRA000030	SAA001917	ST004	103600	es-BANK	EW00632	SC97-03/09	"Sousa chinensis"	" Indo-pacific humpbacked dolphin"	1997	9	3					Asia	China	"Hong Kong"	22.16097222	22.49902222	113.8576722	114.4423972	Male	Blubber	53				265	cm	"Body length"																																	2017/5/31	2017/5/31
PRA000030	SAA001918	ST004	103600	es-BANK	EW00639	SC98-07/08	"Sousa chinensis"	" Indo-pacific humpbacked dolphin"	1998	8	7					Asia	China	"Hong Kong"	22.16097222	22.49902222	113.8576722	114.4423972	Male	Blubber	13				221	cm	"Body length"																																	2017/5/31	2017/5/31
PRA000030	SAA001919	ST004	103600	es-BANK	EW00654	SC00-30/11	"Sousa chinensis"	" Indo-pacific humpbacked dolphin"	2000	11	30					Asia	China	"Hong Kong"	22.16097222	22.49902222	113.8576722	114.4423972	Male	Blubber	34				231	cm	"Body length"																																	2017/5/31	2017/5/31
PRA000030	SAA001920	ST004	103600	es-BANK	EW00655	SC00-14/12	"Sousa chinensis"	" Indo-pacific humpbacked dolphin"	2000	12	14					Asia	China	"Hong Kong"	22.16097222	22.49902222	113.8576722	114.4423972	Female	Blubber	18				252	cm	"Body length"																																	2017/5/31	2017/5/31
PRA000030	SAA001921	ST004	103600	es-BANK	EW00657	SC01-06/05	"Sousa chinensis"	" Indo-pacific humpbacked dolphin"	2001	5	6					Asia	China	"Hong Kong"	22.16097222	22.49902222	113.8576722	114.4423972	Male	Blubber	29				106	cm	"Body length"																																	2017/5/31	2017/5/31
PRA000030	SAA001922	ST004	103600	es-BANK	EW00658	SC01-03/06	"Sousa chinensis"	" Indo-pacific humpbacked dolphin"	2001	6	3					Asia	China	"Hong Kong"	22.16097222	22.49902222	113.8576722	114.4423972	Male	Blubber	32				107	cm	"Body length"																																	2017/5/31	2017/5/31
PRA000030	SAA001923	ST004	103600	es-BANK	EW00659	SC01-06/02	"Sousa chinensis"	" Indo-pacific humpbacked dolphin"	2001	2	6					Asia	China	"Hong Kong"	22.16097222	22.49902222	113.8576722	114.4423972	Male	Blubber	17				160	cm	"Body length"																																	2017/5/31	2017/5/31
PRA000030	SAA001924	ST004	103600	es-BANK	EW00660	SC01-28/06	"Sousa chinensis"	" Indo-pacific humpbacked dolphin"	2001	6	28					Asia	China	"Hong Kong"	22.16097222	22.49902222	113.8576722	114.4423972	Male	Blubber	18				247	cm	"Body length"																																	2017/5/31	2017/5/31
PRA000030	SAA001925	ST004	103600	es-BANK	EW00656	SC01-11/02	"Sousa chinensis"	" Indo-pacific humpbacked dolphin"	2001	2	11					Asia	China	"Hong Kong"	22.16097222	22.49902222	113.8576722	114.4423972	Female	Blubber	25				234	cm	"Body length"																																	2017/5/31	2017/5/31
PRA000032	SAA001968	ST004	9737	es-BANK	EW04115		"Stenella coeruleoalba"	"Striped dolphin"	1978	12	19					Asia	Japan	"Taiji, Wakayama"	33.54416667	33.62305833	135.885	136.0180583	Male	Blubber	36.05		132	kg	227	cm	"Body length"	Matured	"11.5 y.o."																															2017/6/9	2017/6/9
PRA000032	SAA001969	ST004	9737	es-BANK	EW04116		"Stenella coeruleoalba"	"Striped dolphin"	1978	12	19					Asia	Japan	"Taiji, Wakayama"	33.54416667	33.62305833	135.885	136.0180583	Male	Blubber	49.24		160	kg	230	cm	"Body length"	Matured	"17.5 y.o."																															2017/6/9	2017/6/9
PRA000032	SAA001970	ST004	9737	es-BANK	EW04157		"Stenella coeruleoalba"	"Striped dolphin"	1979	12	15					Asia	Japan	"Taiji, Wakayama"	33.54416667	33.62305833	135.885	136.0180583	Male	Blubber	55				235	cm	"Body length"	Matured	"19.5 y.o."																															2017/6/9	2017/6/9
PRA000032	SAA001971	ST004	9737	es-BANK	EW04174		"Stenella coeruleoalba"	"Striped dolphin"	1979	12	15					Asia	Japan	"Taiji, Wakayama"	33.54416667	33.62305833	135.885	136.0180583	Male	Blubber	73.54				239	cm	"Body length"	Matured	"18.5 y.o."																															2017/6/9	2017/6/9
PRA000032	SAA001972	ST004	9737	es-BANK	EW04180		"Stenella coeruleoalba"	"Striped dolphin"	1979	12	15					Asia	Japan	"Taiji, Wakayama"	33.54416667	33.62305833	135.885	136.0180583	Male	Blubber	90.98				230	cm	"Body length"	Matured	"18.5 y.o."																															2017/6/9	2017/6/9
PRA000032	SAA001973	ST004	9737	es-BANK	EW04186		"Stenella coeruleoalba"	"Striped dolphin"	1979	12	15					Asia	Japan	"Taiji, Wakayama"	33.54416667	33.62305833	135.885	136.0180583	Male	Blubber	67.17				233	cm	"Body length"	Matured	"19.5 y.o."																															2017/6/9	2017/6/9
PRA000032	SAA001974	ST004	9737	es-BANK	EW04438		"Stenella coeruleoalba"	"Striped dolphin"	1986	12	9					Asia	Japan	"Taiji, Wakayama"	33.54416667	33.62305833	135.885	136.0180583	Male	Blubber	55.93						"Body length"		"20.5 y.o."																															2017/6/9	2017/6/9
PRA000032	SAA001975	ST004	9737	es-BANK	EW04439		"Stenella coeruleoalba"	"Striped dolphin"	1986	12	9					Asia	Japan	"Taiji, Wakayama"	33.54416667	33.62305833	135.885	136.0180583	Male	Blubber	46.75				228	cm	"Body length"		"9.5 y.o."																															2017/6/9	2017/6/9
PRA000032	SAA001976	ST004	9737	es-BANK	EW04500		"Stenella coeruleoalba"	"Striped dolphin"	1986	12	9					Asia	Japan	"Taiji, Wakayama"	33.54416667	33.62305833	135.885	136.0180583	Male	Blubber	54				251	cm	"Body length"		"31.5 y.o."																															2017/6/9	2017/6/9
PRA000032	SAA001977	ST004	9737	es-BANK	EW04534		"Stenella coeruleoalba"	"Striped dolphin"	1992	8	3					"Pacific Ocean"		"Pacific Ocean"	37.2		147.55		Male	Blubber	62.26				226	cm	"Body length"																																	2017/6/9	2017/6/9
PRA000032	SAA001978	ST004	9737	es-BANK	EW04539		"Stenella coeruleoalba"	"Striped dolphin"	1992	8	8					"Pacific Ocean"		"Pacific Ocean"	36.95		151.6666667		Male	Blubber	56.05				231	cm	"Body length"																																	2017/6/9	2017/6/9
PRA000032	SAA001979	ST004	9737	es-BANK	EW04547		"Stenella coeruleoalba"	"Striped dolphin"	1992	8	10					"Pacific Ocean"		"Pacific Ocean"	36.93333333		154.3		Male	Blubber	64.74				226	cm	"Body length"																																	2017/6/9	2017/6/9
PRA000032	SAA001980	ST004	9737	es-BANK	EW04548		"Stenella coeruleoalba"	"Striped dolphin"	1992	8	11					"Pacific Ocean"		"Pacific Ocean"	37.25		154.4833333		Male	Blubber	45.91				226	cm	"Body length"																																	2017/6/9	2017/6/9
PRA000032	SAA001981	ST004	9737	es-BANK	EW04557		"Stenella coeruleoalba"	"Striped dolphin"	1992	11	22					"Pacific Ocean"		"Pacific Ocean"	33.54999		136.0666667		Male	Blubber	28.43				235	cm	"Body length"																																	2017/6/9	2017/6/9
PRA000032	SAA001982	ST004	9737	es-BANK	EW04559		"Stenella coeruleoalba"	"Striped dolphin"	1992	11	23					"Pacific Ocean"		"Pacific Ocean"	33.48333333		136.19999		Male	Blubber	71.5				230	cm	"Body length"																																	2017/6/9	2017/6/9
PRA000032	SAA001983	ST004	9737	es-BANK	EW04566	SD1	"Stenella coeruleoalba"	"Striped dolphin"	2003	3	30					Asia	Japan	"Gogo-shima, Ehime"	33.86462778	33.929025	132.6527333	132.6982167	Male	Blubber	56.2		155	kg	230.8	cm	"Body length"																																	2017/6/9	2017/6/9
PRA000032	SAA001984	ST004	9737	es-BANK	EW04567	SD2	"Stenella coeruleoalba"	"Striped dolphin"	2003	3	30					Asia	Japan	"Gogo-shima, Ehime"	33.86462778	33.929025	132.6527333	132.6982167	Female	Blubber	56.2		105	kg	223	cm	"Body length"																																	2017/6/9	2017/6/9
PRA000032	SAA001985	ST004	9737	es-BANK	EW04568	SD3	"Stenella coeruleoalba"	"Striped dolphin"	2003	4	1					Asia	Japan	"Gogo-shima, Ehime"	33.86462778	33.929025	132.6527333	132.6982167	Male	Blubber	58.4		150	kg	237.6	cm	"Body length"																																	2017/6/9	2017/6/9
PRA000032	SAA001986	ST004	9737	es-BANK	EW04569	SD4	"Stenella coeruleoalba"	"Striped dolphin"	2003	4	1					Asia	Japan	"Gogo-shima, Ehime"	33.86462778	33.929025	132.6527333	132.6982167	Male	Blubber	49.8		155	kg	232	cm	"Body length"																																	2017/6/9	2017/6/9
PRA000032	SAA001987	ST004	9737	es-BANK	EW04570	SD5	"Stenella coeruleoalba"	"Striped dolphin"	2003	4	1					Asia	Japan	"Gogo-shima, Ehime"	33.86462778	33.929025	132.6527333	132.6982167	Male	Blubber	44.1		135	kg	231	cm	"Body length"																																	2017/6/9	2017/6/9
PRA000032	SAA001988	ST004	9737	es-BANK	EW04571	SD6	"Stenella coeruleoalba"	"Striped dolphin"	2003	4	1					Asia	Japan	"Gogo-shima, Ehime"	33.86462778	33.929025	132.6527333	132.6982167	Male	Blubber	54.4		150	kg	236.5	cm	"Body length"																																	2017/6/9	2017/6/9
PRA000032	SAA001989	ST004	9737	es-BANK	EW04567	SD2	"Stenella coeruleoalba"	"Striped dolphin"	2003	3	30					Asia	Japan	"Gogo-shima, Ehime"	33.86462778	33.929025	132.6527333	132.6982167	Female	Brain	9.86		105	kg	223	cm	"Body length"																																	2017/6/9	2017/6/9
PRA000032	SAA001990	ST004	9737	es-BANK	EW04568	SD3	"Stenella coeruleoalba"	"Striped dolphin"	2003	4	1					Asia	Japan	"Gogo-shima, Ehime"	33.86462778	33.929025	132.6527333	132.6982167	Male	Brain	15.47		150	kg	237.6	cm	"Body length"																																	2017/6/9	2017/6/9
PRA000032	SAA001991	ST004	9737	es-BANK	EW04570	SD5	"Stenella coeruleoalba"	"Striped dolphin"	2003	4	1					Asia	Japan	"Gogo-shima, Ehime"	33.86462778	33.929025	132.6527333	132.6982167	Male	Brain	11.57		135	kg	231	cm	"Body length"																																	2017/6/9	2017/6/9
PRA000032	SAA001992	ST004	9737	es-BANK	EW04566	SD1	"Stenella coeruleoalba"	"Striped dolphin"	2003	3	30					Asia	Japan	"Gogo-shima, Ehime"	33.86462778	33.929025	132.6527333	132.6982167	Male	Liver	2.41		155	kg	230.8	cm	"Body length"																																	2017/6/9	2017/6/9
PRA000032	SAA001993	ST004	9737	es-BANK	EW04567	SD2	"Stenella coeruleoalba"	"Striped dolphin"	2003	3	30					Asia	Japan	"Gogo-shima, Ehime"	33.86462778	33.929025	132.6527333	132.6982167	Female	Liver	2.95		105	kg	223	cm	"Body length"																																	2017/6/9	2017/6/9
PRA000032	SAA001994	ST004	9737	es-BANK	EW04568	SD3	"Stenella coeruleoalba"	"Striped dolphin"	2003	4	1					Asia	Japan	"Gogo-shima, Ehime"	33.86462778	33.929025	132.6527333	132.6982167	Male	Liver	2.85		150	kg	237.6	cm	"Body length"																																	2017/6/9	2017/6/9
PRA000032	SAA001995	ST004	9737	es-BANK	EW04569	SD4	"Stenella coeruleoalba"	"Striped dolphin"	2003	4	1					Asia	Japan	"Gogo-shima, Ehime"	33.86462778	33.929025	132.6527333	132.6982167	Male	Liver	3.43		155	kg	232	cm	"Body length"																																	2017/6/9	2017/6/9
PRA000032	SAA001996	ST004	9737	es-BANK	EW04570	SD5	"Stenella coeruleoalba"	"Striped dolphin"	2003	4	1					Asia	Japan	"Gogo-shima, Ehime"	33.86462778	33.929025	132.6527333	132.6982167	Male	Liver	2.55		135	kg	231	cm	"Body length"																																	2017/6/9	2017/6/9
PRA000032	SAA001997	ST004	9737	es-BANK	EW04571	SD6	"Stenella coeruleoalba"	"Striped dolphin"	2003	4	1					Asia	Japan	"Gogo-shima, Ehime"	33.86462778	33.929025	132.6527333	132.6982167	Male	Liver	2.8		150	kg	236.5	cm	"Body length"																																	2017/6/9	2017/6/9
PRA000032	SAA001998	ST004	9737	es-BANK	EW04566	SD1	"Stenella coeruleoalba"	"Striped dolphin"	2003	3	30					Asia	Japan	"Gogo-shima, Ehime"	33.86462778	33.929025	132.6527333	132.6982167	Male	Muscle	0.36		155	kg	230.8	cm	"Body length"																																	2017/6/9	2017/6/9
PRA000032	SAA001999	ST004	9737	es-BANK	EW04567	SD2	"Stenella coeruleoalba"	"Striped dolphin"	2003	3	30					Asia	Japan	"Gogo-shima, Ehime"	33.86462778	33.929025	132.6527333	132.6982167	Female	Muscle	0.5		105	kg	223	cm	"Body length"																																	2017/6/9	2017/6/9
PRA000032	SAA002000	ST004	9737	es-BANK	EW04568	SD3	"Stenella coeruleoalba"	"Striped dolphin"	2003	4	1					Asia	Japan	"Gogo-shima, Ehime"	33.86462778	33.929025	132.6527333	132.6982167	Male	Muscle	0.47		150	kg	237.6	cm	"Body length"																																	2017/6/9	2017/6/9
PRA000032	SAA002001	ST004	9737	es-BANK	EW04569	SD4	"Stenella coeruleoalba"	"Striped dolphin"	2003	4	1					Asia	Japan	"Gogo-shima, Ehime"	33.86462778	33.929025	132.6527333	132.6982167	Male	Muscle	0.54		155	kg	232	cm	"Body length"																																	2017/6/9	2017/6/9
PRA000032	SAA002002	ST004	9737	es-BANK	EW04570	SD5	"Stenella coeruleoalba"	"Striped dolphin"	2003	4	1					Asia	Japan	"Gogo-shima, Ehime"	33.86462778	33.929025	132.6527333	132.6982167	Male	Muscle	0.5		135	kg	231	cm	"Body length"																																	2017/6/9	2017/6/9
PRA000032	SAA002003	ST004	9737	es-BANK	EW04571	SD6	"Stenella coeruleoalba"	"Striped dolphin"	2003	4	1					Asia	Japan	"Gogo-shima, Ehime"	33.86462778	33.929025	132.6527333	132.6982167	Male	Muscle	0.69		150	kg	236.5	cm	"Body length"																																	2017/6/9	2017/6/9
PRA000043	SAA002409	ST009	73031			"Koh Kchorng"	"Perna viridis"	"Asian green mussel"	2004							Asia	Cambodia	"Koh Kchorng"	10.559482	11.93609	102.787446	103.74339		"Whole soft tissue"	1.8				80	mm	"Shell length"																																"n=45 Pooled; Rural area"	2017/9/29	2017/9/29
PRA000043	SAA002410	ST009	73031			"Preab Island"	"Perna viridis"	"Asian green mussel"	2004							Asia	Cambodia	"Preab Island"	10.559482	11.93609	102.787446	103.74339		"Whole soft tissue"	1.2				92	mm	"Shell length"																																"n=34 Pooled; Harbor"	2017/9/29	2017/9/29
PRA000043	SAA002411	ST009	73031			"Beihai "	"Perna viridis"	"Asian green mussel"	2004							Asia	China	"Beihai "	21.403842	21.738972	108.855005	109.7707		"Whole soft tissue"	1.1				"60 - 90"	mm	"Shell length"																																"n=156 Pooled; Small city"	2017/9/29	2017/9/29
PRA000043	SAA002412	ST009	6550			"Chong Ming Dao"	"Mytilus edulis"	"Blue mussel"	2004							Asia	China	"Chong Ming Dao"	31.441648	31.863894	121.171316	121.990437		"Whole soft tissue"	0.39				"30 - 75"	mm	"Shell length"																																"n=79 Pooled; Industrial, commercial area"	2017/9/29	2017/9/29
PRA000043	SAA002413	ST009	6550			Dalian	"Mytilus edulis"	"Blue mussel"	2004							Asia	China	Dalian	38.752184	40.181599	121.158975	123.492628		"Whole soft tissue"	0.49				"30 - 75"	mm	"Shell length"																																"n=69 Pooled; Aquaculture"	2017/9/29	2017/9/29
PRA000043	SAA002414	ST009	6550			"Jiao Zhou Wan"	"Mytilus edulis"	"Blue mussel"	2004							Asia	China	"Jiao Zhou Wan"	36.129984	36.181752	120.102721	120.144207		"Whole soft tissue"	0.63				"30 - 75"	mm	"Shell length"																																"n=72 Pooled; Industrial area"	2017/9/29	2017/9/29
PRA000043	SAA002415	ST009	6550			"Lian Yun  Gang"	"Mytilus edulis"	"Blue mussel"	2004							Asia	China	"Lian Yun  Gang"	34.386956	35.105406	119.210949	119.794567		"Whole soft tissue"	1.2				"40 - 75"	mm	"Shell length"																																"n=50 Pooled; Aquaculture"	2017/9/29	2017/9/29
PRA000043	SAA002416	ST009	73031			Qingzhou	"Perna viridis"	"Asian green mussel"	2004							Asia	China	Qingzhou	36.416263	36.954784	118.182408	118.77155		"Whole soft tissue"	0.87				"60 - 90"	mm	"Shell length"																																"n=178 Pooled; Small Town"	2017/9/29	2017/9/29
PRA000043	SAA002421	ST009	73031			"Tsim sha Tsui"	"Perna viridis"	"Asian green mussel"	2004							Asia	China	"Hong Kong"	22.294251	22.300955	114.164788	114.176306		"Whole soft tissue"	1.2																																						"Pooled; Commercial area"	2017/9/29	2017/9/29
PRA000043	SAA002422	ST009	73031			Kakinada	"Perna viridis"	"Asian green mussel"	2004							Asia	India	Kakinada	16.916843	17.036695	82.203802	82.283624		"Whole soft tissue"	2.5				"88 - 129"	mm	"Shell length"																																"n=18 Pooled; Aqua-and agriculture, harbor"	2017/9/29	2017/9/29
PRA000043	SAA002423	ST009	73031			Kasimedu	"Perna viridis"	"Asian green mussel"	2004							Asia	India	Kasimedu	13.123868	13.126898	80.294433	80.297587		"Whole soft tissue"	2.3				"87 - 105"	mm	"Shell length"																																"n=20 Pooled; Fishing harbor"	2017/9/29	2017/9/29
PRA000043	SAA002424	ST009	73031			Pondicherry	"Perna viridis"	"Asian green mussel"	2004							Asia	India	Pondicherry	11.899741	11.972989	79.78589	79.840221		"Whole soft tissue"	1.9				"96 - 124"	mm	"Shell length"																																"n=35 Pooled; Industrial, small harbor"	2017/9/29	2017/9/29
PRA000043	SAA002425	ST009	73031			Cilincing_A	"Perna viridis"	"Asian green mussel"	2003							Asia	Indonesia	"Cilincing, Jakarta Bay"	-6.091834	-6.126882	106.908371	106.970887		"Whole soft tissue"	1.6				"52 - 73"	mm	"Shell length"																																"n=22 Pooled; Urban, industrial, polluted"	2017/9/29	2017/9/29
PRA000043	SAA002426	ST009	73031			Cilincing_B	"Perna viridis"	"Asian green mussel"	2003							Asia	Indonesia	"Cilincing, Jakarta Bay"	-6.091834	-6.126882	106.908371	106.970887		"Whole soft tissue"	1.9				"70 - 88"	mm	"Shell length"																																"n=20 Pooled; Urban, industrial, polluted"	2017/9/29	2017/9/29
PRA000043	SAA002427	ST009	73031			"Muara Angek_A"	"Perna viridis"	"Asian green mussel"	2003							Asia	Indonesia	"Muara Angek, Jakarta Bay"	-6.103269	-6.105417	106.774504	106.777027		"Whole soft tissue"	1.1				"58 - 86"	mm	"Shell length"																																"n=31 Pooled; Urban, fishing port, polluted"	2017/9/29	2017/9/29
PRA000043	SAA002428	ST009	6550	es-BANK	EF06329	Akita	"Mytilus edulis"	"Blue mussel"	2005							Asia	Japan	Akita	40.15555556	40.20944444	139.9233333	139.9822222		"Whole soft tissue"	0.59				"18 - 74"	mm	"Shell length"																																"n=9 Pooled; Industrial area"	2017/9/29	2017/9/29
PRA000043	SAA002429	ST009	6550			"Ehime A"	"Mytilus edulis"	"Blue mussel"	2008							Asia	Japan	"Ehime "	32.88472222	34.30166667	132.0125	133.6930556		"Whole soft tissue"	0.41				"29 - 63"	mm	"Shell length"																																"n=149 Pooled; Port, industrial area"	2017/9/29	2017/9/29
PRA000043	SAA002430	ST009	6550			"Ehime B"	"Mytilus edulis"	"Blue mussel"	2008							Asia	Japan	"Ehime "	32.88472222	34.30166667	132.0125	133.6930556		"Whole soft tissue"	0.24				"43 - 83"	mm	"Shell length"																																"n=45 Pooled; Port"	2017/9/29	2017/9/29
PRA000043	SAA002431	ST009	6550			"Ehime C"	"Mytilus edulis"	"Blue mussel"	2008							Asia	Japan	"Ehime "	32.88472222	34.30166667	132.0125	133.6930556		"Whole soft tissue"	1.1				"30 - 53"	mm	"Shell length"																																"n=48 Pooled; Port, industrial area"	2017/9/29	2017/9/29
PRA000043	SAA002432	ST009	6550			"Ehime D"	"Mytilus edulis"	"Blue mussel"	2008							Asia	Japan	"Ehime "	32.88472222	34.30166667	132.0125	133.6930556		"Whole soft tissue"	1.4				"24 - 63"	mm	"Shell length"																																"n=32 Pooled; Industrial area"	2017/9/29	2017/9/29
PRA000043	SAA002433	ST009	6550			"Ehime E"	"Mytilus edulis"	"Blue mussel"	2008							Asia	Japan	"Ehime "	32.88472222	34.30166667	132.0125	133.6930556		"Whole soft tissue"	0.67				"35 - 75"	mm	"Shell length"																																"n=43 Pooled; Industrial area"	2017/9/29	2017/9/29
PRA000043	SAA002434	ST009	73031			"Ehime F"	"Perna viridis"	"Asian green mussel"	2008							Asia	Japan	"Ehime "	32.88472222	34.30166667	132.0125	133.6930556		"Whole soft tissue"	1.5				"52 - 117"	mm	"Shell length"																																"n=50 Pooled; Fishing harbor"	2017/9/29	2017/9/29
PRA000043	SAA002435	ST009	6550	es-BANK	EF04157	Hokkaido	"Mytilus edulis"	"Blue mussel"	2003	6	13					Asia	Japan	Hokkaido	43.72472222	43.8225	141.1436111	141.3319444		"Whole soft tissue"	0.74																																						"Pooled; Small town"	2017/9/29	2017/9/29
PRA000043	SAA002436	ST009	6550	es-BANK	EF04158	Fukui	"Mytilus edulis"	"Blue mussel"	2003	7	8					Asia	Japan	Fukui	35.65083333	35.80722222	135.9586111	136.1111111		"Whole soft tissue"	1.1																																						"Pooled; Industrial area"	2017/9/29	2017/9/29
PRA000043	SAA002437	ST009	6550	es-BANK	EF06325	Iwate	"Mytilus edulis"	"Blue mussel"	2005	11	9					Asia	Japan	Iwate	39.62277778	39.64194444	141.9725	141.9886111		"Whole soft tissue"	0.98				"25 - 50"	mm	"Shell length"																																"n=17 Pooled; Port"	2017/9/29	2017/9/29
PRA000043	SAA002438	ST009	6550			Kumamoto	"Mytilus edulis"	"Blue mussel"	2008							Asia	Japan	Kumamoto	32.09472222	33.19527778	129.9402778	131.3294444		"Whole soft tissue"	1.2				"30 - 79"	mm	"Shell length"																																"n=37 Pooled; Harbor"	2017/9/29	2017/9/29
PRA000043	SAA002439	ST009	6550	es-BANK	EF04155	Mie	"Mytilus edulis"	"Blue mussel"	2003							Asia	Japan	Mie	33.6975	34.78638889	136.2413889	136.925		"Whole soft tissue"	0.53																																						Pooled	2017/9/29	2017/9/29
PRA000043	SAA002440	ST009	6550			Miyagi	"Mytilus edulis"	"Blue mussel"	2004							Asia	Japan	Miyagi	37.77333333	39.00277778	140.275	141.6752778		"Whole soft tissue"	1.5																																						"Pooled; Fishing harbor"	2017/9/29	2017/9/29
PRA000043	SAA002441	ST009	6550			"Osaka A"	"Mytilus edulis"	"Blue mussel"	2008							Asia	Japan	Osaka	34.27194444	35.05138889	135.0919444	135.7466667		"Whole soft tissue"	0.51				"37 - 65"	mm	"Shell length"																																"n=43 Pooled; Port, indusrial area"	2017/9/29	2017/9/29
PRA000043	SAA002442	ST009	6550			"Osaka B"	"Mytilus edulis"	"Blue mussel"	2008							Asia	Japan	Osaka	34.27194444	35.05138889	135.0919444	135.7466667		"Whole soft tissue"	0.41				"54 - 78"	mm	"Shell length"																																"n=25 Pooled; Port, indusrial area"	2017/9/29	2017/9/29
PRA000043	SAA002443	ST009	6550			"Osaka C"	"Mytilus edulis"	"Blue mussel"	2008							Asia	Japan	Osaka	34.27194444	35.05138889	135.0919444	135.7466667		"Whole soft tissue"	0.75				"18 - 23"	mm	"Shell length"																																"n=95 Pooled; Port, indusrial area"	2017/9/29	2017/9/29
PRA000043	SAA002444	ST009	6550			"Osaka D"	"Mytilus edulis"	"Blue mussel"	2008							Asia	Japan	Osaka	34.27194444	35.05138889	135.0919444	135.7466667		"Whole soft tissue"	0.51				"50 - 89"	mm	"Shell length"																																"n=38 Pooled; Industrial area"	2017/9/29	2017/9/29
PRA000043	SAA002445	ST009	6550			"Syodo island"	"Mytilus edulis"	"Blue mussel"	2008							Asia	Japan	"Syodo island"	34.05027778	34.56416667	134.0358333	134.3663889		"Whole soft tissue"	0.64				"55 - 84"	mm	"Shell length"																																"n=27 Pooled; Port"	2017/9/29	2017/9/29
PRA000043	SAA002446	ST009	6550	es-BANK	EF09157	Tokyo	"Mytilus edulis"	"Blue mussel"	2007	9	8					Asia	Japan	Tokyo	35.535142	35.578546	139.770194	139.825338		"Whole soft tissue"	0.96																																						"Pooled; Small town"	2017/9/29	2017/9/29
PRA000043	SAA002447	ST009	6550			"Busan Bay_M-1"	"Mytilus edulis"	"Blue mussel"	2005							Asia	Korea	"Busan Bay"	35.031915	35.129124	128.946326	129.126502		"Whole soft tissue"	2.3				"40 - 55"	mm	"Shell length"																																"n=10 Pooled; Industrial complex"	2017/9/29	2017/9/29
PRA000043	SAA002448	ST009	6550			"Chunsu Bay_Hongseong"	"Mytilus edulis"	"Blue mussel"	2005							Asia	Korea	"Chunsu Bay, Hongseong"	36.520935	36.591548	126.456191	126.49465		"Whole soft tissue"	0.95				"46 - 64"	mm	"Shell length"																																"n=46 Pooled; Influx of migratory birds"	2017/9/29	2017/9/29
PRA000043	SAA002449	ST009	6550			"Gamak Bay_Yeosu"	"Mytilus edulis"	"Blue mussel"	2005							Asia	Korea	"Gamak Bay, Yeosu"	34.404401	34.888577	127.511499	127.802703		"Whole soft tissue"	1.3				"33 - 57"	mm	"Shell length"																																"n=10 Pooled; Coastal protected area"	2017/9/29	2017/9/29
PRA000043	SAA002450	ST009	6550			"Ganggu_Yandok M-3"	"Mytilus edulis"	"Blue mussel"	2005							Asia	Korea	"Ganggu, Yandok"	36.355654	36.363704	129.380696	129.393991		"Whole soft tissue"	1.7				"35 - 46"	mm	"Shell length"																																"n=10 Pooled; Less industrial activity"	2017/9/29	2017/9/29
PRA000043	SAA002451	ST009	6550			"Garorim Bay_Dangjin"	"Mytilus edulis"	"Blue mussel"	2005							Asia	Korea	"Garorim Bay, Dangjin"	36.795087	37.060206	126.413168	126.856741		"Whole soft tissue"	1.2				"50 - 87"	mm	"Shell length"																																"n=17 Pooled; Farming area"	2017/9/29	2017/9/29
PRA000043	SAA002452	ST009	6550			Guryongpo	"Mytilus edulis"	"Blue mussel"	2005							Asia	Korea	Guryongpo	35.982171	35.99088	129.552113	129.567192		"Whole soft tissue"	1.6				"45 - 58"	mm	"Shell length"																																"n=58 Pooled; Less industrial activity"	2017/9/29	2017/9/29
PRA000043	SAA002453	ST009	6550			"Gwangyang Bay"	"Mytilus edulis"	"Blue mussel"	2005							Asia	Korea	"Gwangyang Bay"	34.901103	34.965817	127.578645	127.76671		"Whole soft tissue"	0.86				"46 - 66"	mm	"Shell length"																																"n=44 Pooled; Industrial complex"	2017/9/29	2017/9/29
PRA000043	SAA002454	ST009	6550			"Haengam Bay_Jinhae"	"Mytilus edulis"	"Blue mussel"	2005							Asia	Korea	"Haengam Bay, Jinhae"	35.096831	35.12546	128.67755	128.702301		"Whole soft tissue"	1.2				"41 - 58"	mm	"Shell length"																																"n=39 Pooled; Industrial area"	2017/9/29	2017/9/29
PRA000043	SAA002456	ST009	6550			"Kori_Ulju County A"	"Mytilus edulis"	"Blue mussel"	2005							Asia	Korea	"Kori, Ulju County"	35.318071	35.331722	129.28175	129.312848		"Whole soft tissue"	2.1				"45 - 65"	mm	"Shell length"																																"n=44 Pooled; Nuclear power plant"	2017/9/29	2017/9/29
PRA000043	SAA002457	ST009	6550			"Masan Bay_M-2"	"Mytilus edulis"	"Blue mussel"	2005							Asia	Korea	"Masan Bay"	35.137817	35.211717	128.587008	128.607937		"Whole soft tissue"	0.75				"38 - 62"	mm	"Shell length"																																"n=32 Pooled; Industrial complex"	2017/9/29	2017/9/29
PRA000043	SAA002460	ST009	6550			"Onsan Bay_M-2"	"Mytilus edulis"	"Blue mussel"	2005							Asia	Korea	"Onsan Bay"	35.438997	35.469979	129.341166	129.370395		"Whole soft tissue"	1.8				"50 - 70"	mm	"Shell length"																																"n=43 Pooled; Industrial complex"	2017/9/29	2017/9/29
PRA000043	SAA002461	ST009	6550			"Sacheon Bay_Sacheon"	"Mytilus edulis"	"Blue mussel"	2005							Asia	Korea	"Sacheon Bay, Sacheon"	35.023727	35.079191	128.019806	128.059989		"Whole soft tissue"	0.72				"37 - 55"	mm	"Shell length"																																"n=75 Pooled; Thermoelectric power plant"	2017/9/29	2017/9/29
PRA000043	SAA002462	ST009	6550			"Shihwa Lake_Incheon"	"Mytilus edulis"	"Blue mussel"	2005							Asia	Korea	"Shihwa Lake, Incheon"	37.253175	37.329087	126.578865	126.744541		"Whole soft tissue"	1.3				"35 - 67"	mm	"Shell length"																																"n=10 Pooled; Industrial area"	2017/9/29	2017/9/29
PRA000043	SAA002463	ST009	6550			"Uljin A"	"Mytilus edulis"	"Blue mussel"	2005							Asia	Korea	Uljin	36.648131	37.145258	129.36385	129.477521		"Whole soft tissue"	0.78				"45 - 70"	mm	"Shell length"																																"n=36 Pooled; Less industrial activity"	2017/9/29	2017/9/29
PRA000043	SAA002464	ST009	6550			"Ulsan Bay_M-6"	"Mytilus edulis"	"Blue mussel"	2005							Asia	Korea	"Ulsan Bay"	35.471723	35.543636	129.356992	129.412547		"Whole soft tissue"	2.1				"45 - 65"	mm	"Shell length"																																"n=42 Pooled; Industrial complex"	2017/9/29	2017/9/29
PRA000043	SAA002466	ST009	6550			"Welseong B"	"Mytilus edulis"	"Blue mussel"	2005							Asia	Korea	Welseong	35.71249	35.744088	129.473832	129.480208		"Whole soft tissue"	1.8				"53 - 68"	mm	"Shell length"																																"n=49 Pooled; Nuclear power plant"	2017/9/29	2017/9/29
PRA000043	SAA002467	ST009	6550			Wonmunnpo_M-1	"Mytilus edulis"	"Blue mussel"	2005							Asia	Korea	Wonmunnpo	34.762668	34.970661	128.310296	128.477854		"Whole soft tissue"	1.9				"46 - 82"	mm	"Shell length"																																"n=32 Pooled; Farming areas"	2017/9/29	2017/9/29
PRA000043	SAA002469	ST009	73031			"Pantai Lido"	"Perna viridis"	"Asian green mussel"	2004							Asia	Malaysia	"Pantai Lido"	1.457054		103.74703			"Whole soft tissue"	0.92																																						"Pooled; Port, indusrial area"	2017/9/29	2017/9/29
PRA000043	SAA002470	ST009	73031			"Pasir Puteh"	"Perna viridis"	"Asian green mussel"	2004							Asia	Malaysia	"Pasir Puteh"	5.890881	5.917307	102.469272	102.487977		"Whole soft tissue"	1.3																																						"Pooled; Port, indusrial area"	2017/9/29	2017/9/29
PRA000043	SAA002471	ST009	73031			"Port Dicknon"	"Perna viridis"	"Asian green mussel"	2004							Asia	Malaysia	"Port Dicknon"	2.440408	2.603669	101.743455	101.856744		"Whole soft tissue"	0.83																																						"Pooled;Old port and refinery"	2017/9/29	2017/9/29
PRA000043	SAA002472	ST009	73031			"Sebatu "	"Perna viridis"	"Asian green mussel"	2004							Asia	Malaysia	"Sebatu "	2.109479	2.113466	102.461977	102.464577		"Whole soft tissue"	1.6																																						"Pooled; Rural area"	2017/9/29	2017/9/29
PRA000043	SAA002473	ST009	73031			"Bacoor cavite"	"Perna viridis"	"Asian green mussel"	2004							Asia	Philippines	"Bacoor, Cavite"	14.452118	14.475175	120.925641	120.970036		"Whole soft tissue"	1																																						"Pooled; Highly urbanized area"	2017/9/29	2017/9/29
PRA000043	SAA002474	ST009	73031			Silang	"Perna viridis"	"Asian green mussel"	2004							Asia	Philippines	Silang	14.133472	14.283696	120.922333	121.055233		"Whole soft tissue"	0.76																																						"Pooled; Rural area"	2017/9/29	2017/9/29
PRA000043	SAA002475	ST009	73031			"Hai Phong"	"Perna viridis"	"Asian green mussel"	2004							Asia	Vietnam	"Hai Phong"	20.814166	20.875376	106.637402	106.759742		"Whole soft tissue"	0.47				"60 - 75"	mm	"Shell length"																																"n=103 Pooled; Harbor"	2017/9/29	2017/9/29
PRA000043	SAA002476	ST009	73031			"Hue "	"Perna viridis"	"Asian green mussel"	2004							Asia	Vietnam	"Hue "	16.209137	16.73985	107.392383	108.187518		"Whole soft tissue"	1.3				"75 - 110"	mm	"Shell length"																																"n=18 Pooled; Shrimp farming"	2017/9/29	2017/9/29
PRA000043	SAA002477	ST009	73031			"Nha Trang"	"Perna viridis"	"Asian green mussel"	2004							Asia	Vietnam	"Nha Trang"	12.143691	12.374175	109.196031	109.33564		"Whole soft tissue"	0.88				"85 - 95"	mm	"Shell length"																																"n=44 Pooled; Shrimp farming"	2017/9/29	2017/9/29
PRA000043	SAA002478	ST009	73031			"Quang Binh"	"Perna viridis"	"Asian green mussel"	2004							Asia	Vietnam	"Quang Binh"	17.166083	17.952169	106.445203	106.98831		"Whole soft tissue"	1.3				"45 - 90"	mm	"Shell length"																																"Pooled; Urban area"	2017/9/29	2017/9/29
PRA000043	SAA002479	ST009	73031			"Thanh Hoa"	"Perna viridis"	"Asian green mussel"	2004							Asia	Vietnam	"Thanh Hoa"	19.296326	19.966096	105.786765	106.021406		"Whole soft tissue"	0.69				"35 - 80"	mm	"Shell length"																																"n=123 Pooled; Beach and tourist area"	2017/9/29	2017/9/29
PRA000068	SAA003942	ST024				Hokkaido_sed1-123_2015	Sediment	"River sediment"	2015	9	15	"2015-09-15T12:40; T12:40; T12:40"			Fair	Asia	Japan	"Onnnenai-ohashi Bridge, Riv. Teshio (BifukaTown), Hokkaido"	44.59138889		142.3063889														"20.0; 20.0; 20.0"											"22.0; 22.0; 22.0"	"0.2; 0.2; 0.2"		Brown		Odorless	None	"42.6; 55.6; 25.4 (Each) / 37.5 (Mixed)"	"7.3; 9.2; 3.2 (Each) / 4.2 (Mixed)"									"n=3 pooled"	2018/05/11	2019/08/08
PRA000068	SAA003943	ST024				Hokkaido_sed2-123_2015	Sediment	"River sediment"	2015	11	10	"2015-11-10T10:10; T10:23; T10:45"			Cloudy	Asia	Japan	"Ishikarikakokyo Bridge, Mouth of Riv. Ishikari (Ishikari City), Hokkaido"	43.22861111		141.3519444														"1.4; 2.0; 0.7"	"6.9; 6.9; 6.9"										"10.0; 12.0; 12.0"	"4.9; 5.0; 5.0"		Brown		Odorless		"63.8; 31.0; 57.9 (Each) / 49.6 (Mixed)"	"11.2; 4.8; 10.0 (Each) / 6.9 (Mixed)"									"n=3 pooled"	2018/05/11	2019/08/08
PRA000068	SAA003944	ST023				Hokkaido_sed3-123_2015	Sediment	"Marine sediment"	2015	9	17	"2015-09-17T11:10; T10:50; T11:00"			Fair	Asia	Japan	"Tomakomai Port, Hokkaido"	42.63138889		141.6288889														"23.5; 23.5; 22.9"											"20.0; 18.0; 20.0"	"13.7; 14.0; 14.6"		Black		"Hydrogen sulfide odor_Strong"		"51.6; 61.9; 48.9 (Each) / 48.8 (Mixed)"	"6.6; 9.2; 6.4 (Each) / 4.8 (Mixed)"									"n=3 pooled"	2018/5/11	2019/8/8
PRA000068	SAA003945	ST024				Iwate_sed1-123_2015	Sediment	"River sediment"	2015	10	14	"2015-10-14T10:12; T11:30; T11:30"			Cloudy	Asia	Japan	"Riv. Toyosawa (Hanamaki City), Iwate"	39.38166667		141.1191667														"11.1; 12.7; 12.7"	"13.3; 13.2; 13.2"										"14.2; 12.6; 12.6"	"0.2; 0.2; 0.2"	Sandy	Brown_light		Odorless	"Vegetative pieces"	"21.5; 20.8; 23.0 (Each) / 16.7 (Mixed)"	"1.4; 1.3; 1.5 (Each) / 1.5 (Mixed)"									"n=3 pooled: SAA003848, SAA003849 and SAA003850"	2018/05/11	2019/08/08
PRA000068	SAA003946	ST023				Miyagi_sed1_123_2015	Sediment	"Marine sediment"	2015	10	19	"2015-10-19T10:10; T10:40; T11:00"			Fair	Asia	Japan	"Sendai Bay (Matsushima Bay), Miyagi"	38.35333333		141.0975														"19.3; 19.4; 19.7"	"17.2; 16.8; 16.9"								"2.5; 2.5; 2.5"		"17.1; 16.8; 172"	"5.8; 6.4; 4.7"	Muddy	"Grayish green"		Odorless	"None; None; Shell"	"NA / 70.3 (Mixed)"	"NA / 9.9 (Mixed)"									"n=3 pooled"	2018/5/11	2019/8/8
PRA000068	SAA003947	ST024				Sendai_sed1_123_2015	Sediment	"River sediment"	2015	11	11	"2015-11-11T10:40; 10:10; 10:25"			Fair	Asia	Japan	"Hirose-ohashi Bridge, Riv. Hirose (Sendai City), Miyagi"	38.21333333		140.9088889														"14.8; 14.8; 14.8"	"12.9; 12.9; 12.9"										"13.0; 14.0; 13.0"	"0.2; 0.3; 0.4"	Sandy	Brown_light		"Swampy odor_Faint"	None	"12.8; 13.8; 13.0 (Each) / 12.2 (Mixed)"	"1.4; 1.6; 1.2 (Each) / 0.7 (Mixed)"									"n=3 pooled"	2018/05/11	2019/08/08
PRA000068	SAA003948	ST024				Akita_sed2-123_2015	Sediment	"Lake sediment"	2015	10	16	"2015-10-16T10:29; T10:18; T10:50"			Fair	Asia	Japan	"Lake Hachiro, Akita"	39.92277778		139.9988889														"22.8; 17.2; 19.2"	"14.6; 14.3; 14.4"								"0.5; 0.5; 0.6"		"14.7; 14.5; 14.7"	"8.4; 7.9; 3.4"	Muddy	"Grayish black_light"		"Hydrogen sulfide odor_Faint"	None	"81.0; 59.1; 80.3 (Each) / 10.9; 43; 11.2 (Mixed)"	"10.9; 4.3; 11.2 (Each) / 5.5 (Mixed)"									"n=3 pooled"	2018/5/11	2019/8/8
PRA000068	SAA003949	ST024				Yamagata_sed1-123_2015	Sediment	"River sediment"	2015	11	19	"2015-11-19T09:50; T09:50; T09:50"			Cloudy	Asia	Japan	"Mouth of Riv. Mogami (Sakata City), Yamagata"	38.88722222		139.8433333														"11.6; 11.6; 11.6"	"14.0; 14.0; 14.0"										"12.2; 12.2; 12.2"	"0.3; 0.3; 0.3"	Muddy	"Grayish black"		"Swampy odor_Faint"	"Leaf; Tree branch"	"34.6; 34.6; 34.6 (Each) / 36.6 (Mixed)"	"4.2; 4.2; 4.2 (Each) / 3.1 (Mixed)"									"n=3 pooled"	2018/05/11	2019/08/08
PRA000068	SAA003950	ST023				Fukushima_sed1-123_2015	Sediment	"Marine sediment"	2015	11	12	"2015-11-12T10:15; T10:55; T11:10"			Fair	Asia	Japan	"Onahama Port, Fukushima"	36.92472222		140.8752778														"13.7; 14.5; 13.5"	"16.7; 16.0; 17.3"								"2.0; 2.0; 2.9"		"15.7; 16.5; 16.2"	"11.7; 12.8; 12.7"	Muddy	"Grayish green"		"Seaweed odor"	None	"46.5; 52.5; 52.5 (Each) / 55.8 (Mixed)"	"8.0; 10.8; 10.9 (Each) / 7.8 (Mixed)"									"n=3 pooled"	2018/5/11	2019/8/8
PRA000068	SAA003951	ST024				Ibaraki_sed1-123_2015	Sediment	"River sediment"	2015	11	17	"2015-11-17T10:30; T10;48; T11:20"			Fair	Asia	Japan	"Kamome-ohashi Bridge, Mouth of Riv. Tone (Kamisu City), Ibaraki"	35.77638889		140.7569444														"22.8; 21.5; 23.0"	"18.0; 17.5; 17.5"								"0.5; 0.8; 0.8"			"1.5; 5.4; 2.4"	"Sandy mud; Mud; Sand"	Black		"Swampy odor;"	"Reed; None; Shellfish"	"33.0; 47.0; 16.0 (Each) / 34.5 (Mixed)"	"4.0; 7.8; 1.1 (Each) / 2.8 (Mixed)"									"n=3 pooled: SAA003854, SAA003855 and SAA003856"	2018/05/11	2019/08/08
PRA000068	SAA003952	ST024				Tochigi_sed1-123_2015	Sediment	"River sediment"	2015	10	14	"2015-10-14T10:10; T11:20; T11:45"			Fair	Asia	Japan	"Tagawa area-Toshuko Weir (Utsunomiya City), Tochigi"	36.52805556		139.8855556														"18.0; 17.5; 19.0"	"16.0; 16.5; 17.5"										"17.0; 17.0; 17.0"	"0.2; 0.4; 0.2"	Pebbles	Brown		"River weed odor"		"NA / 19.1 (Mixed)"	"NA / 1.0 (Mixed)"									"n=3 pooled"	2018/05/11	2019/08/08
PRA000068	SAA003953	ST023				Chiba_sed1-123_2015	Sediment	"Marine sediment"	2015	10	29	"2015-10-29T09:38; T09:54; T10:08"			Drizzle	Asia	Japan	"Ichihara-Anesaki Coast, Chiba"	35.52166667		140.0283333														"17.4; 17.2; 17.4"	"19.8; 19.8; 20.1"								"4.9; 5.1; 5.2"		"19.1; 19.1; 19.2"	"14.9; 15.8; 16.6"	Silt	"Grayish black; Grayish green"		"Hydrogen sulfide odor_Strong"	"None; Shell; None"	"72.6; 47.1; 75.3 (Each) / 74.7 (Mixed)"	"12.5; 6.8; 13.5 (Each) / 8.2 (Mixed)"									"n=3 pooled: SAA003857, SAA003858 and SAA003859"	2018/5/11	2019/8/8
PRA000068	SAA003954	ST024				ChibaCity_sed1-123_2015	Sediment	"River sediment"	2015	10	22	"2015-10-22T11:10; T11:40; T10:10"			Fair	Asia	Japan	"Mouth of Riv. Hanami (Chiba City), Chiba"	35.63472222		140.04694440														"22.0; 22.0; 20.8"	"21.4; 21.0; 21.5"										"21.0; 21.0; 20.8"	"1.8; 1.8; 1.3"	Muddy	"Grayish black_dark"		"seaweed odor"	"Shellfish; Leaf"	"35.8; 27.5; 28.2 (Each) / 26.9 (Mixed)"	"4.9; 2.3; 2.9 (Each) / 2.2 (Mixed)"									"n=3 pooled"	2018/05/11	2019/08/08
PRA000068	SAA003955	ST024				Tokyo_sed1-123_2015	Sediment	"River sediment"	2015	11	12	"2015-11-12T10:25; T11:10; T11:40"			Fair	Asia	Japan	"Mouth of Riv. Arakawa (Koto Ward), Tokyo"	35.64583333		139.8463889														"15.1; 14.7; 14.8"	"17.8; 18.0; 18.0"								"0.7; 0.8; 0.9"		"18.5; 18.2; 18.2"	"2.8; 2.5; 2.0"	Silt	Black		Odorless	"Hard clam; Shell"	"46.2; 40.8; 51.4 (Each) / 54.3 (Mixed)"	"7.9; 7.2; 9.0 (Each) / 7.3 (Mixed)"									"n=3 pooled: SAA003860, SAA003861 and SAA003862"	2018/05/11	2019/08/08
PRA000068	SAA003956	ST024				Tokyo_sed2-123_2015	Sediment	"River sediment"	2015	11	12	"2015-11-12T12:45; T13:25; T13:45"			Fair	Asia	Japan	"Mouth of Riv. Sumida (Minato Ward), Tokyo"	35.66		139.7705556														"16.0; 15.0; 14.7"	"19.2; 19.6; 19.4"								"2.0; 2.0; 2.0"		"20.0; 19.8; 19.8"	"6.7; 5.1; 3.7"	Silt	Black		"Hydrogen sulfide odor"	"Shell; Vegetative pieces; None"	"64.1; 46.4; 58.0 (Each) / 13.6; 8.6; 11.3 (Mixed)"	"13.6; 8.6; 11.3 (Each) / 10.4 (Mixed)"									"n=3 pooled: SAA003863, SAA003864 and SAA003865"	2018/05/11	2019/08/08
PRA000068	SAA003957	ST023				Yokohama_sed1-123_2015	Sediment	"Marine sediment"	2015	10	22	"2015-10-22T10:50; T09:50; T11:10"			Fair	Asia	Japan	"Yokohama Port, Kanagawa"	35.45555556		139.6636111														"25.0; 21.3; 24.0"	"24.5; 23.4; 21.5"								"1.0; 1.3; 2.8"		"19.0; 19.0; 19.0"	"12.0; 12.0; 11.5"	Sludge	Black		"Hydrogen sulfide odor_Faint"	None	"75.0; 78.0; 65.2 (Each) / 69.3 (Mixed)"	"10.7; 11.6; 7.9 (Each) / 8.5 (Mixed)"									"n=3 pooled: SAA003866, SAA003867 and SAA003868"	2018/5/11	2019/8/8
PRA000068	SAA003958	ST024				KawasakiCity_sed1-123_2015	Sediment	"River sediment"	2015	11	17	"2015-11-17T11:24; T10:48; T11:08"			Fair	Asia	Japan	"Mouth of Riv. Tama (Kawasaki City), Kanagawa"	35.53		139.7836111														"23.2; 24.2; 22.2"	"18.6; 18.4; 18.5"								"3.4; 2.3; 3.1"		"19.1; 19.2; 19.1"	"5.0; 3.1; 2.8"	Mud	"Black; Greenish black; Grayish green"		"Hydrogen sulfide odor_Faint"	"Vegetative pieces; Shellfish; Shell"	"42.9; 32.2; 42.5 (Each) / 49.7 (Mixed)"	"10.4; 6.5; 11.3 (Each) / 7.5 (Mixed)"									"n=3 pooled"	2018/05/11	2019/08/08
PRA000068	SAA003959	ST023				KawasakiCity_sed2-123_2015	Sediment	"Marine sediment"	2015	11	17	"2015-11-17T11:54; T12;19; T12:35"			Fair	Asia	Japan	"Keihin Canal, Kawasaki Port, Kanagawa  (front of Ogimachi)"	35.49527778		139.7277778														"22.4; 22.5; 22.7"	"19.3; 19.2; 19.1"								"7.5; 6.3; 6.0"		"19.2; 19.2; 18.9"	"15.6; 14.7; 14.0"	"Clay; Mud; Sandy mud"	"Grayish green_Dark; Greenish black; Grayish green"		"Odorless; Hydrogen sulfide odor"	"Shellfish; Pebble; vinyl; Vegetative pieces"	"44.1; 65.1; 55.3 (Each) / 64.6 (Mixed)"	"7.2; 13.0; 10.3 (Each) / 7.3 (Mixed)"									"n=3 pooled"	2018/05/11	2019/08/08
PRA000068	SAA003960	ST024				Niigata_sed1-123_2015	Sediment	"River sediment"	2015	10	14	"2015-10-14T10:30; T10:30; T10:15"			Fair	Asia	Japan	"Downstream of Riv. Shinano (Niigata City), Niigata"	37.88305556		139.0155556														"18.5; 18.5; 18.5"	"15.9; 15.9; 15.9"										"16.2; 15.7; 15.5"	"2.4; 4.8; 3.8"	"Muddy; Sandy mud"	"Grayish brown"		"Odorless; Odorless; Earthy odor_Faint"	"Leaf; Tree branch"	"68.6; 34.3; 27.6 (Each) / 32.8 (Mixed)"	"10.1; 2.6; 1.8 (Each) / 3.1 (Mixed)"									"n=3 pooled: SAA003869, SAA003870 and SAA003871"	2018/05/11	2019/08/08
PRA000068	SAA003961	ST024				Toyama_sed1-123_2015	Sediment	"River sediment"	2015	10	21	"2015-10-21T09:26; T10:08; T10:53"			Cloudy	Asia	Japan	"Hagiura-bashi Bridge, Mouth of Riv. Jintsu (Toyama City), Toyama"	36.745		137.2180556														"18.3; 18.3; 18.3"	"16.0; 16.0; 16.0"										"15.6; 16.0; 16.0"	"0.8; 0.4; 1.0"	"Sandy mud; Sandy mud; Sandy"	"Grayish black; Brown; Brown"		"Hydrogen sulfide odor_Faint; Hydrogen sulfide odor_Faint; Odorless"	"Stem; Leaf; Stick; Pebble"	"33.0; 29.0; 18.0 (Each) / 36.7 (Mixed)"	"4.4; 3.0; 1.0 (Each) / 3.7 (Mixed)"									"n=3 pooled"	2018/05/11	2019/08/08
PRA000068	SAA003962	ST024				Ishikawa_sed1-123_2015	Sediment	"River sediment"	2015	11	5	"2015-11-05T10:30; T11:20; T12:15"			Fair	Asia	Japan	"Mouth of Riv. Sai (Kanazawa City), Ishikawa"	36.60027778		136.5888889														"21.0; 21.5; 23.2"	"15.4; 15.5; 16.8"											"3.1; 1.7; 0.5"	"Silt; Sand"	"Grayish green; Grayish green; Backish brown"		"Fish rotten odor_Faint; Fish rotten odor_Faint; Earthy odor_Faint"	"Pebble; Shell"	"32.5; 34.3; 23.5 (Each) / 31.3 (Mixed)"	"4.9; 5.2; 2.3 (Each) / 3.0 (Mixed)"									"n=3 pooled"	2018/05/11	2019/08/08
PRA000068	SAA003963	ST024				Fukui_sed1-123_2015	Sediment	"River sediment"	2015	11	11	"2015-11-11T11:10; T11:10; T11:10"			Fair	Asia	Japan	"Mishima-bashi Bridge, Riv. Shono (Tsuruga City), Fukui"	35.6475		136.0627778														"17.0; 17.0; 17.0"	"19.0; 19.0; 19.0"										"13.0; 13.0; 13.0"	"0.2; 0.2; 0.2"	Sandy	Brown		Odorless	Pebble	"20.1; 20.6; 19.2 (Each) / 20.0 (Mixed)"	"0.9; 0.8; 1.0 (Each) / 0.5 (Mixed)"									"n=3 pooled"	2018/05/11	2019/08/08
PRA000068	SAA003964	ST024				Yamanashi_sed1-123_2015	Sediment	"River sediment"	2015	10	19	"2015-10-19T10:30; T10:00; T09:30"			Fair	Asia	Japan	"Chiaki-bashi Bridge, Riv. Ara (Kofu City), Yamanashi"	35.6475		138.5655556														"20.0; 21.5; 19.5"	"16.2; 17.6; 18.4"										"17.5; 18.0; 18.8"	"0.6; 0.3; 0.3"	"Sand; Pebble; Sand"	Gray		"River weed odor"	"None; Sand; Pebble"	"20.3; 12.6; 18.3 (Each) / 15.5 (Mixed)"	"5.4; 1.0; 1.0 (Each) / 0.7 (Mixed)"									"n=3 pooled"	2018/05/11	2019/08/08
PRA000068	SAA003965	ST024				Nagano_sed1-123_2015	Sediment	"Lake sediment"	2015	11	5	"2015-11-05T10:15; T11:10; T11:55"			Fair	Asia	Japan	"Center of Lake Suwa, Nagano"	36.05		138.0861111														"14.5; 15.9; 18.0"	"13.3; 13.5; 13.6"								"0.9; 1.1; 0.9"		"13.0; 13.0; 13.2"	"6.3; 5.9; 6.0"	Muddy	"Blackish brown_Dark"		"Swampy odor_Faint"	None	"NA / 86.6 (Mixed)"	"NA / 11.6 (Mixed)"									"n=3 pooled: SAA003872, SAA003873 and SAA003874 "	2018/5/11	2019/8/8
PRA000068	SAA003966	ST023				Shizuoka_sed1-123_2015	Sediment	"Marine sediment"	2015	10	1	"2015-10-01T09:40; T10:00; T10:15"			Cloudy	Asia	Japan	"Shimizu Port, Shizuoka"	35.02416667		138.5161111														"20.0; 21.0; 21.0"	"22.7; NA; NA"								"2.5; NA; NA"		"23.1; 23.4; 23.6"	"25.6; 17.7; 16.3"	"Sand; Clay"	"Grayish black_dark"		"Seaweed odor"	Shellfish	"40.4; 30.8; 33.3 (Each) / 31.6 (Mixed)"	"7.1; 5.6; 5.8 (Each) / 3.8 (Mixed)"									"n=3 pooled: SAA003875, SAA003876 and SAA003877"	2018/5/11	2019/8/8
PRA000068	SAA003967	ST024				Shizuoka_sed3-123_2015	Sediment	"River sediment"	2015	10	27	"2015-10-27T13:30; T14:00; T14:30"			Fair	Asia	Japan	"Riv. Tenryu (Iwata City), Shizuoka"	34.67916667		137.7961111														"27.8; 25.9; 25.4"	"19.1; NA; NA"										"18.0; 20.0; 18.8"	"0.3; 0.2; 0.4"	"Clay & Sand; Sand; Sand"	"Grayish black"		Odorless	"Pebble; Humic substance"	"26.3; 18.2; 24.9 (Each) / 19.9 (Mixed)"	"2.5; 1.0; 2.2 (Each) / 1.5 (Mixed)"									"n=3 pooled"	2018/05/11	2019/08/16
PRA000068	SAA003968	ST023				Aichi_sed2-123_2015	Sediment	"Marine sediment"	2015	10	27	"2015-10-27T10:00; T10:05; T10:10"			Cloudy	Asia	Japan	"Kinuura Port, Aichi"	34.84166667		136.9486111														"19.5; 19.5; 19.5"	"21.9; 21.9; 21.9"								"3.0; 3.0; 3.0"		"21.0; 21.0; 21.0"	"13.5; 13.5; 13.5"	Muddy	"Grayish black"		"Hydrogen sulfide odor"	None	"56.4; 56.7; 57.9 (Each) / 65.1 (Mixed)"	"9.9; 10.1; 10.2 (Each) / 8.8 (Mixed)"									"n=3 pooled"	2018/5/11	2019/8/16
PRA000068	SAA003969	ST023				Aichi_sed2-123_2015	Sediment	"Marine sediment"	2015	10	27	"2015-10-27T12:02; T12:07; T12:12"			Cloudy	Asia	Japan	"Nagoya Port, Aichi"	35.07111111		136.8691667														"21.8; 21.8; 21.8"	"22.3; 22.3; 22.3"								"2.5; 2.5; 2.5"		"22.0; 22.0; 22.0"	"15.0; 15.0; 15.0"	Muddy	"Grayish black"		"Hydrogen sulfide odor"	None	"42.6; 42.7; 42.9 (Each) / 57.8 (Mixed0"	"6.9; 7.0; 6.9 (Each) / 6.1 (Mixed)"									"n=3 pooled"	2018/5/11	2019/8/16
PRA000068	SAA003970	ST023				Mie_sed1-123_2015	Sediment	"Marine sediment"	2015	10	21	"2015-10-21T10:30; T10:50; T11:10"			Fair	Asia	Japan	"Yokkaichi Port, Mie"	34.94944444		136.6530556														"26.0; 23.0; 24.1"	"20.8; 20.8; 20.8"								"2.0; 2.0; 2.0"		"22.0; 22.0; 22.0"	"12.8; 11.2; 7.4"	Muddy	"Grayish black"		"Hydrogen sulfide odor_Faint"	None	"59.0; 56.0; 47.0 (Each) / 61.7 (Mixed)"	"10.0; 9.8; 7.7 (Each) / 6.8 (Mixed)"									"n=3 pooled: SAA003884, SAA003885 and SAA003886"	2018/5/11	2019/8/16
PRA000068	SAA003971	ST023				Mie_sed2-123_2015	Sediment	"Marine sediment"	2015	10	27	"2015-10-27T10:30; T10:50; T11:30"			Fair	Asia	Japan	"Toba Port, Mie"	34.48083333		136.8486111														"21.0; 21.5; 22.0"	"19.2; 20.0; 20.0"								"3.5; 2.8; 3.5"		"20.0; 20.0; 20.0"	"7.0; 6.0; 5.3"	"Muddy; Sandy mud; Sandy mud"	"Yellowish brown"		"Smell of the sea"	"None; Shell; Shell"	"53.0; 37.0; 36.0 (Each) / 48.0 (Mixed)"	"16.0; 8.1; 7.7 (Each) / 8.9 (Mixed)"									"n=3 pooled"	2018/5/11	2019/8/16
PRA000068	SAA003972	ST024				Shiga_sed1-123_2015	Sediment	"Lake sediment"	2015	10	20	"2015-10-20T09:45; T10:00; T10:10"			Fair	Asia	Japan	"Lake Biwa (center, offshore of Minamihira), Shiga"	35.18527778		135.9733333														"20.7; 20.7; 20.8"	"19.9; 20.3; 19.8"								"5.8; 5.9; 4.1"		"8.5; 9.1; 9.0"	"58.6; 52.2; 49.0"	Muddy	"Grayish black"		"Swampy odor"	None	"72.5; 70.5; 69.6 (Each) / 80.5 (Mixed)"	"10.7; 10.5; 10.5 (Each) / 9.8 (Mixed)"									"n=3 pooled: SAA003887, SAA003888 and SAA003889"	2018/05/11	2019/08/16
PRA000068	SAA003973	ST024				Shiga_sed2-123_2015	Sediment	"Lake sediment"	2015	10	20	"2015-10-20T11:00; T11:10; T11:40"			Fair	Asia	Japan	"Lake Biwa (center, offshore of Karasaki), Shiga"	35.04611111		135.8955556														"19.7; 23.6; 24.0"	"20.0; 20.5; 19.6"								"2.7; 3.0; 2.7"		"20.4; 20.9; 20.6"	"2.7; 3.0; 2.7"	Muddy	"Grayish black"		"Swampy odor"	waterweed	"67.3; 70.3; 64.6 (Each) / 76.7 (Mixed)"	"10.3; 11.1; 9.8 (Each) / 9.7 (Mixed)"									"n=3 pooled"	2018/5/11	2019/8/16
PRA000068	SAA003974	ST023				Kyoto_sed1-123_2015	Sediment	"Marine sediment"	2015	10	23	"2015-10-23T09:52; T10:13; T10:43"			Fair	Asia	Japan	"Miyazu Port, Kyoto"	35.58305556		135.2138889														"19.5; 18.6; 20.7"	"20.9; 20.9; 20.7"								"9.0; 10.0; 9.0"		"20.0; 20.5; 20.0"	"12.0; 22.6; 22.2"	Muddy	"Grayish black"		"Seaweed odor"	None	"25.6; 52.8; 56.3 (Each) / 2.5; 9.0; 9.3 (Mixed)"	"2.5; 9.0; 9.3 (Each) / 4.8 (Mixed)"									"n=3 pooled: SAA003890, SAA003891 and SAA003892"	2018/5/11	2019/8/16
PRA000068	SAA003975	ST024				KyotoCity_sed1-123_2015	Sediment	"River sediment"	2015	11	30	"2015-11-30T10:20; T10:40; T11:00"			Fair	Asia	Japan	"Miyamae-bashi Bridge, Riv. Katsura (Kyoto City), Kyoto"	34.905		135.7125														"11.0; 11.0; 11.0"	"9.0; 9.0; 9.0"										"9.5; 9.0; 10.0"	"0.7; 0.7; 0.6"	Sandy	"Grayish brown"		Odorless	None	"18.2; 14.4; 17.6 (Each) / 16.4 (Mixed)"	"0.9; 1.0; 1.0 (Each) / 0.8 (Mixed)"									"n=3 pooled"	2018/05/11	2019/08/16
PRA000068	SAA003976	ST024				Osaka_sed1-123_2015	Sediment	"River sediment"	2015	11	19	"2015-11-19T08:58; T09:35; T10:25"			Cloudy	Asia	Japan	"Mouth of Riv. Yamato (Sakai City), Osaka"	34.60833333		135.4325														"17.3; 17.3; 17.4"	"17.2; 17.1; 17.9"								"0.7; 0.7; 0.7"		"20.5; 20.1; 20.7"	"3.7; 3.3; 3.5"	Mud	Black		"Hydrogen sulfide odor_Strong"	"Vegetative pieces"	"74.9; 76.4; 63.7 (Each) / 69.8 (Mixed)"	"14.6; 15.1; 9.6 (Each) / 11.9 (Mixed)"									"n=3 pooled: SAA003893, SAA003894 and SAA003895"	2018/05/11	2019/08/16
PRA000068	SAA003977	ST024				OsakaCity_sed2-123_2015	Sediment	"River sediment"	2015	10	28	"2015-10-28T09:30; T10:26; T09:55"			Fair	Asia	Japan	"Kema-bashi Bridge, Riv. Oh (Osaka City), Osaka"	34.717760		135.519610														"21.4; 22.0; 22.0"	"18.7; 18.7; 19.0"										"18.9; 19.0; 18.9"	"2.7; 2.3; 3.8"	"Sludge (Clay)"	"Grayish brown"		"Sewage odor_Faint; Sewage odor; Sewage odor_Faint"	"Pond snail; Pond snail & Bivalves; Bivalves"	"43.8; 47.5; 44.6 (Each) / 57.2 (Mixed)"	"7.7; 9.0; 8.5 (Each) / 8.4 (Mixed)"									"n=3 pooled"	2018/05/11	2019/08/16
PRA000068	SAA003978	ST024				OsakaCity_sed3-123_2015	Sediment	"River sediment"	2015	10	27	"2015-10-27T10:15; T10:05; T09:56"			Fair	Asia	Japan	"Mouth of Riv. Yodo, Osaka"	34.67638889		135.3975														"25.0; 26.0; 25.0"	"21.3; 21.0; 21.2"								"2.7; 3.1; 3.0"		"22.0; 22.0; 22.0"	"6.9; 5.6; 4.9"	"Sludge (Clay)"	Black		"Sewage odor; Sewage odor_Faint; Sewage odor_Faint"	"None; Sticks; None"	"37.0; 40.2; 31.2 (Each) / 49.5 (Mixed)"	"7.6; 8.1; 5.6 (Each) / 7.3 (Mixed)"									"n=3 pooled"	2018/5/11	2019/8/16
PRA000068	SAA003979	ST023				OsakaCity_sed1-123_2015	Sediment	"Marine sediment"	2015	10	27	"2015-10-27T09:23; T09:00; T09:30"			Fair	Asia	Japan	"Osaka Port, Osaka"	34.65861111		135.4313889														"23.0; 23.0; 22.1"	"20.1; 20.6; 20.4"								"3.8; 3.3; 3.9"		"21.8; 22.2; 22.0"	"12.2; 13.0; 13.1"	"Sludge (Clay); Sludge (Clay); Sludge"	Black		"Hydrogen sulfide odor_Faint; Hydrogen sulfide odor_Faint; Hydrogen sulfide odor"	None	"38.7; 39.4; 57.5 (Each) / 64.8 (Mixed)"	"6.8; 7.0; 10.7 (Each) / 8.9 (Mixed)"									"n=3 pooled: SAA003896, SAA003897 and SAA003898"	2018/5/11	2019/8/16
PRA000068	SAA003980	ST023				OsakaCity_sed4-123_2015	Sediment	"Marine sediment"	2015	10	27	"2015-10-27T10:52; T10:43; T10:35"			Fair	Asia	Japan	"Outside of Osaka Port, Osaka"	34.64027778		135.3858333														"24.0; 24.7; 25.0"	"21.1; 21.6; 21.6"								"3.5; 3.2; 3.1"		"20.0; 22.0; 22.4"	"17.1; 12.4; 14.0"	"Sludge (Clay)"	"Grayish black"		"Hydrogen sulfide odor_Faint"	"None; Shell; None"	"52.9; 55.1; 33.8 (Each) / 59.6 (Mixed)"	"8.4; 9.9; 4.6 (Each) / 7.1 (Mixed)"									"n=3 pooled"	2018/5/11	2019/8/16
PRA000068	SAA003981	ST023				Hyogo_sed1-123_2015	Sediment	"Marine sediment"	2015	10	22	"2015-10-22T11:35; T11:04; T10:50"			Cloudy	Asia	Japan	"Offshore of Himeji, Hyogo"	34.76194444		134.6697222														"21.3; 21.5; 22.0"	"23.3; 22.9; 23.1"								"3.8; 3.9; 3.2"		"23.0; 23.5; 23.0"	"9.2; 9.6; 10.7"	Silt	"Grayish green"		"Muddy odor"	None	"NA / 69.2 (Mixed)"	"NA / 9.1 (Mixed)"									"n=3 pooled"	2018/5/11	2019/8/16
PRA000068	SAA003982	ST023				Hyogo_sed2-123_2015	Sediment	"Marine sediment"	2015	11	20	"2015-11-20T09:46; T10:24; T10:43"			Fair	Asia	Japan	"Center of Kobe Port, Hyogo"	34.66444444		135.1944444														"17.0; 16.0; 17.5"	"18.5; 18.5; 18.1"								"7.5; 7.5; 7.5"		"20.0; 19.8; 20.0"	"10.7; 10.4; 13.3"	Silt	"Grayish black"		"Hydrogen sulfide odor_Faint"	None	"48.0; 37.0; 51.0 (Each) / 62.9 (Mixed)"	"9.1; 7.4; 9.0 (Each) / 7.9 (Mixed)"									"n=3 pooled"	2018/5/11	2019/8/16
PRA000068	SAA003983	ST024				Nara_sed1_123_2015	Sediment	"River sediment"	2015	10	19	"2015-10-19T10:30; T10:35; T10:40"			Fair	Asia	Japan	"Taisho-bashi Bridge, Riv. Yamato (Oji town), Nara"	34.58583333		135.6833333														"23.5; 23.5; 23.5"	"20.5; 21.0; 20.5"										"20.0; 21.2; 20.8"	"0.2; 0.1; 0.1"	"Muddy; Sandy; Sandy"	"Blackish brown; Brown; Brown"		"Sewage odor"	None	"24.0; 20.0; 22.0 (Each) / 21.9 (Mixed)"	"1.2; 0.5; 0.6 (Each) / 0.7 (Mixed)"									"n=3 pooled"	2018/05/11	2019/08/16
PRA000068	SAA003984	ST024				Wakayama_sed1-123_2015	Sediment	"River sediment"	2015	11	16	"2015-11-16T13:00; T12:40; T13:10"			Fair	Asia	Japan	"Kinokawa-ohashi Bridge, Mouth of Riv. Kinokawa (Wakayama City), Wakayama"	34.23		135.1561111														"24.3; 23.4; 24.1"	"24.5; 20.8; 20.8"								"1.2; 1.2; 1.2"		"21.3; 23.4; 21.0"	"3.0; 3.2; 3.7"	"Sandy; Sandy; Muddy"	"Gray; Gray; Grayish black"		"Seaweed odor_Faint; Seaweed odor_Faint; Odorless"	"Shellfish; None; None"	"19.7; 21.1; 26.6 (Each) / 25.0 (Mixed)"	"1.9; 2.3; 3.9 (Each) / 2.3 (Mixed)"									"n=3 pooled: SAA003899, SAA003900 and SAA003901"	2018/5/11	2019/8/16
PRA000068	SAA003985	ST023				Okayama_sed1-123_2015	Sediment	"Marine sediment"	2015	11	4	"2015-11-04T11:07; T10:50; T11:32"			Fair	Asia	Japan	"Offshore of Mizushima, Okayama"	34.48055556		133.665														"18.5; 17.0; 18.2"	"20.0; 19.5; 20.0"								"3.0; 3.0; 3.0"		"19.5; 19.8; 19.5"	"8.8; 9.3; 8.1"	"Soft mud"	"Grayish green"		"Earthy odor"	"Small pieces of shell"	"46.9; 48.3; 49.9 (Each) / 47.4 (Mixed)"	"6.2; 6.7; 7.4 (Each) / 5.3 (Mixed)"									"n=3 pooled: SAA003902, SAA003903 and SAA003904"	2018/5/11	2019/8/16
PRA000068	SAA003986	ST023				Hiroshima_sed1-123_2015	Sediment	"Marine sediment"	2015	11	4	"2015-11-04T09:51; T10:20; T10:35"			Fair	Asia	Japan	"Kure Port, Hiroshima"	34.23361111		132.5391667														"17.5; 18.0; 18.5"	"20.2; 20.5; 20.5"								"7.0; 7.5; 7.5"		"20.3; 20.8; 20.2"	"18.0; 18.0; 16.0"	Silt	"Grayish green"		"Hydrogen sulfide odor_Faint; Hydrogen sulfide odor; Hydrogen sulfide odor"	None	"61.3; 55.9; 57.9 (Each) / 70.4 (Mixed)"	"11.4; 11.0; 11.7 (Each) / 9.3 (Mixed)"									"n=3 pooled"	2018/5/11	2019/8/16
PRA000068	SAA003987	ST023				Hiroshima_sed2-123_2015	Sediment	"Marine sediment"	2015	11	4	"2015-11-04T11:26; T11:46; T11:55"			Fair	Asia	Japan	"Hiroshima Bay (Hiroshima City), Hiroshima"	34.34833333		132.4225														"18.7; 22.0; 20.6"	"20.2; 20.3; 20.6"								"6.0; 3.5; 4.0"		"20.9; 21.0; 21.0"	"11.0; 11.0; 13.0"	Silt	"Grayish green"		"Odorless; Odorless; Hydrogen sulfide odor"	None	"56.8; 55.7; 54.7 (Each) / 69.5 (Mixed)"	"11.7; 10.8; 11.2 (Each) / 9.4 (Mixed)"									"n=3 pooled"	2018/05/11	2019/08/16
PRA000068	SAA003988	ST023				Yamaguchi_sed1-123_2015	Sediment	"Marine sediment"	2015	10	7	"2015-10-07T10:41; T10:46; T10:51"			Fair	Asia	Japan	"Tokuyama Bay, Yamaguchi"	33.99361111		131.7505556														"23.0; 23.0; 23.0"	"23.2; 23.2; 23.2"								"4.5; 4.5; 4.5"			"26.2; 29.2; 29.3"		Gray		"Hydrogen sulfide odor_Faint"	None	"55.5; 56.2; 56.4 (Each) / 66.3 (Mixed)"	"10.3; 10.3; 10.4 (Each) / 8.3 (Mixed)"									"n=3 pooled: SAA003905, SAA003906 and SAA003907"	2018/5/11	2019/8/16
PRA000068	SAA003989	ST023				Yamaguchi_sed2-123_2015	Sediment	"Marine sediment"	2015	11	16	"2015-11-16T12:50; T12:55; T13:00"			Fair	Asia	Japan	"Offshore of Ube, Yamaguchi"	33.915		131.1975														"19.4; 19.4; 19.4"	"18.9; 18.9; 18.9"								"3.0; 3.0; 3.0"			"8.5; 8.5; 8.5"		Gray		Odorless	None	"32.8; 32.5; 32.0 (Each) / 37.5 (Mixed)"	"6.0; 6.0; 5.7 (Each) / 3.7 (Mixed)"									"n=3 pooled"	2018/5/11	2019/8/16
PRA000068	SAA003990	ST023				Yamaguchi_sed3-123_2015	Sediment	"Marine sediment"	2015	10	22	"2015-10-22T10:30; T10:35; T10:40"			Cloudy	Asia	Japan	"Offshore of Hagi, Yamaguchi"	34.43805556		131.3794444														"21.0; 21.0; 21.0"	"21.5; 21.5; 21.5"								"13.0; 13.0; 13.0"			"33.0; 33.0; 33.0"		Gray_light		Odorless	None	"28.9; 30.0; 30.8 (Each) / 28.8 (Mixed)"	"5.9; 6.3; 6.3 (Each) / 3.7 (Mixed)"									"n=3 pooled"	2018/5/11	2019/8/16
PRA000068	SAA003991	ST024				Tokushima_sed1-123_2015	Sediment	"River sediment"	2015	10	27	"2015-10-27T09:29; T09:48; T10:20"			Fair	Asia	Japan	"Mouth of Riv. Yoshino (Tokushima City), Tokushima"	34.085		134.5913889														"20.7; 21.4; 22.7"	"19.8; 20.0; 19.7"								"2.5; 2.5; 2.0"		"20.1; 20.8; 20.5"	"6.0; 6.3; 3.0"	"Sandy; Sandy & Clay; Sandy"	"Grayish black"		Odorless	None	"23.0; 26.0; 21.0 (Each) / 21.9 (Mixed)"	"1.5; 2.7; 1.3 (Each) / 1.6 (Mixed)"									"n=3 pooled"	2018/05/11	2019/08/16
PRA000068	SAA003992	ST023				Kagawa_sed1-123_2015	Sediment	"Marine sediment"	2015	10	13	"2015-10-13T09:05; T09:20; T09:45"			Fair	Asia	Japan	"Takamatsu Port, Kagawa"	34.34972222		134.0788889														"21.7; 20.7; 21.2"	"22.7; 22.7; 22.7"								"2.0; 2.8; 2.9"		"23.1; 22.4; 22.7"	"2.4; 5.0; 5.1"	"Muddy; Sandy mud; Muddy"	Black		"Hydrogen sulfide odor & Turpentine-like odor_Faint"	"Bentos; Shell"	"48.6; 25.9; 48.9 (Each) / 39.8 (Mixed)"	"11.4; 2.8; 9.8 (Each) / 6.6 (Mixed)"									"n=3 pooled: SAA003908, SAA003909 and SAA003910"	2018/5/11	2019/8/16
PRA000068	SAA003993	ST023				Ehime_sed1-123_2015	Sediment	"Marine sediment"	2015	10	30	"2015-10-30T09:50; T10:05; T10:20"			Cloudy	Asia	Japan	"Niihama Port, Ehime"	33.98777778		133.3144444														"19.3; 19.8; 19.5"	"20.8; 20.8; 20.9"								"3.5; 3.5; 3.5"		"20.8; 20.7; 20.6"	"11.1; 11.1; 11.0"	Silt	"Grayish green"		Odorless	"Vegetative pieces"	"68.7; 70.1; 70.8 (Each) / 57.7 (Mixed)"	"10.4; 10.7; 11.0 (Each) / 5.3 (Mixed)"									"n=3 pooled"	2018/5/11	2019/8/16
PRA000068	SAA003994	ST024				Kochi_sed1-123_2015	Sediment	"River sediment"	2015	10	14	"2015-10-14T09:00; T09:55; T11:25"			Fair	Asia	Japan	"Mouth of Riv. Shimanto (Shimanto City), Kochi"	32.93777778		132.8441667														"17.0; 21.2; 23.1"	"17.3; NA; NA"								"4.0; NA; NA"		"24.5; 26.0; 26.0"	"6.9; 5.5; 0.5"	Muddy	"Grayish black"		"Swampy odor"	None	"9.4; 33.2; 21.0 (Each) / 39.6 (Mixed)"	"15.1; 6.6; 3.3 (Each) / 4.9 (Mixed)"									"n=3 pooled"	2018/05/11	2019/08/16
PRA000068	SAA003995	ST023				KitakyushuCity_sed1-123_2015	Sediment	"Marine sediment"	2015	10	20	"2015-10-20T10:05; T09:50; T09:40"			Fair	Asia	Japan	"Dokai Bay (Kitakyushu City), Fukuoka"	33.90388889		130.8158333														"22.2; 22.2; 22.2"	"21.4; 21.4; 21.4"								"3.5; 3.5; 3.5"			"9.6; 11.1; 7.8"	Muddy	"Blackish brown"		Odorless	None	"NA / 50.1 (Mixed)"	"NA / 9.3 (Mixed)"									"n=3 pooled"	2018/05/11	2019/08/16
PRA000068	SAA003996	ST023				FukuokaCity_sed1-123_2015	Sediment	"Marine sediment"	2015	11	30	"2015-11-30T08:53; T09:29; T09:44"			Fair	Asia	Japan	"Hakata Bay, Fukuoka"	33.60833333		130.3297222														"13.5; 14.5; 14.5"	"14.5; 15.0; 15.5"								"2.0; 2.5; 2.5"		"16.5; 16.5; 16.0"	"8.2; 7.7; 8.0"	Silt	"Gray_dark; Grayish yellow green_dark; Grayish yellow green_dark"		Odorless	None	"45.0; 41.0; 43.0 (Each) / 53.4 (Mixed)"	"9.2; 8.6; 8.9 (Each) / 8.4 (Mixed)"									"n=3 pooled: SAA003911, SAA003912 and SAA003913"	2018/5/11	2019/8/16
PRA000068	SAA003997	ST023				Saga_sed1-123_2015	Sediment	"Marine sediment"	2015	10	29	"2015-10-29T10:50; T11:16; T11:47"			Fair	Asia	Japan	"Imari Bay, Saga"	33.34		129.8208333														"20.0; 18.0; 19.5"	"20.5; 20.5; 20.5"								"2.7; 2.5; 2.8"		"21.0; 21.0; 20.5"	"15.2; 15.3; 15.5"	Muddy	"Grayish black"		Odorless	None	"59.8; 60.8; 59.9 (Each) / 64.3 (Mixed)"	"21.1; 18.5; 20.3 (Each) / 8.8 (Mixed)"									"n=3 pooled: SAA003914, SAA003915 and SAA003916"	2018/5/11	2019/8/16
PRA000068	SAA003998	ST023				Nagasaki_sed1-123_2015	Sediment	"Marine sediment"	2015	12	2	"2015-12-02T09:31; T09:45; T10:03"			Cloudy	Asia	Japan	"Omura Bay, Nagasaki"	32.98833333		129.8522222														"14.5; 14.5; 14.8"	"18.1; NA; NA"								"5.2; NA; NA"		"17.8; 18.0; 18.2"	"19.2; 19.1; 19.3"	Silt	"Grayish brown"		Odorless	Shell	"57.0; 58.8; 59.1 (Each) / 67.1 (Mixed)"	"12.9; 12.6; 12.7 (Each) / 12.4 (Mixed)"									"n=3 pooled"	2018/5/11	2019/8/16
PRA000068	SAA003999	ST024				Oita_sed1-123_2015	Sediment	"River sediment"	2015	12	8	"2015-12-08T12:27; T11:42; T10:48"			Fair	Asia	Japan	"Mouth of Riv. Oita, Oita"	33.25722222		131.6175														"15.1; 18.0; 14.7"	"15.5; 15.3; 13.4"											"2.9; 3.0; 2.3"	"Sandy; Sandy; Muddy"	"Blackish brown_light; Brown_dark; Blackish brown_dark"		"Odorless; Odorless; Hydrogen sulfide odor"	"Shell; Shell & Stones; Sticks & Shell"	"13.8; 14.8; 33.6 (Each) / 26.1 (Mixed)"	"1.4; 1.6; 5.1 (Each) / 2.0 (Mixed)"									"n=3 pooled: SAA003917, SAA003918 and SAA003919"	2018/5/11	2019/8/16
PRA000068	SAA004000	ST024				Miyazaki_sed1-123_2015	Sediment	"River sediment"	2015	10	14	"2015-10-14T12:25; T12:07; T12:18"			Fair	Asia	Japan	"Mouth of Riv. Oyodo (Miyazaki City), Miyazaki"	31.89611111		131.4402778														"24.5; 24.5; 24.5"	"21.6; 21.6; 21.6"										"21.6; 21.6; 21.6"	"0.5; 0.5; 0.5"	"Pebbles & Sand"	"Grayish black_light"		Odorless	None	"20.1; 21.1; 20.7 (Each) / 20.0 (Mixed)"	"1.4; 1.7; 1.5 (Each) / 1.1 (Mixed)"									"n=3 pooled"	2018/05/11	2019/08/16
PRA000068	SAA004001	ST024				Kagoshima_sed1-123_2015	Sediment	"River sediment"	2015	11	10	"2015-11-10T11:50; T11:08; T10:30"			Fair	Asia	Japan	"Riv. Amori (Kirishima City), Kagoshima"	31.7225		130.7416667														"20.4; 19.4; 19.4"	"18.5; 18.3; 18.4"										"18.7; 19.1; 18.8"	"0.1; 0.1; 0.1"	Gravelly	"Blackish brown"		Odorless	Pebble	"18.1; 18.3; 22.4 (Each) / 17.4 (Mixed)"	"1.2; 0.7; 1.1 (Each) / 0.8 (Mixed)"									"n=3 pooled"	2018/05/11	2019/08/16
PRA000068	SAA004002	ST024				Kagoshima_sed2-123_2015	Sediment	"River sediment"	2015	11	12	"2015-11-12T11:40; T11:00; T10:15"			Cloudy	Asia	Japan	"Gotanda-bashi Bridge, Riv. Gotanda (Ichikikushikino City), Kagoshima"	31.72583333		130.2769444														"22.1; 20.8; 21.3"	"18.1; 17.7; 17.4"										"18.0; 17.8; 17.7"	"0.1; 0.1; 0.1"	Gravelly	"Blackish brown"		Odorless	Pebble	"22.6; 24.7; 19.0 (Each) / 20.8 (Mixed)"	"1.5; 1.7; 1.9 (Each) / 1.3 (Mixed)"									"n=3 pooled"	2018/05/11	2019/08/16
PRA000068	SAA004003	ST023				Okinawa_sed1-123_2015	Sediment	"Marine sediment"	2015	10	29	"2015-10-29T09:50; T11:00; T10:30"			Fair	Asia	Japan	"Naha Port, Okinawa"	26.21222222		127.665														"24.8; 25.2; 24.8"	"25.8; 26.6; 26.0"								"1.7; 2.6; 3.3"			"8.8; 9.9; 7.1"	Sludge	"Grayish black"		"Hydrogen sulfide odor & Sewage odor"	"Pebble; Vegetative pieces; Pieces of plastic"	"41.8; 48.1; 37.3 (Each) / 46.6 (Mixed)"	"13.5; 18.5; 13.6 (Each) / 10.6 (Mixed)"									"n=3 pooled"	2018/5/11	2019/8/16
PRA000076	SAA004239	ST024				Hokkaido_sed1-123_2016	Sediment	"River sediment"	2016	9	13	2016-09-13T09:30			Fair	Asia	Japan	"Onnnenai-ohashi Bridge, Riv. Teshio (BifukaTown), Hokkaido"	44.59138889		142.3063889														15.1																												"n=3 pooled:SAA004236, SAA004237 and SAA004238"	2018/10/05	2018/10/05
PRA000076	SAA004243	ST024				Hokkaido_sed2-123_2016	Sediment	"River sediment"	2016	11	2				Fair	Asia	Japan	"Ishikarikakokyo Bridge, Mouth of Riv. Ishikari (Ishikari City), Hokkaido"	43.22861111		141.3519444																																										"n=3 pooled: SAA004240, SAA004241and SAA004242"	2018/10/05	2018/10/05
PRA000076	SAA004247	ST023				Hokkaido_sed3-123_2016	Sediment	"Marine sediment"	2016	9	14				Fair	Asia	Japan	"Tomakomai Port, Hokkaido"	42.63138889		141.6288889																																										"n=3 pooled: SAA004244, SAA004245 and SAA004246"	2018/10/5	2018/10/5
PRA000076	SAA004248	ST024				Iwate_sed1-123_2016	Sediment	"River sediment"	2016	10	12					Asia	Japan	"Riv. Toyosawa (Hanamaki City), Iwate"	39.38166667		141.1191667																																										"n=3 pooled: SAA004077, SAA004078 and SAA004079"	2018/10/05	2018/10/05
PRA000076	SAA004249	ST023				Miyagi_sed1_1_2016	Sediment	"Marine sediment"	2016	10	18	2016-10-18T10:15			Fair	Asia	Japan	"Sendai Bay (Matsushima Bay), Miyagi"	38.35333333		141.0975														24.6	18.7								1.9		20.9	4.1	Muddy	"Grayish green"	Clear	Odorless	None	53.5/65.6	10.2/9.5										2018/10/5	2018/10/5
PRA000076	SAA004250	ST024				Sendai_sed1_123_2016	Sediment	"River sediment"	2016	11	16				Fair	Asia	Japan	"Hirose-ohashi Bridge, Riv. Hirose (Sendai City), Miyagi"	38.21333333		140.9088889																																										"n=3 pooled: SAA004166, SAA004167 and SAA004165"	2018/10/05	2018/10/05
PRA000076	SAA004254	ST024				Akita_sed2-123_2016	Sediment	"Lake sediment"	2016	9	7				Cloudy	Asia	Japan	"Lake Hachiro, Akita"	39.92277778		139.9988889																																										"n=3 pooled: SAA004251, SAA004252 and SAA004253"	2018/10/5	2018/10/5
PRA000076	SAA004258	ST024				Yamagata_sed1-123_2016	Sediment	"River sediment"	2016	10	28	2016-10-28T09:50			Cloudy	Asia	Japan	"Mouth of Riv. Mogami (Sakata City), Yamagata"	38.88722222		139.8433333																																										"n=3 pooled: SAA004255, SAA004256 and SAA004257"	2018/10/05	2018/10/05
PRA000076	SAA004262	ST023				Fukushima_sed1-123_2016	Sediment	"Marine sediment"	2016	10	18				Fair	Asia	Japan	"Onahama Port, Fukushima"	36.92472222		140.8752778																																										"n=3 pooled: SAA004259, SAA004260 and SAA004261"	2018/10/5	2018/10/5
PRA000076	SAA004266	ST024				Ibaraki_sed1-123_2016	Sediment	"River sediment"	2016	11	2				Cloudy	Asia	Japan	"Kamome-ohasi Bridge, Mouth of Riv. Tone (Kamisu City), Ibaraki"	35.77638889		140.7569444																																										"n=3 pooled: SAA004263, SAA004264 and SAA004265"	2018/10/05	2018/10/05
PRA000076	SAA004270	ST024				Tochigi_sed1-123_2016	Sediment	"River sediment"	2016	10	12				Fair	Asia	Japan	"Tagawa area-Toshuko Weir (Utsunomiya City), Tochigi"	36.52805556		139.8855556																																										"n=3 pooled: SAA004166, SAA004167 and SAA004165"	2018/10/05	2018/10/05
PRA000076	SAA004271	ST023				Chiba_sed1-123_2016	Sediment	"Marine sediment"	2016	10	19				Cloudy	Asia	Japan	"Ichihara-Anesaki Coast, Chiba"	35.52166667		140.0283333																																										"n=3 pooled: SAA004171, SAA004172 and SAA004173"	2018/10/5	2018/10/5
PRA000076	SAA004275	ST024				ChibaCity_sed1-123_2016	Sediment	"River sediment"	2016	11	10				Cloudy	Asia	Japan	"Mouth of Riv. Hanami (Chiba City), Chiba"	35.63472222		140.04694440																																										"n=3 pooled: SAA004272, SAA004273 and SAA004274"	2018/10/05	2018/10/05
PRA000076	SAA004276	ST024				Tokyo_sed1-123_2016	Sediment	"River sediment"	2016	11	1					Asia	Japan	"Mouth of Riv. Arakawa (Koto Ward), Tokyo"	35.64583333		139.8463889																																										"n=3 pooled: SAA004083, SAA004084 and SAA004085"	2018/10/05	2018/10/05
PRA000076	SAA004277	ST024				Tokyo_sed2-123_2016	Sediment	"River sediment"	2016	11	1					Asia	Japan	"Mouth of Riv. Sumida (Minato Ward), Tokyo"	35.66		139.7705556																																										"n=3 pooled: SAA004086, SAA004087 and SAA004088"	2018/10/05	2018/10/05
PRA000076	SAA004278	ST023				Yokohama_sed1-123_2016	Sediment	"Marine sediment"	2016	10	13				Cloudy	Asia	Japan	"Yokohama Port, Kanagawa"	35.45555556		139.6636111																																										"n=3 pooled: SAA004089, SAA004090 and SAA004091"	2018/10/5	2018/10/5
PRA000076	SAA004279	ST024				KawasakiCity_sed1-123_2016	Sediment	"River sediment"	2016	10	13				Cloudy	Asia	Japan	"Mouth of Riv. Tama (Kawasaki City), Kanagawa"	35.53		139.7836111																																										"n=3 pooled: SAA004092, SAA004093 and SAA004094"	2018/10/05	2018/10/05
PRA000076	SAA004280	ST023				KawasakiCity_sed2-123_2016	Sediment	"Marine sediment"	2016	10	13				Cloudy	Asia	Japan	"Keihin Canal, Kawasaki Port, Kanagawa (front of Ogimachi)"	35.49527778		139.7277778																																										"n=3 pooled: SAA004174, SAA004175 and SAA004176"	2018/10/05	2018/10/05
PRA000076	SAA004281	ST024				Niigata_sed1-123_2016	Sediment	"River sediment"	2016	10	19				Fair	Asia	Japan	"Downstream of Riv. Shinano (Niigata City), Niigata"	37.88305556		139.0155556																																										"n=3 pooled: SAA004177, SAA004178 and SAA004179"	2018/10/05	2018/10/05
PRA000076	SAA004282	ST024				Toyama_sed1-123_2016	Sediment	"River sediment"	2016	10	19				Fair	Asia	Japan	"Hagiura-bashi Bridge, Mouth of Riv. Jintsu (Toyama City), Toyama"	36.745		137.2180556																																										"n=3 pooled: SAA004180, SAA004181 and SAA004182"	2018/10/05	2018/10/05
PRA000076	SAA004283	ST024				Ishikawa_sed1-123_2016	Sediment	"River sediment"	2016	11	2				Fair	Asia	Japan	"Mouth of Riv. Sai (Kanazawa City), Ishikawa"	36.60027778		136.5888889																																										"n=3 pooled: SAA004183, SAA004184 and SAA004185"	2018/10/05	2018/10/05
PRA000076	SAA004287	ST024				Fukui_sed1-123_2016	Sediment	"River sediment"	2016	11	2	2016-11-02T10:50			Fair	Asia	Japan	"Mishima-bashi Bridge, Riv. Shono (Tsuruga City), Fukui"	35.6475		136.0627778																																										"n=3 pooled: SAA004284, SAA004285 and SAA004286"	2018/10/05	2018/10/05
PRA000076	SAA004291	ST024				Yamanashi_sed1-123_2016	Sediment	"River sediment"	2016	10	21				Cloudy	Asia	Japan	"Chiaki-bashi Bridge, Riv. Ara (Kofu City), Yamanashi"	35.6475		138.5655556																																										"n=3 pooled: SAA004288, SAA004289 and SAA004290"	2018/10/05	2018/10/05
PRA000076	SAA004292	ST024				Nagano_sed1-123_2016	Sediment	"Lake sediment"	2016	11	2				Cloudy	Asia	Japan	"Center of Lake Suwa, Nagano"	36.05		138.0861111																																										"n=3 pooled: SAA004095, SAA004096 and SAA004097"	2018/10/5	2018/10/5
PRA000076	SAA004296	ST023				Shizuoka_sed1-123_2016	Sediment	"Marine sediment"	2016	10	13				Cloudy	Asia	Japan	"Shimizu Port, Shizuoka"	35.02416667		138.5161111																																										"n=3 pooled: SAA004293, SAA004294 and SAA004295"	2018/10/5	2018/10/5
PRA000076	SAA004300	ST024				Shizuoka_sed3-123_2016	Sediment	"River sediment"	2016	10	25				Cloudy	Asia	Japan	"Riv. Tenryu (Iwata City), Shizuoka"	34.67916667		137.7961111																																										"n=3 pooled: SAA004297, SAA004298 and SAA004299"	2018/10/05	2018/10/05
PRA000076	SAA004304	ST023				Aichi_sed2-123_2016	Sediment	"Marine sediment"	2016	10	25				Rain	Asia	Japan	"Kinuura Port, Aichi"	34.84166667		136.9486111																																										"n=3 pooled: SAA004301, SAA004302 and SAA004303"	2018/10/5	2018/10/5
PRA000076	SAA004308	ST023				Aichi_sed1-456_2016	Sediment	"Marine sediment"	2016	10	25				Rain	Asia	Japan	"Nagoya Port, West of Shiomi Wharf, Aichi"	35.07111111		136.8691667																																										"n=3 pooled: SAA004305, SAA004306 and SAA004307"	2018/10/5	2018/10/5
PRA000076	SAA004309	ST023				Mie_sed1-123_2016	Sediment	"Marine sediment"	2016	10	25				Cloudy	Asia	Japan	"Yokkaichi Port, Mie"	34.94944444		136.6530556																																										"n=3 pooled: SAA004104, SAA004105 and SAA004106"	2018/10/5	2018/10/5
PRA000076	SAA004313	ST023				Mie_sed2-123_2016	Sediment	"Marine sediment"	2016	10	18				Fair	Asia	Japan	"Toba Port, Mie"	34.48083333		136.8486111																																										"n=3 pooled: SAA004310, SAA004311 and SAA004312"	2018/10/5	2018/10/5
PRA000076	SAA004314	ST024				Shiga_sed1-123_2016	Sediment	"Lake sediment"	2016	10	21					Asia	Japan	"Lake Biwa (center, offshore of Minamihira), Shiga"	35.18527778		135.9733333																																										"n=3 pooled: SAA004189, SAA004190 and SAA004191"	2018/10/05	2018/10/05
PRA000076	SAA004315	ST024				Shiga_sed2-123_2016	Sediment	"Lake sediment"	2016	11	28				Cloudy	Asia	Japan	"Lake Biwa (center, offshore of Karasaki), Shiga"	35.04611111		135.8955556																																										"n=3 pooled: SAA004192, SAA004193 and SAA004194"	2018/10/5	2018/10/5
PRA000076	SAA004319	ST023				Kyoto_sed1-123_2016	Sediment	"Marine sediment"	2016	10	25				Cloudy	Asia	Japan	"Miyazu Port, Kyoto"	35.58305556		135.2138889																																										"n=3 pooled: SAA004316, SAA004317 and SAA004318"	2018/10/5	2018/10/5
PRA000076	SAA004320	ST024				KyotoCity_sed1-123_2016	Sediment	"River sediment"	2016	10	28				Cloudy	Asia	Japan	"Miyamae-bashi Bridge, Riv. Katsura (Kyoto City), Kyoto"	34.905		135.7125																																										"n=3 pooled: SAA004195, SAA004196 and SAA004197"	2018/10/05	2018/10/05
PRA000076	SAA004321	ST024				Osaka_sed1-123_2016	Sediment	"River sediment"	2016	11	9				"Cloudy with occasional rain"	Asia	Japan	"Mouth of Riv. Yamato (Sakai City), Osaka"	34.60833333		135.4325																																										"n=3 pooled: SAA004107, SAA004108 and SAA004109"	2018/10/05	2018/10/05
PRA000076	SAA004325	ST024				OsakaCity_sed2-123_2016	Sediment	"River sediment"	2016	10	26					Asia	Japan	"Kema-bashi Bridge, Riv. Oh (Osaka City), Osaka"	34.717760		135.519610																																										"n=3 pooled: SAA004322, SAA004323 and SAA004324"	2018/10/05	2018/10/05
PRA000076	SAA004329	ST024				OsakaCity_sed3-123_2016	Sediment	"River sediment"	2016	10	25				Cloudy	Asia	Japan	"Mouth of Riv. Yodo, Osaka"	34.67638889		135.3975																																										"n=3 pooled: SAA004326, SAA004327 and SAA004328"	2018/10/5	2018/10/5
PRA000076	SAA004330	ST023				OsakaCity_sed1-123_2016	Sediment	"Marine sediment"	2016	10	25				Cloudy	Asia	Japan	"Osaka Port, Osaka"	34.65861111		135.4313889																																										"n=3 pooled: SAA004110, SAA004111 and SAA004112"	2018/10/5	2018/10/5
PRA000076	SAA004334	ST023				OsakaCity_sed4-123_2016	Sediment	"Marine sediment"	2016	10	25				Cloudy	Asia	Japan	"Outside of Osaka Port, Osaka"	34.64027778		135.3858333																																										"n=3 pooled: SAA004331, SAA004332 and SAA004333"	2018/10/5	2018/10/5
PRA000076	SAA004335	ST023				Hyogo_sed1-123_2016	Sediment	"Marine sediment"	2016	10	18				Fair	Asia	Japan	"Offshore of Himeji, Hyogo"	34.76194444		134.6697222																																										"n=3 pooled: SAA004198, SAA004199 and SAA004200"	2018/10/5	2018/10/5
PRA000076	SAA004336	ST023				Hyogo_sed2-123_2016	Sediment	"Marine sediment"	2016	11	1				Fair	Asia	Japan	"Center of Kobe Port, Hyogo"	34.66444444		135.1944444																																										"n=3 pooled: SAA004201, SAA004202 and SAA004203"	2018/10/5	2018/10/5
PRA000076	SAA004340	ST024				Nara_sed1_123_2016	Sediment	"River sediment"	2016	10	19				Fair	Asia	Japan	"Taisho-bashi Bridge, Riv. Yamato (Oji town), Nara"	34.58583333		135.6833333																																										"n=3 pooled: SAA004337, SAA004338 and SAA004339"	2018/10/05	2018/10/05
PRA000076	SAA004344	ST024				Wakayama_sed1-123_2016	Sediment	"River sediment"	2016	10	19				Cloudy	Asia	Japan	"Kinokawa-ohashi Bridge, Mouth of Riv. Kinokawa (Wakayama City), Wakayama"	34.23		135.1561111																																										"n=3 pooled: SAA004341, SAA004342 and SAA004343"	2018/10/5	2018/10/5
PRA000076	SAA004345	ST023				Okayama_sed1-123_2016	Sediment	"Marine sediment"	2016	10	26				Cloudy	Asia	Japan	"Offshore of Mizushima, Okayama"	34.48055556		133.665																																										"n=3 pooled: SAA004113, SAA004114 and SAA004115"	2018/10/5	2018/10/5
PRA000076	SAA004349	ST023				Hiroshima_sed1-123_2016	Sediment	"Marine sediment"	2016	11	7				Fair	Asia	Japan	"Kure Port, Hiroshima"	34.23361111		132.5391667																																										"n=3 pooled: SAA004346, SAA004347 and SAA004348"	2018/10/5	2018/10/5
PRA000076	SAA004353	ST023				Hiroshima_sed2-123_2016	Sediment	"Marine sediment"	2016	11	7				Fair	Asia	Japan	"Hiroshima Bay (Hiroshima City), Hiroshima"	34.34833333		132.4225																																										"n=3 pooled: SAA004350, SAA004351 and SAA004352"	2018/10/05	2018/10/05
PRA000076	SAA004354	ST023				Yamaguchi_sed1-123_2016	Sediment	"Marine sediment"	2016	10	14				Cloudy	Asia	Japan	"Tokuyama Bay, Yamaguchi"	33.99361111		131.7505556																																										"n=3 pooled: SAA004204, SAA004205 and SAA004206"	2018/10/5	2018/10/5
PRA000076	SAA004358	ST023				Yamaguchi_sed2-123_2016	Sediment	"Marine sediment"	2016	11	16				Fair	Asia	Japan	"Offshore of Ube, Yamaguchi"	33.915		131.1975																																										"n=3 pooled: SAA004355, SAA004356 and SAA004357"	2018/10/5	2018/10/5
PRA000076	SAA004359	ST023				Yamaguchi_sed3-123_2016	Sediment	"Marine sediment"	2016	11	4				Fair	Asia	Japan	"Offshore of Hagi, Yamaguchi"	34.43805556		131.3794444																																										"n=3 pooled:SAA004207, SAA004208 and SAA004209"	2018/10/5	2018/10/5
PRA000076	SAA004363	ST024				Tokushima_sed1-123_2016	Sediment	"River sediment"	2016	10	19				"Slightly cloudy"	Asia	Japan	"Mouth of Riv. Yoshino (Tokushima City), Tokushima"	34.085		134.5913889																																										"n=3 pooled: SAA004360, SAA004361 and SAA004362"	2018/10/05	2018/10/05
PRA000076	SAA004364	ST023				Kagawa_sed1-123_2016	Sediment	"Marine sediment"	2016	10	4				Cloudy	Asia	Japan	"Takamatsu Port, Kagawa"	34.34972222		134.0788889																																										"n=3 pooled: SAA004210, SAA004211 and SAA004212"	2018/10/5	2018/10/5
PRA000076	SAA004368	ST023				Ehime_sed1-123_2016	Sediment	"Marine sediment"	2016	10	25				Fair	Asia	Japan	"Niihama Port, Ehime"	33.98777778		133.3144444																																										"n=3 pooled: SAA004365, SAA004366 and SAA004367"	2018/10/5	2018/10/5
PRA000076	SAA004372	ST024				Kochi_sed1-123_2016	Sediment	"River sediment"	2016	10	14				Cloudy	Asia	Japan	"Mouth of Riv. Shimanto (Shimanto City), Kochi"	32.93777778		132.8441667																																										"n=3 pooled: SAA004369, SAA004370 and SAA004371"	2018/10/05	2018/10/05
PRA000076	SAA004376	ST023				KitakyushuCity_sed1-123_2016	Sediment	"Marine sediment"	2016	10	18				Fair	Asia	Japan	"Dokai Bay (Kitakyushu City), Fukuoka"	33.90388889		130.8158333																																										"n=3 pooled: SAA004373, SAA004374 and SAA004375"	2018/10/05	2018/10/05
PRA000076	SAA004377	ST023				FukuokaCity_sed1-123_2016	Sediment	"Marine sediment"	2016	10	18				Fair	Asia	Japan	"Hakata Bay, Fukuoka"	33.60833333		130.3297222																																										"n=3 pooled: SAA004119, SAA004120 and SAA004121"	2018/10/5	2018/10/5
PRA000076	SAA004381	ST023				Saga_sed1-123_2016	Sediment	"Marine sediment"	2016	10	26				Cloudy	Asia	Japan	"Imari Bay, Saga"	33.34		129.8208333																																										"n=3 pooled: SAA004378, SAA004379 and SAA004380"	2018/10/5	2018/10/5
PRA000076	SAA004385	ST023				Nagasaki_sed1-123_2016	Sediment	"Marine sediment"	2016	12	15				Cloudy	Asia	Japan	"Omura Bay, Nagasaki"	32.98833333		129.8522222																																										"n=3 pooled: SAA004382, SAA004383 and SAA004384"	2018/10/5	2018/10/5
PRA000076	SAA004386	ST024				Oita_sed1-123_2016	Sediment	"River sediment"	2016	10	31				Cloudy	Asia	Japan	"Mouth of Riv. Oita, Oita"	33.25722222		131.6175																																										"n=3 pooled: SAA004213, SAA004214 and SAA004215"	2018/10/5	2018/10/5
PRA000076	SAA004390	ST024				Miyazaki_sed1-123_2016	Sediment	"River sediment"	2016	10	31				Cloudy	Asia	Japan	"Mouth of Riv. Oyodo (Miyazaki City), Miyazaki"	31.89611111		131.4402778																																										"n=3 pooled: SAA004387, SAA004388 and SAA004389"	2018/10/05	2018/10/05
PRA000076	SAA004394	ST024				Kagoshima_sed1-123_2016	Sediment	"River sediment"	2016	11	17				Fair	Asia	Japan	"Riv. Amori (Kirishima City), Kagoshima"	31.7225		130.7416667																																										"n=3 pooled: SAA004391, SAA004392 and SAA004393"	2018/10/05	2018/10/05
PRA000076	SAA004398	ST024				Kagoshima_sed2-123_2016	Sediment	"River sediment"	2016	10	31				Cloudy	Asia	Japan	"Gotanda-bashi Bridge, Riv. Gotanda (Ichikikushikino City), Kagoshima"	31.72583333		130.2769444																																										"n=3 pooled: SAA004395, SAA004396 and SAA004397"	2018/10/05	2018/10/05
PRA000076	SAA004402	ST023				Okinawa_sed1-123_2016	Sediment	"Marine sediment"	2016	10	27				Fair	Asia	Japan	"Naha Port, Okinawa"	26.21222222		127.665																																										"n=3 pooled: SAA004399, SAA004400 and SAA004401"	2018/10/5	2018/10/5
PRA000079	SAA004498	ST023				TP-1_53	Sediment	"Sediment Core"	2002	6	6					Asia	Japan	"Tokyo Bay"	35.58666667		139.8783333						17.65	"g wet"															13				"0 - 0.05"						81	12.3									"Ignition loss(%):at 600 ℃, 2h; Depositional age (year)(by <sup>210</sup>Pb method): 1998; Bulk dens(g/cm3): 1.11"	2018/11/8	2018/11/8
PRA000079	SAA004499	ST023				TP-1_56	Sediment	"Sediment Core"	2002	6	6					Asia	Japan	"Tokyo Bay"	35.58666667		139.8783333						15.86	"g wet"															13				"0.05 - 0.1"						73.8	11.3									"Ignition loss(%):at 600 ℃, 2h; Depositional age (year)(by <sup>210</sup>Pb method): 1989; Bulk dens(g/cm3): 11.16"	2018/11/8	2018/11/8
PRA000079	SAA004500	ST023				TP-1_59	Sediment	"Sediment Core"	2002	6	6					Asia	Japan	"Tokyo Bay"	35.58666667		139.8783333						15.7	"g wet"															13				"0.1 - 0.15"						73.9	10.8									"Ignition loss(%):at 600 ℃, 2h; Depositional age (year)(by <sup>210</sup>Pb method): 1979; Bulk dens(g/cm3): 11.17"	2018/11/8	2018/11/8
PRA000079	SAA004501	ST023				TP-1_62	Sediment	"Sediment Core"	2002	6	6					Asia	Japan	"Tokyo Bay"	35.58666667		139.8783333						16.7	"g wet"															13				"0.15 - 0.2"						70.9	9.7									"Ignition loss(%):at 600 ℃, 2h; Depositional age (year)(by <sup>210</sup>Pb method): 1968; Bulk dens(g/cm3): 11.19"	2018/11/8	2018/11/8
PRA000079	SAA004502	ST023				TP-1_67	Sediment	"Sediment Core"	2002	6	6					Asia	Japan	"Tokyo Bay"	35.58666667		139.8783333						16.36	"g wet"															13				"0.25 - 0.3"						67.9	8.2									"Ignition loss(%):at 600 ℃, 2h; Depositional age (year)(by <sup>210</sup>Pb method): 1943; Bulk dens(g/cm3): 11.22"	2018/11/8	2018/11/8
PRA000079	SAA004503	ST023				TP-1_69	Sediment	"Sediment Core"	2002	6	6					Asia	Japan	"Tokyo Bay"	35.58666667		139.8783333						16	"g wet"															13				"0.3 - 0.35"						66.5	7.8									"Ignition loss(%):at 600 ℃, 2h; Depositional age (year)(by <sup>210</sup>Pb method): 1930; Bulk dens(g/cm3): 11.23"	2018/11/8	2018/11/8
PRA000079	SAA004504	ST023				TP-1_71	Sediment	"Sediment Core"	2002	6	6					Asia	Japan	"Tokyo Bay"	35.58666667		139.8783333						17.25	"g wet"															13				"0.35 - 0.4"						65.4	7.8									"Ignition loss(%):at 600 ℃, 2h; Depositional age (year)(by <sup>210</sup>Pb method): 1915; Bulk dens(g/cm3): 11.23"	2018/11/8	2018/11/8
PRA000079	SAA004505	ST023				TP-4_106	Sediment	"Sediment Core"	2002	6	6					Asia	Japan	"Tokyo Bay"	35.545		139.9133333																						20				"0 - 0.05"						84.5	13.8									"Ignition loss(%):at 600 ℃, 2h; Depositional age (year)(by <sup>210</sup>Pb method): 2000; Bulk dens(g/cm3): 11.09"	2018/11/8	2018/11/8
PRA000079	SAA004506	ST023				TP-4_109	Sediment	"Sediment Core"	2002	6	6					Asia	Japan	"Tokyo Bay"	35.545		139.9133333																						20				"0.05 - 0.1"						77.9	12.5									"Ignition loss(%):at 600 ℃, 2h; Depositional age (year)(by <sup>210</sup>Pb method): 1995; Bulk dens(g/cm3): 11.14"	2018/11/8	2018/11/8
PRA000079	SAA004507	ST023				TP-4_111	Sediment	"Sediment Core"	2002	6	6					Asia	Japan	"Tokyo Bay"	35.545		139.9133333																						20				"0.1 - 0.15"						77.4	12.2									"Ignition loss(%):at 600 ℃, 2h; Depositional age (year)(by <sup>210</sup>Pb method): 1988; Bulk dens(g/cm3): 11.14"	2018/11/8	2018/11/8
PRA000079	SAA004508	ST023				TP-4_116	Sediment	"Sediment Core"	2002	6	6					Asia	Japan	"Tokyo Bay"	35.545		139.9133333																						20				"0.15 - 0.2"						77.3	11.9									"Ignition loss(%):at 600 ℃, 2h; Depositional age (year)(by <sup>210</sup>Pb method): 1982; Bulk dens(g/cm3): 11.14"	2018/11/8	2018/11/8
PRA000079	SAA004509	ST023				TP-4_118	Sediment	"Sediment Core"	2002	6	6					Asia	Japan	"Tokyo Bay"	35.545		139.9133333																						20				"0.2 - 0.25"						76.4	10.7									"Ignition loss(%):at 600 ℃, 2h; Depositional age (year)(by <sup>210</sup>Pb method): 1975; Bulk dens(g/cm3): 11.15"	2018/11/8	2018/11/8
PRA000079	SAA004510	ST023				TP-4_119	Sediment	"Sediment Core"	2002	6	6					Asia	Japan	"Tokyo Bay"	35.545		139.9133333																						20				"0.25 - 0.3"						76.6	11									"Ignition loss(%):at 600 ℃, 2h; Depositional age (year)(by <sup>210</sup>Pb method): 1968; Bulk dens(g/cm3): 11.15"	2018/11/8	2018/11/8
PRA000079	SAA004511	ST023				TP-4_121	Sediment	"Sediment Core"	2002	6	6					Asia	Japan	"Tokyo Bay"	35.545		139.9133333																						20				"0.3 - 0.35"						73.8	10.1									"Ignition loss(%):at 600 ℃, 2h; Depositional age (year)(by <sup>210</sup>Pb method): 1961; Bulk dens(g/cm3): 11.18"	2018/11/8	2018/11/8
PRA000079	SAA004512	ST023				TP-4_126	Sediment	"Sediment Core"	2002	6	6					Asia	Japan	"Tokyo Bay"	35.545		139.9133333																						20				"0.4 - 0.45"						75.3	9.9									"Ignition loss(%):at 600 ℃, 2h; Depositional age (year)(by <sup>210</sup>Pb method): 1945; Bulk dens(g/cm3): 11.16"	2018/11/8	2018/11/8
PRA000079	SAA004513	ST023				TP-5_29	Sediment	"Sediment Core"	2002	6	5					Asia	Japan	"Tokyo Bay"	35.52833333		139.9783333						15.25	"g wet"															19				"0 - 0.05"						81.9	12.4									"Ignition loss(%):at 600 ℃, 2h; Depositional age (year)(by <sup>210</sup>Pb method): 1999; Bulk dens(g/cm3): 11.12"	2018/11/8	2018/11/8
PRA000079	SAA004514	ST023				TP-5_30	Sediment	"Sediment Core"	2002	6	5					Asia	Japan	"Tokyo Bay"	35.52833333		139.9783333						15.03	"g wet"															19				"0.05 - 0.1"						76.2	12.2									"Ignition loss(%):at 600 ℃, 2h; Depositional age (year)(by <sup>210</sup>Pb method): 1992; Bulk dens(g/cm3): 11.16"	2018/11/8	2018/11/8
PRA000079	SAA004515	ST023				TP-5_35	Sediment	"Sediment Core"	2002	6	5					Asia	Japan	"Tokyo Bay"	35.52833333		139.9783333						15.16	"g wet"															19				"0.1 - 0.15"						75.1	11.3									"Ignition loss(%):at 600 ℃, 2h; Depositional age (year)(by <sup>210</sup>Pb method): 1984; Bulk dens(g/cm3): 11.17"	2018/11/8	2018/11/8
PRA000079	SAA004516	ST023				TP-5_36	Sediment	"Sediment Core"	2002	6	5					Asia	Japan	"Tokyo Bay"	35.52833333		139.9783333						15.12	"g wet"															19				"0.15 - 0.2"						74.6	11.2									"Ignition loss(%):at 600 ℃, 2h; Depositional age (year)(by <sup>210</sup>Pb method): 1975; Bulk dens(g/cm3): 11.17"	2018/11/8	2018/11/8
PRA000079	SAA004517	ST023				TP-5_39	Sediment	"Sediment Core"	2002	6	5					Asia	Japan	"Tokyo Bay"	35.52833333		139.9783333						15.92	"g wet"															19				"0.2 - 0.25"						71.1	9.9									"Ignition loss(%):at 600 ℃, 2h; Depositional age (year)(by <sup>210</sup>Pb method): 1966; Bulk dens(g/cm3): 11.2"	2018/11/8	2018/11/8
PRA000079	SAA004518	ST023				TP-5_43	Sediment	"Sediment Core"	2002	6	5					Asia	Japan	"Tokyo Bay"	35.52833333		139.9783333						15.41	"g wet"															19				"0.3 - 0.35"						67.9	9									"Ignition loss(%):at 600 ℃, 2h; Depositional age (year)(by <sup>210</sup>Pb method): 1945; Bulk dens(g/cm3): 11.24"	2018/11/8	2018/11/8
PRA000079	SAA004519	ST023				TP-5_45	Sediment	"Sediment Core"	2002	6	5					Asia	Japan	"Tokyo Bay"	35.52833333		139.9783333						15.22	"g wet"															19				"0.35 - 0.4"						66.7	8.5									"Ignition loss(%):at 600 ℃, 2h; Depositional age (year)(by <sup>210</sup>Pb method): 1933; Bulk dens(g/cm3): 11.25"	2018/11/8	2018/11/8
PRA000079	SAA004520	ST023				TP-7	Sediment	"Sediment Core"	2002	6	6					Asia	Japan	"Tokyo Bay"	35.46333333		139.7816667						20.94	"g wet"															33				"0 - 0.05"						79.3	12									"Ignition loss(%):at 600 ℃, 2h; Only surface layer was analyzed in this study."	2018/11/8	2018/11/8
PRA000079	SAA004521	ST023				TP-8	Sediment	"Sediment Core"	2002	6	6					Asia	Japan	"Tokyo Bay"	35.42833333		139.845						20.29	"g wet"															25				"0 - 0.05"						71.6	10									"Ignition loss(%):at 600 ℃, 2h; Only surface layer was analyzed in this study."	2018/11/8	2018/11/8
PRA000079	SAA004522	ST023				T-2	Sediment	"Marine sediment"	2002	10	22					Asia	Japan	"Tokyo Bay"	35.38833333		139.7266667						14.4	"g wet"															19				"0 - 0.05"						21.1	3.9									"Ignition loss(%):at 600 ℃, 2h; "	2018/11/8	2018/11/8
PRA000079	SAA004523	ST023				T-3	Sediment	"Marine sediment"	2002	10	22					Asia	Japan	"Tokyo Bay"	35.305		139.7183333						15.61	"g wet"															45				"0 - 0.05"						39.2	5.3									"Ignition loss(%):at 600 ℃, 2h; "	2018/11/8	2018/11/8
PRA000079	SAA004524	ST023				T-4	Sediment	"Marine sediment"	2002	10	22					Asia	Japan	"Tokyo Bay"	35.24833333		139.7566667						16.24	"g wet"															31				"0 - 0.05"						31.9	5.1									"Ignition loss(%):at 600 ℃, 2h; "	2018/11/8	2018/11/8
PRA000079	SAA004525	ST023				T-5	Sediment	"Marine sediment"	2002	8	26					Asia	Japan	"Tokyo Bay"	35.15		139.7166667						15.79	"g wet"															185				"0 - 0.05"						50.7	6.8									"Ignition loss(%):at 600 ℃, 2h; "	2018/11/8	2018/11/8
PRA000099	SAA006757	ST029				Hokkaido_air2-1_2017	Air	"Outside air"	2017	10	17	2017-10-10T13:30/2017-10-17T13:30		"7days (Oct. 10_17)"	Cloudy/Fair	Asia	Japan	"Kushiro General Subprefectural Bureau, Kushiro city, Hokkaido"	42.97666667		144.385														13.2/11.4																								70/73	NNE/SW	"7.1/3.6 "	"1008 m^3"	"Air Sampler: Middle Volume; Weather during 7-day sampling:Cloudy, Cloudy, Rain, Fair, Fair, Fair, Fair; Wind direction: NNE, ENE, NNE, SW, S, W, SW, SW; Wind speed: 7.1, 3, 6.4, 8.5, 6.7, 12.5, 9.4, 3.6 "	2020/1/15	2020/1/15
PRA000099	SAA006761	ST029				SapporoCity_air1-123_2017H	Air	"Outside air"	2017	9		"2017-09-12/09-13; 09-13/09-14; 09-14/09-15"				Asia	Japan	"Sapporo Art Park, Sapporo city, Hokkaido"	42.93861111		141.3402778																																										"Air Sampler: High Volume; n=3 pooled: SAA006758, SAA006759, SAA006760"	2020/01/15	2020/01/15
PRA000099	SAA006765	ST029				Iwate_air1-123_2017H	Air	"Outside air"	2017	9		"2017-09-12/09-13; 09-13/09-14; 09-14/09-15"				Asia	Japan	"Sugo Air Pollution Monitoring Station, Takizawa city, Iwate"	39.78194444		141.1405556																																										"Air Sampler: High Volume; n=3 pooled: SAA006762, SAA006763, SAA006764"	2020/1/15	2020/1/15
PRA000099	SAA006766	ST029				Miyagi_air1-1_2017	Air	"Outside air"	2017	9	12	2017-09-05T10:15/2017-09-12T10:15		"7days (Sep. 05_12)"	Fair/Cloudy	Asia	Japan	"Miyagi Prefectural Institute of Public Health and Environment, Sendai City, Miyagi"	38.2775		140.9052778														24.1/23.0																								60/92	/SE	/0.4	"1008 m^3"	"Air Sampler: Middle Volume; Weather during 7-day sampling:Fair, Rain, Rain, Fair, - - Cloudy, Cloudy; Wind direction: -, SSE, NNE, NNW, - - SSE, SE; Wind speed: -, 0.9, 1.2, 1.6, - - 2.2, 0.4"	2020/1/15	2020/1/15
PRA000099	SAA006767	ST029				Yamagata_air1-1_2017	Air	"Outside air"	2017	8	30	2017-08-23T09:55/2017-08-30T09:55		"7days (Aug. 23_30)"	Cloudy/Cloudy	Asia	Japan	"Environmental Science Research Center of Yamagata Prefecture, Murayama city, Yamagata"	38.47361111		140.3988889														26.8/20.5																								70/85	ESE/NNW	1.4/0.8	"1008 m^3"	"Air Sampler: Middle Volume; Weather during 7-day sampling:Cloudy during 7-day sampling; Wind direction: ESE, S, NE, S, SW, SSE, Calm, NNW; Wind speed: 1.4, 3.3, 2.1, 2.0, 1.1, 0.8, 0.1, 0.8"	2020/1/15	2020/1/15
PRA000099	SAA006768	ST029				Ibaraki_air1-4_2017	Air	"Outside air"	2017	9	13	2017-09-06T09:55/2017-09-13T09:55		"7days (Sep. 06_13)"	Rain/Fair	Asia	Japan	"Ibaraki Kasumigaura Environmental Science Center, Tsuchiura city, Ibaraki"	36.07555556		140.2666667														21.4/28.7																								97/61	NNE/ESE	1.8/1.6	"1008 m^3"	"Air Sampler: Middle Volume; Weather during 7-day sampling:Rain, Cloudy, Cloudy, Fair, Cloudy, Fair, Rain, Fair; Wind direction: NNE, S, ENE, S, WSW, S, SW, ESE; Wind speed: 1.8, 2.1, 2.5, 1.5, 2.2, 2.9, 2.6, 1.6"	2020/1/15	2020/1/15
PRA000099	SAA006769	ST029				Chiba_air2-1_2017	Air	"Outside air"	2017	9	20	2017-09-13T10:30/2017-09-20T10:00		"7days (Sep. 13_20)"	Cloudy/Cloudy	Asia	Japan	"Ichiharamatsuzaki air pollution monitoring station, Ichihara city, Chiba"	35.44861111		140.1363889														28.2/24.5																								67/80	ESE/S	3.3/1.0	"1005 m^3"	"Air Sampler: Middle Volume; Weather during 7-day sampling:Cloudy, Fair, Cloudy, Rain, Rain, Fair, Cloudy, Cloudy; Wind direction: ESE, NNE, N, ENE, NE, WSW, ENE, S; Wind speed: 3.3, 2.8, 1.0, 3.0, 3.8, 4.4, 1.5, 1.0"	2020/1/15	2020/1/15
PRA000099	SAA006770	ST029				Tokyo_air1-4_2017	Air	"Outside air"	2017	9	26	2017-09-19T10:00/2017-09-26T10:00		"7days (Sep. 19_26)"	Fair/Fair	Asia	Japan	"Tokyo Metropolitan Research Institute for Environmental Protection, Koto Ward, Tokyo"	35.66833333		139.8241667														26.0/24.4																								60/73	NE/NE	1.2/2.3	"1013 m^3"	"Air Sampler: Middle Volume; Weather during 7-day sampling:Fair, Cloudy, Slightly cloudy, Cloudy, Cloudy, Fair, Fair, Fair; Wind direction: NE, W, NW, E, NE, S, W, NE; Wind speed: 1.2, 2.1, 5.0, 2.2, 2.7, 0.8, 1.0, 2.3"	2020/1/15	2020/1/15
PRA000099	SAA006771	ST029				Tokyo_air2-4_2017	Air	"Outside air"	2017	10	13	2017-10-06T09:50/2017-10-13T09:54		"7days (Oct. 06_13)"	Fair/Fair	Asia	Japan	"Ogasawara Chichijima, Ogasawara Village, Tokyo"	27.09361111		142.2161111														29.4/29.0																								81/76	ENE/SE	3.8/3.9	"1008 m^3"	"Air Sampler: Middle Volume; Weather during 7-day sampling: Fair, Fair, Fair, Cloudy, Fair, Fair, Fair, Fair; Wind direction: ENE, SE, ENE, ENE, NE, NE, E, SE; Wind speed: 3.8, 3.9, 3.2, 4.4, 6.5, 4.2, 2.6, 3.9"	2020/1/15	2020/1/15
PRA000099	SAA006775	ST029				Kanagawa_air1-456_2017H	Air	"Outside air"	2017	9		"2017-09-05/09-06; 09-06/09-07; 09-07/09-08"				Asia	Japan	"Kanagawa Environmental Research Center, Hiratsuka City, Kanagawa"	35.3475		139.3513889																																										"Air Sampler: High Volume; n=3 pooled: SAA006772, SAA006773, SAA006774"	2020/1/15	2020/1/15
PRA000099	SAA006776	ST029				YokohamaCity_air1-4_2017	Air	"Outside air"	2017	9	22	2017-09-15T10:30/2017-09-22T10:30		"7days (Sep. 15_22)"	"Cloudy/Cloudy, occasionally rain"	Asia	Japan	"Yokohama Environmental Research Institute, Yokohama city, Kanagawa"	35.48111111		139.6580556														27.3/24.9																								41/65	NNE/N	3.7/2.8	"1008 m^3"	"Air Sampler: Middle Volume; Weather during 7-day sampling: Cloudy, Rain occasionally cloudy, Rain occasionally rain, Fair& cloudy, Cloudy, Fair & cloudy, Cloudy occasionally fair; Wind direction: NNE, N, N, WSW, ENE, WNW, NNW, N; Wind speed: 3.7, 2.0, 7.1, 6.5, 3.2, 1.7, 2.2, 2.8"	2020/1/15	2020/1/15
PRA000099	SAA006780	ST029				Niigata_air1-123_2017H	Air	"Outside air"	2017	8		"2017-08-22/08-23; 08-23/08-24; 08-24/08-25"				Asia	Japan	"Oyama Air Pollution Monitoring Station, Niigata city, Niigata"	37.93611111		139.0794444																																										"Air Sampler: High Volume; n=3 pooled: SAA006777, SAA006778, SAA006779"	2020/1/15	2020/1/15
PRA000099	SAA006784	ST029				Toyama_air1-123_2017H	Air	"Outside air"	2017	9		"2017-09-19/09-20; 09-20/09-21; 09-21/09-22"				Asia	Japan	"Tonami Air Pollution Monitoring Station, Tonami city, Toyama"	36.62888889		136.9886111																																										"Air Sampler: High Volume; n=3 pooled: SAA006781, SAA006782, SAA006783"	2020/1/15	2020/1/15
PRA000099	SAA006788	ST029				Ishikawa_air1-789_2017H	Air	"Outside air"	2017	9		"2017-09-05/09-06; 09-06/09-07; 09-07/09-08"				Asia	Japan	"Ishikawa Prefectural Institute of Public Health and Environmental Science, Kanazawa City, Ishikawa"	36.52722222		136.7055556																																										"Air Sampler: High Volume; n=3 pooled: SAA006785, SAA006786, SAA006787"	2020/1/15	2020/1/15
PRA000099	SAA006792	ST029				Yamanashi_air1-123_2017H	Air	"Outside air"	2017	9		"2017-09-12/09-13; 09-13/09-14; 09-14/09-15"				Asia	Japan	"Yamanashi Institute of Public Health and Environment, Kofu city, Yamanashi"	35.67194444		138.5497222																																										"Air Sampler: High Volume; n=3 pooled: SAA006789, SAA006790, SAA006791"	2020/1/15	2020/1/15
PRA000099	SAA006793	ST029				Nagano_air1-4_2017	Air	"Outside air"	2017	9	27	2017-09-20T10:02/2017-09-27T10:01		"7days (Sep. 20_27)"	Fair/Fair	Asia	Japan	"Nagano Environmental Conservation Research Institute, Nagano City, Nagano"	36.63555556		138.1786111														19.5/21.8																								72/71	WSW/W	1.7/2.4	"1008 m^3"	"Air Sampler: Middle Volume; Weather during 7-day sampling: Fair, Fair, Cloudy, Fair, Fair, Fair, Fair, Fair; Wind direction: WSW, ENE, W, WSW, SSE, SW, WSW, W; Wind speed: 1.7, 1.7, 2.8, 4.1, 1.8, 1.8, 1.9, 2.4"	2020/1/15	2020/1/15
PRA000099	SAA006797	ST029				Gifu_air1-123_2017H	Air	"Outside air"	2017	9		"2017-09-12/09-13; 09-13/09-14; 09-14/09-15"				Asia	Japan	"Gifu Prefectural Research Institute for Health and Environmental Sciences, Kakamigahara city, Gifu"	35.4075		136.8447222																																										"Air Sampler: High Volume; n=3 pooled: SAA006794, SAA006795, SAA006796"	2020/1/15	2020/1/15
PRA000099	SAA006798	ST029				NagoyaCity_air1-7_2017	Air	"Outside air"	2017	9	5	2017-08-29T10:52/2017-09-05T10:52		"7days (Aug. 29_Sep.05)"	Cloudy/Fair	Asia	Japan	"Chikusa-ku Heiwakoen Park, Nagoya City, Aichi"	35.17055556		136.9788889														28.7/25.0																								74/68	SW/SW	1.9/2.3	"1008 m^3"	"Air Sampler: Middle Volume; Weather during 7-day sampling: Cloudy, Fair, Fair later cloudy, Fair, Fair, Fair, Cloudy, Cloudy occasionally fair; Wind direction: SW, NW, WNW, WNW, WNW, WNW, N, SW; Wind speed: 1.9, 3.0, 4.4, 3.7, 4.0, 3.9, 2.1, 2.3"	2020/1/15	2020/1/15
PRA000099	SAA006802	ST029				Mie_air1-789_2017H	Air	"Outside air"	2017	9		"2017-09-19/09-20; 09-20/09-21; 09-21/09-22"				Asia	Japan	"Mie Prefecture Health and Environment Research Institute, Yokkaichi city, Mie"	34.99166667		136.4855556																																										"Air Sampler: High Volume; n=3 pooled: SAA006799, SAA006800, SAA006801"	2020/1/15	2020/1/15
PRA000099	SAA006806	ST029				Kyoto_air1-456_2017H	Air	"Outside air"	2017	10		"2017-10-03/10-04; 10-04/10-05; 10-05/10-06"				Asia	Japan	"Kyoto Prefectural Joyo High School, Joyo city, Kyoto"	34.85305556		135.79																																										"Air Sampler: High Volume; n=3 pooled: SAA006803, SAA006804, SAA006805"	2020/1/15	2020/1/15
PRA000099	SAA006810	ST029				Osaka_air1-456_2017H	Air	"Outside air"	2017	9		"2017-09-19/09-20; 09-20/09-21; 09-21/09-22"				Asia	Japan	"Osaka Joint government building No.2 Annex, Osaka city, Osaka"	34.6825		135.5191667																																										"Air Sampler: High Volume; n=3 pooled: SAA006807, SAA006808, SAA006809"	2020/1/15	2020/1/15
PRA000099	SAA006814	ST029				Hyogo_air1-123_2017H	Air	"Outside air"	2017	9		"2017-08-29/08-30; 08-30/08-31; 08-31/09-01"				Asia	Japan	"Hyogo Prefectural Institute of Environmental Sciences, Kobe city, Hyogo"	34.64916667		135.1316667																																										"Air Sampler: High Volume; n=3 pooled: SAA006811, SAA006812, SAA006813"	2020/1/15	2020/1/15
PRA000099	SAA006818	ST029				KobeCity_air1-123_2017H	Air	"Outside air"	2017	9		"2017-09-12/09-13; 09-13/09-14; 09-14/09-15"				Asia	Japan	"Kobe City Hall, Kobe city, Hyogo"	34.68972222		135.195																																										"Air Sampler: High Volume; n=3 pooled: SAA006815, SAA006816, SAA006817"	2020/1/15	2020/1/15
PRA000099	SAA006822	ST029				Nara_air1-123_2017H	Air	"Outside air"	2017	8		"2017-08-22/08-23; 08-23/08-24; 08-24/08-25"				Asia	Japan	"Tenri Air Pollution Monitoring Station, Tenri city, Nara"	34.59333333		135.8291667																																										"Air Sampler: High Volume; n=3 pooled: SAA006819, SAA006820, SAA006821"	2020/1/15	2020/1/15
PRA000099	SAA006826	ST029				Shimane_air1-123_2017H	Air	"Outside air"	2017	9		"2017-09-26/09-27; 09-27/9-28; 09-28/09-29"				Asia	Japan	"Oki Acid Rain Monitoring Station, Okinoshima town, Shimane"	36.28833333		133.1825																																										"Air Sampler: High Volume; n=3 pooled: SAA006823, SAA006824, SAA006825"	2020/1/15	2020/1/15
PRA000099	SAA006830	ST029				HiroshimaCity_air1-123_2017H	Air	"Outside air"	2017	9		"2017-09-12/09-13; 09-13/09-14; 09-14/09-15"				Asia	Japan	"Kokutaiji Junior high school, Hiroshima city, Hiroshima"	34.38472222		132.4580556																																										"Air Sampler: High Volume; n=3 pooled: SAA006827, SAA006828, SAA006829"	2020/1/15	2020/1/15
PRA000099	SAA006831	ST029				Yamaguchi_air1-7_2017	Air	"Outside air"	2017	9	26	2017-09-19T10:00/2017-09-26T10:00		"7days (Sep. 19_26)"	Cloudy/Fair	Asia	Japan	"Yamaguchi Prefectural Institute of Public Health and Environment, Yamaguchi City, Yamaguchi"	34.15305556		131.4336111														23.1/23.5																								77/71	ESE/SE	0.5/0.7	"1009 m^3"	"Air Sampler: Middle Volume; Weather during 7-day sampling: Cloudy, Cloudy, Fair, Cloudy, Cloudy, Cloudy, Fair, Fair; Wind direction: ESE, SSE, ESE, SW, S, SE, SE, SE; Wind speed: 0.5, 0.8, 0.8, 1.3, 1.1, 0.9, 0.7, 0.7"	2020/1/15	2020/1/15
PRA000099	SAA006832	ST029				Yamaguchi_air2-1_2017	Air	"Outside air"	2017	9	26	2017-09-19T10:01/2017-09-26T10:07		"7days (Sep. 19_26)"	Cloudy/Fair	Asia	Japan	"Hagi Uragami Museum, Hagi city, Yamaguchi"	34.40888889		131.3938889														25.6/26.2																								71/53	SSW/SSW	1.4/2.1	"1009 m^3"	"Air Sampler: Middle Volume; Weather during 7-day sampling: Cloudy, Cloudy, Fair, Cloudy, Cloudy, Cloudy, Fair, Fair; Wind direction: SSW, S, NNW, S, SW, SSE, SE, SSW; Wind speed: 1.4, 3, 1.9, 2.7, 1.2, 2.4, 1.4, 2.1"	2020/1/15	2020/1/15
PRA000099	SAA006836	ST029				Tokushima_air1-456_2017H	Air	"Outside air"	2017	9		"2017-09-26/09-27; 09-27/9-28; 09-28/09-29"				Asia	Japan	"Tokushima Prefectural Public health, Pharmaceutical and Environmental Sciences Center, Tokushima city, Tokushima"	34.07		134.5608333																																										"Air Sampler: High Volume; n=3 pooled: SAA006833, SAA006834, SAA006835"	2020/1/15	2020/1/15
PRA000099	SAA006837	ST029				Kagawa_air1-7_2017	Air	"Outside air"	2017	10	4	2017-09-27T10:27/2017-10-04T10:26		"7days(Sep. 27_Oct.04)"	"Cloudy occasionally rain/Fair occasionally cloudy"	Asia	Japan	"Kagawa Pref. Synthesis Swimming Pool, Takamatsu City, Kagawa"	34.30861111		133.9802778														26.7/19.3																								57/56	SSE/NNE	2.4/2.6	"1008 m^3"	"Air Sampler: Middle Volume; Weather during 7-day sampling: Coudy occasionally rain, Cloudy occasionally rain, Fair; Fair; Cloudy, Rain, Cloudy, Fair occasionally cloudy; Wind direction: SSE, WSW, N, WSW, E, NE, NNW, NNE; Wind speed: 2.4, 2.3, 1.7, 1.3, 3.2, 0.4, 1.3, 2.6"	2020/1/15	2020/1/15
PRA000099	SAA006841	ST029				Ehime_air1-123_2017H	Air	"Outside air"	2017	8		"2017-08-22/08-23; 08-23/08-24; 08-24/08-25"				Asia	Japan	"Nanyo General Subprefectural Bureau, Uwajima city, Ehime"	33.22722222		132.57																																										"Air Sampler: High Volume; n=3 pooled: SAA006838, SAA006839, SAA006840"	2020/1/15	2020/1/15
PRA000099	SAA006845	ST029				Fukuoka_air1-456_2017H	Air	"Outside air"	2017	9		"2017-09-25/09-26; 09-26/09-27; 09-27/09-28"				Asia	Japan	"Omuta municipal office, Omuta city, Fukuoka"	33.03027778		130.4458333																																										"Air Sampler: High Volume; n=3 pooled: SAA006842, SAA006843, SAA006844"	2020/1/15	2020/1/15
PRA000099	SAA006846	ST029				Saga_air1-4_2017	Air	"Outside air"	2017	9	26	2017-09-19T10:00/2017-09-26T10:00		"7days(Sep. 19_26)"	Cloudy/Fair	Asia	Japan	"Saga Prefectural Environmental Research Center, Saga city, Saga"	33.27333333		130.2727778														23.4/24.1																								81/67	NW/NNE	0.4/2.0	"1008 m^3"	"Air Sampler: Middle Volume; Weather during 7-day sampling: Coudy, Cloudy, Cloudy, Cloudy & Rain, Fair, Cloudy, Fair, Fair; Wind direction: NW, SSE, S, ENE, WNW, SSE, E, NNE; Wind speed: 0.4, 1.6, 1.4, 3.7, 1.8, 0.3, 2.0, 2.0"	2020/1/15	2020/1/15
PRA000099	SAA006850	ST029				Kumamoto_air1-123_2017H	Air	"Outside air"	2017	10		"2017-10-03/10-04; 10-04/10-05; 10-05/10-06"				Asia	Japan	"Kumamoto Prefectural Institute of Public-Health and Environmental Science, Uto city, Kumamoto"	32.66583333		130.6530556																																										"Air Sampler: High Volume; n=3 pooled: SAA006847, SAA006848, SAA006849"	2020/1/15	2020/1/15
PRA000099	SAA006851	ST029				Miyazaki_air1-1_2017	Air	"Outside air"	2017	9	12	2017-09-05T09:55/2017-09-12T09:55		"7days(Sep. 05_12)"	Rain/Cloudy	Asia	Japan	"Miyazaki Prefectural Institute for Public Health and Environment, Miyazaki city, Miyazaki"	31.83305556		131.4152778														22.7/28.2																								96/79	NNE/W	5.3/5.7	"1008 m^3"	"Air Sampler: Middle Volume; Weather during 7-day sampling: Rain, Fair, Thunder, Cloudy, Fair, Fair, Cloudy, Cloudy; Wind direction: NNE, W, WSW, E, ENE, NNW, E, W; Wind speed: 5.3, 2.4, 4.7, 3.6, 3.4, 1.2, 1.6, 5.7"	2020/1/15	2020/1/15
PRA000099	SAA006855	ST029				Kagoshima_air1-123_2017H	Air	"Outside air"	2017			"2017-08-29/08-30; 08-30/08-31; 08-31/09-01"				Asia	Japan	"Kagoshima Prefectural Institute for Environmental Research and Public Health, Kagoshima city, Kagoshima"	31.58444444		130.5644444																																										"Air Sampler: High Volume; n=3 pooled: SAA006852, SAA006853, SAA006854"	2020/1/15	2020/1/15
PRA000099	SAA006859	ST029				Okinawa_air1-123_2017H	Air	"Outside air"	2017	8		"2017-08-28/08-29; 08-29/08-30; 08-30/08-31"				Asia	Japan	"Cape Hedo-misaki, Kunigami villedge, Okinawa"	26.87		128.25																																										"Air Sampler: High Volume; n=3 pooled: SAA006856, SAA006857, SAA006858"	2020/1/15	2020/1/15
PRA000111	SAA007595	ST004	103596	es-BANK	EW00086	820106-13	"Peponocephala electra"	"Melon-headed whale"	1982	1						Asia	Japan	"Aoshima, Miyazaki"	31.45	32.73333333	131.9163889	132.5502778	Male	Blubber	58		144.2	kg	236	cm	"Body length"	Immature	"12.5 y.o."																														"This sample is out of the same speciman as SAA002113."	2021/1/4	2021/1/4
PRA000111	SAA007596	ST004	103596	es-BANK	EW00089	820106-16	"Peponocephala electra"	"Melon-headed whale"	1982	1						Asia	Japan	"Aoshima, Miyazaki"	31.45	32.73333333	131.9163889	132.5502778	Male	Blubber	58		211.7	kg	258	cm	"Body length"	Mature																															"This sample is out of the same speciman as SAA002109."	2021/1/4	2021/1/4
PRA000111	SAA007597	ST004	103596	es-BANK	EW00090	820106-17	"Peponocephala electra"	"Melon-headed whale"	1982	1						Asia	Japan	"Aoshima, Miyazaki"	31.45	32.73333333	131.9163889	132.5502778	Male	Blubber	69		198.4	kg	251	cm	"Body length"	Mature	"37.5 y.o."																														"This sample is out of the same speciman as SAA002110."	2021/1/4	2021/1/4
PRA000111	SAA007598	ST004	103596	es-BANK	EW00091	820106-18	"Peponocephala electra"	"Melon-headed whale"	1982	1						Asia	Japan	"Aoshima, Miyazaki"	31.45	32.73333333	131.9163889	132.5502778	Male	Blubber	62		175.6	kg	247.5	cm	"Body length"	Mature	"24.5 y.o."																														"This sample is out of the same speciman as SAA002111."	2021/1/4	2021/1/4
PRA000111	SAA007599	ST004	103596	es-BANK	EW00093	820106-20	"Peponocephala electra"	"Melon-headed whale"	1982	1						Asia	Japan	"Aoshima, Miyazaki"	31.45	32.73333333	131.9163889	132.5502778	Male	Blubber	63		196.5	kg	247	cm	"Body length"	Mature	"41.5 y.o."																														"This sample is out of the same speciman as SAA002112."	2021/1/4	2021/1/4
PRA000111	SAA007600	ST004	103596	es-BANK	EW00113	M32623	"Peponocephala electra"	"Melon-headed whale"	2001	2	12					Asia	Japan	"Hasaki, Ibaraki"	35.73184444	35.82913333	140.7697722	140.8939278	Male	Blubber	70				270	cm	"Body length"	Mature																															"This sample is out of the same speciman as SAA002119."	2021/1/4	2021/1/4
PRA000111	SAA007601	ST004	103596	es-BANK	EW00121	M32632	"Peponocephala electra"	"Melon-headed whale"	2001	2	14					Asia	Japan	"Hasaki, Ibaraki"	35.73184444	35.82913333	140.7697722	140.8939278	Male	Blubber	67				249	cm	"Body length"	Mature																															"This sample is out of the same speciman as SAA002123."	2021/1/4	2021/1/4
PRA000111	SAA007602	ST004	103596	es-BANK	EW00124	M32654	"Peponocephala electra"	"Melon-headed whale"	2001	3	12					Asia	Japan	"Tanegashima, Kagoshima"	30.28055556	30.89444444	130.8252778	131.2708333	Male	Blubber	99				245.5	cm	"Body length"	Mature																															"This sample is out of the same speciman as SAA002124."	2021/1/4	2021/1/4
PRA000111	SAA007603	ST004	103596	es-BANK	EW00125	M32655	"Peponocephala electra"	"Melon-headed whale"	2001	3	12					Asia	Japan	"Tanegashima, Kagoshima"	30.28055556	30.89444444	130.8252778	131.2708333	Male	Blubber	85				253	cm	"Body length"	Mature																															"This sample is out of the same speciman as SAA002122."	2021/1/4	2021/1/4
PRA000111	SAA007604	ST004	103596	es-BANK	EW00127	M32677	"Peponocephala electra"	"Melon-headed whale"	2001	3	12					Asia	Japan	"Tanegashima, Kagoshima"	30.28055556	30.89444444	130.8252778	131.2708333	Male	Blubber	83				261	cm	"Body length"	Mature																															"This sample is out of the same speciman as SAA002120."	2021/1/4	2021/1/4
PRA000111	SAA007605	ST004	103596	es-BANK	EW00134	M32774	"Peponocephala electra"	"Melon-headed whale"	2002	2	25					Asia	Japan	"Hasaki, Ibaraki"	35.73184444	35.82913333	140.7697722	140.8939278	Male	Blubber	44				243	cm	"Body length"	Mature	"15.5 y.o."																														"This sample is out of the same speciman as SAA002125."	2021/1/4	2021/1/4
PRA000111	SAA007606	ST004	103596	es-BANK	EW04669	M32785	"Peponocephala electra"	"Melon-headed whale"	2002	2	25					Asia	Japan	"Hasaki, Ibaraki"	35.73184444	35.82913333	140.7697722	140.8939278	Male	Blubber	69				243	cm	"Body length"	Mature	"16.5 y.o."																														"This sample is out of the same speciman as SAA002126."	2021/1/4	2021/1/4
PRA000111	SAA007607	ST004	103596	es-BANK	EW04676	M32798	"Peponocephala electra"	"Melon-headed whale"	2002	2	25					Asia	Japan	"Hasaki, Ibaraki"	35.73184444	35.82913333	140.7697722	140.8939278	Male	Blubber	43				234	cm	"Body length"	Immature	"10.5 y.o."																														"This sample is out of the same speciman as SAA002127."	2021/1/4	2021/1/4
PRA000111	SAA007608	ST004	103596	es-BANK	EW04690	M32818	"Peponocephala electra"	"Melon-headed whale"	2002	2	25					Asia	Japan	"Hasaki, Ibaraki"	35.73184444	35.82913333	140.7697722	140.8939278	Male	Blubber	40				255	cm	"Body length"	Immature	"11.5 y.o."																														"This sample is out of the same speciman as SAA002121."	2021/1/4	2021/1/4
PRA000111	SAA007609	ST004	103596	es-BANK	EW04766	M34072	"Peponocephala electra"	"Melon-headed whale"	2006	1	23					Asia	Japan	"Asahi, Chiba"	35.70111111		140.7113889		Male	Blubber	66		224.05	kg	249	cm	"Body length"	Mature																															"This sample is out of the same speciman as SAA002157."	2021/1/4	2021/1/4
PRA000111	SAA007610	ST004	103596	es-BANK	EW04764	M34076	"Peponocephala electra"	"Melon-headed whale"	2006	1	23					Asia	Japan	"Asahi, Chiba"	35.70111111		140.7113889		Male	Blubber	49		229.05	kg	255.6	cm	"Body length"	Mature																															"This sample is out of the same speciman as SAA002155."	2021/1/4	2021/1/4
PRA000111	SAA007611	ST004	103596	es-BANK	EW04762	M34077	"Peponocephala electra"	"Melon-headed whale"	2006	1	23					Asia	Japan	"Asahi, Chiba"	35.70111111		140.7113889		Male	Blubber	51		137.5	kg	234	cm	"Body length"	Mature																															"This sample is out of the same speciman as SAA002156."	2021/1/4	2021/1/4
PRA000111	SAA007612	ST004	103596	es-BANK	EW04779	M34085	"Peponocephala electra"	"Melon-headed whale"	2006	2	28					Asia	Japan	"Torami coast, Torami, Ichinomiya, Chiba"	35.33	35.35972222	140.3919417	140.3979167	Male	Blubber	28				260	cm	"Body length"	Mature																															"This sample is out of the same speciman as SAA002159."	2021/1/4	2021/1/4
PRA000111	SAA007613	ST004	103596	es-BANK	EW04772	M34090	"Peponocephala electra"	"Melon-headed whale"	2006	2	28					Asia	Japan	"Torami coast, Torami, Ichinomiya, Chiba"	35.33	35.35972222	140.3919417	140.3979167	Male	Blubber	35				239	cm	"Body length"	Mature																															"This sample is out of the same speciman as SAA002158."	2021/1/4	2021/1/4
PRA000111	SAA007614	ST004	103596	es-BANK	EW04925	M34095	"Peponocephala electra"	"Melon-headed whale"	2006	2	28					Asia	Japan	"Torami coast, Torami, Ichinomiya, Chiba"	35.33	35.35972222	140.3919417	140.3979167	Male	Blubber	45				238	cm	"Body length"	Mature																																2021/1/4	2021/1/4
PRA000111	SAA007615	ST004	103596	es-BANK	EW04926	M34099	"Peponocephala electra"	"Melon-headed whale"	2006	2	28					Asia	Japan	"Torami coast, Torami, Ichinomiya, Chiba"	35.33	35.35972222	140.3919417	140.3979167	Male	Blubber	64				243	cm	"Body length"	Mature																																2021/1/4	2021/1/4
PRA000111	SAA007616	ST004	103596	es-BANK	EW05312	010104-10	"Peponocephala electra"	"Melon-headed whale"	2010	3	10					Asia	Japan	"Yakutsu Nagahama coast, Sakai, Nakatane town, Kumage-gun, Kagoshima"	30.49722222		130.8997222		Male	Blubber	62				237	cm	"Body length"																																	2021/1/4	2021/1/4
PRA000111	SAA007617	ST004	103596	es-BANK	EW05313	010104-11	"Peponocephala electra"	"Melon-headed whale"	2010	3	10					Asia	Japan	"Yakutsu Nagahama coast, Sakai, Nakatane town, Kumage-gun, Kagoshima"	30.49722222		130.8997222		Male	Blubber	66				250	cm	"Body length"																																	2021/1/4	2021/1/4
PRA000111	SAA007618	ST004	103596	es-BANK	EW05314	010104-33	"Peponocephala electra"	"Melon-headed whale"	2010	3	10					Asia	Japan	"Yakutsu Nagahama coast, Sakai, Nakatane town, Kumage-gun, Kagoshima"	30.49722222		130.8997222		Male	Blubber	79				247	cm	"Body length"																																	2021/1/4	2021/1/4
PRA000111	SAA007619	ST004	103596	es-BANK	EW05195	110306-01	"Peponocephala electra"	"Melon-headed whale"	2011	3	6					Asia	Japan	"Oritsu coast, Kashima city, Ibaraki"	35.98201389		140.6644722		Male	Blubber	41				262	cm	"Body length"	Mature																																2021/1/4	2021/1/4
PRA000111	SAA007620	ST004	103596	es-BANK	EW05201	110306-07	"Peponocephala electra"	"Melon-headed whale"	2011	3	6					Asia	Japan	"Oritsu coast, Kashima city, Ibaraki"	35.98201389		140.6644722		Male	Blubber	41				267.5	cm	"Body length"	Mature																																2021/1/4	2021/1/4
PRA000111	SAA007621	ST004	103596	es-BANK	EW05202	110306-08	"Peponocephala electra"	"Melon-headed whale"	2011	3	6					Asia	Japan	"Oritsu coast, Kashima city, Ibaraki"	35.98201389		140.6644722		Male	Blubber	45				256.3	cm	"Body length"	Mature																																2021/1/4	2021/1/4
PRA000111	SAA007622	ST004	103596	es-BANK	EW05179	110306-17	"Peponocephala electra"	"Melon-headed whale"	2011	3	6					Asia	Japan	"Oritsu coast, Kashima city, Ibaraki"	35.98201389		140.6644722		Male	Blubber	61		232.4	kg	259.7	cm	"Body length"	Mature																																2021/1/4	2021/1/4
PRA000111	SAA007623	ST004	103596	es-BANK	EW05183	110306-21	"Peponocephala electra"	"Melon-headed whale"	2011	3	6					Asia	Japan	"Oritsu coast, Kashima city, Ibaraki"	35.98201389		140.6644722		Male	Blubber	53		238	kg	261.8	cm	"Body length"	Mature																																2021/1/4	2021/1/4
PRA000111	SAA007624	ST004	103596	es-BANK	EW05189	110306-27	"Peponocephala electra"	"Melon-headed whale"	2011	3	6					Asia	Japan	"Oritsu coast, Kashima city, Ibaraki"	35.98201389		140.6644722		Male	Blubber	56		249.8	kg	270	cm	"Body length"	Mature																																2021/1/4	2021/1/4
PRA000111	SAA007625	ST004	103596	es-BANK	EW05184	110306-22	"Peponocephala electra"	"Melon-headed whale"	2011	3	6					Asia	Japan	"Oritsu coast, Kashima city, Ibaraki"	35.98201389		140.6644722		Male	Blubber	73		178	kg	263	cm	"Body length"	Mature																																2021/1/4	2021/1/4
PRA000111	SAA007626	ST004	103596	es-BANK	EW05714	Hokota-02	"Peponocephala electra"	"Melon-headed whale"	2015	4	11					Asia	Japan	"Kyochigma coast, Kamizawa, Hokota city, Ibaraki"	36.095289	36.098629	140.603402	140.605157	Male	Blubber	53				254.7	cm	"Body length"																																	2021/1/4	2021/1/4
PRA000111	SAA007627	ST004	103596	es-BANK	EW05717	Hokota-05	"Peponocephala electra"	"Melon-headed whale"	2015	4	11					Asia	Japan	"Kyochigma coast, Kamizawa, Hokota city, Ibaraki"	36.095289	36.098629	140.603402	140.605157	Male	Blubber	52				244	cm	"Body length"																																	2021/1/4	2021/1/4
PRA000111	SAA007628	ST004	103596	es-BANK	EW05725	Hokota-15	"Peponocephala electra"	"Melon-headed whale"	2015	4	11					Asia	Japan	"Kyochigma coast, Kamizawa, Hokota city, Ibaraki"	36.095289	36.098629	140.603402	140.605157	Male	Blubber	48		195.4	kg	255.3	cm	"Body length"																																	2021/1/4	2021/1/4
PRA000111	SAA007629	ST004	103596	es-BANK	EW05726	Hokota-16	"Peponocephala electra"	"Melon-headed whale"	2015	4	11					Asia	Japan	"Kyochigma coast, Kamizawa, Hokota city, Ibaraki"	36.095289	36.098629	140.603402	140.605157	Male	Blubber	49				252	cm	"Body length"																																	2021/1/4	2021/1/4
PRA000111	SAA007630	ST004	103596	es-BANK	EW05727	Hokota-17	"Peponocephala electra"	"Melon-headed whale"	2015	4	11					Asia	Japan	"Kyochigma coast, Kamizawa, Hokota city, Ibaraki"	36.095289	36.098629	140.603402	140.605157	Male	Blubber	62				253	cm	"Body length"																																	2021/1/4	2021/1/4
PRA000111	SAA007631	ST004	103596	es-BANK	EW05736	Hokota-26	"Peponocephala electra"	"Melon-headed whale"	2015	4	11					Asia	Japan	"Kyochigma coast, Kamizawa, Hokota city, Ibaraki"	36.095289	36.098629	140.603402	140.605157	Male	Blubber	50				255	cm	"Body length"																																	2021/1/4	2021/1/4
PRA000111	SAA007632	ST004	103596	es-BANK	EW05741	Hokota-31	"Peponocephala electra"	"Melon-headed whale"	2015	4	11					Asia	Japan	"Kyochigma coast, Kamizawa, Hokota city, Ibaraki"	36.095289	36.098629	140.603402	140.605157	Male	Blubber	53		184.5	kg	252.5	cm	"Body length"																																	2021/1/4	2021/1/4
PRA000127	SAA009950	ST009	29158			HR-1M	"Mytilus galloprovincialis"	"Blue mussel"	2017	11	7					Asia	Japan	"Otake city, Horoshima"	34.24083333		132.2330556			"Whole soft tissues"	0.88																																							2025/02/14	2025/02/14
PRA000127	SAA009951	ST009	29158			HR-2M	"Mytilus galloprovincialis"	"Blue mussel"	2017	11	7					Asia	Japan	"Hatsukaichi city, Horoshima"	34.30638889		132.32			"Whole soft tissues"	0.84																																							2025/02/14	2025/02/14
PRA000127	SAA009952	ST009	29158			HR-3M	"Mytilus galloprovincialis"	"Blue mussel"	2017	11	7					Asia	Japan	"Hatsukaichi city, Horoshima"	34.3575		132.3386111			"Whole soft tissues"	0.64																																							2025/02/14	2025/02/14
PRA000127	SAA009953	ST009	29158			HR-4M	"Mytilus galloprovincialis"	"Blue mussel"	2017	11	7					Asia	Japan	"Etajima city, Horoshima"	34.26666667		132.4088889			"Whole soft tissues"	0.77																																							2025/02/14	2025/02/14
PRA000127	SAA009954	ST009	29158			HR-5M	"Mytilus galloprovincialis"	"Blue mussel"	2017	11	7					Asia	Japan	"Hiroshima city, Horoshima"	34.34305556		132.465			"Whole soft tissues"	1.1																																							2025/02/14	2025/02/14
PRA000127	SAA009955	ST009	29158			EH-1M	"Mytilus galloprovincialis"	"Blue mussel"	2017	10	30					Asia	Japan	"Iyo City, Ehime"	33.75		132.6697222			"Whole soft tissues"	1.6																																							2025/02/14	2025/02/14
PRA000127	SAA009956	ST009	121615			EH-1O	"Crassostrea nippona"	Oyster	2017	10	30					Asia	Japan	"Iyo City, Ehime"	33.75		132.6697222			"Whole soft tissues"	1.6																																							2025/02/14	2025/02/14
PRA000127	SAA009957	ST009	29158			EH-2M	"Mytilus galloprovincialis"	"Blue mussel"	2017	11	8					Asia	Japan	"Matsuyama City, Ehime"	33.8525		132.7077778			"Whole soft tissues"	1.2																																							2025/02/14	2025/02/14
PRA000127	SAA009958	ST009	29158			EH-3M	"Mytilus galloprovincialis"	"Blue mussel"	2017	11	8					Asia	Japan	"Matsuyama City, Ehime"	33.89111111		132.7252778			"Whole soft tissues"	0.66																																							2025/02/14	2025/02/14
PRA000127	SAA009959	ST009	42192			EH-4M	"Mytilus coruscus"	Mussel	2017	11	8					Asia	Japan	"Imabari City, Ehime"	34.09277778		133.0197222			"Whole soft tissues"	0.68																																							2025/02/14	2025/02/14
PRA000127	SAA009960	ST009	42192			EH-5M	"Mytilus coruscus"	Mussel	2017	11	8					Asia	Japan	"Niihama City, Ehime"	33.97277778		133.2977778			"Whole soft tissues"	2.7																																							2025/02/14	2025/02/14
PRA000127	SAA009961	ST009	42192			EH-6M	"Mytilus coruscus"	Mussel	2017	11	8					Asia	Japan	"Shikokuchuo City, Ehime"	34.02444444		133.5805556			"Whole soft tissues"	2.7																																							2025/02/14	2025/02/14
PRA000127	SAA009962	ST009	121615			OK-1O	"Crassostrea nippona"	Oyster	2017	11	30					Asia	Japan	"Kurashiki City, Okayama"	34.52777778		133.6561111			"Whole soft tissues"	1.9																																							2025/02/14	2025/02/14
PRA000127	SAA009963	ST009	121615			OK-2O	"Crassostrea nippona"	Oyster	2017	11	30					Asia	Japan	"Kurashiki City, Okayama"	34.52138889		133.6938889			"Whole soft tissues"	0.38																																							2025/02/14	2025/02/14
PRA000127	SAA009964	ST009	121615			OK-3O	"Crassostrea nippona"	Oyster	2017	11	30					Asia	Japan	"Okayama City, Okayama"	34.60305556		133.9883333			"Whole soft tissues"	1.7																																							2025/02/14	2025/02/14
PRA000127	SAA009965	ST009	42192			KG-1M	"Mytilus coruscus"	Mussel	2017	11	29					Asia	Japan	"Utazu Town, Kagawa"	34.32833333		133.84			"Whole soft tissues"	1.8																																							2025/02/14	2025/02/14
PRA000127	SAA009966	ST009	42192			KG-2M	"Mytilus coruscus"	Mussel	2017	11	29					Asia	Japan	"Sakaide City, Kagawa"	34.37138889		133.8763889			"Whole soft tissues"	1.3																																							2025/02/14	2025/02/14
PRA000127	SAA009967	ST009	121615			KG-2O	"Crassostrea nippona"	Oyster	2017	11	29					Asia	Japan	"Sakaide City, Kagawa"	34.37138889		133.8763889			"Whole soft tissues"	1.3																																							2025/02/14	2025/02/14
PRA000127	SAA009968	ST009	121615			KG-3O	"Crassostrea nippona"	Oyster	2017	11	29					Asia	Japan	"Takamatsu City, Kagawa"	34.34777778		134.0711111			"Whole soft tissues"	0.87																																							2025/02/14	2025/02/14
PRA000127	SAA009969	ST009	29158			HY-1M	"Mytilus galloprovincialis"	"Blue mussel"	2017	11	29					Asia	Japan	"Himeji City, Hyogo"	34.77916667		134.5997222			"Whole soft tissues"	1.4																																							2025/02/14	2025/02/14
PRA000127	SAA009970	ST009	121615			HY-2O	"Crassostrea nippona"	Oyster	2017	11	29					Asia	Japan	"Himeji City, Hyogo"	34.79888889		134.6608333			"Whole soft tissues"	1.1																																							2025/02/14	2025/02/14
PRA000127	SAA009971	ST009	121615			HY-3O	"Crassostrea nippona"	Oyster	2017	11	29					Asia	Japan	"Minamiawaji City, Hyogo"	34.32027778		134.7183333			"Whole soft tissues"	0.65																																							2025/02/14	2025/02/14
PRA000127	SAA009972	ST009	29158			HY-5M	"Mytilus galloprovincialis"	"Blue mussel"	2017	11	30					Asia	Japan	"Kobe City, Hyogo"	34.62277778		135.0638889			"Whole soft tissues"	1.1																																							2025/02/14	2025/02/14
PRA000127	SAA009973	ST009	121615			HY-5O	"Crassostrea nippona"	Oyster	2017	11	30					Asia	Japan	"Kobe City, Hyogo"	34.62277778		135.0638889			"Whole soft tissues"	0.78																																							2025/02/14	2025/02/14
PRA000127	SAA009974	ST009	121615			HY-6O	"Crassostrea nippona"	Oyster	2017	11	29					Asia	Japan	"Kobe City, Hyogo"	34.67833333		135.1861111			"Whole soft tissues"	0.61																																							2025/02/14	2025/02/14
PRA000127	SAA009975	ST009	121615			OS-1O	"Crassostrea nippona"	Oyster	2017	11	30					Asia	Japan	"Osaka City, Osaka"	34.69305556		135.4075			"Whole soft tissues"	0.82																																							2025/02/14	2025/02/14
PRA000127	SAA009976	ST009	1289581			OS-2M	"Xenostrobus securis"	"Small brown mussel"	2017	11	30					Asia	Japan	"Osaka City, Osaka"	34.665		135.4483333			"Whole soft tissues"	0.55																																							2025/02/14	2025/02/14
PRA000127	SAA009977	ST009	121615			OS-3O	"Crassostrea nippona"	Oyster	2019	7	16					Asia	Japan	"Izumisano City, Osaka"	34.42944444		135.3194444			"Whole soft tissues"	0.99																																							2025/02/14	2025/02/14
PRA000127	SAA009978	ST009	121615			OS-4O	"Crassostrea nippona"	Oyster	2019	7	16					Asia	Japan	"Sennan City, Osaka"	34.32166667		135.1294444			"Whole soft tissues"	1.3																																							2025/02/14	2025/02/14
PRA000127	SAA009979	ST009	121615			OS-5O	"Crassostrea nippona"	Oyster	2019	7	17					Asia	Japan	"Osaka City, Osaka"	34.61361111		135.4441667			"Whole soft tissues"	2.4																																							2025/2/14	2025/2/14
